<?xml version="1.0" encoding="UTF-8" standalone="no" ?>
<gpx xmlns="http://www.topografix.com/GPX/1/1" xmlns:xsi="http://www.w3.org/2001/XMLSchema-instance" xsi:schemaLocation="http://www.topografix.com/GPX/1/1 http://www.topografix.com/GPX/1/1/gpx.xsd" version="1.1" creator="VisuGPX - https://www.visugpx.com">
  <metadata>
    <name>Gourdon 2014</name>
    <desc><![CDATA[Sortie vtt gourdon]]></desc>
  </metadata>
  <trk>
    <name><![CDATA[Sequence 1]]></name>
    <trkseg>
      <trkpt lat="43.70022" lon="6.9862">
        <ele>342</ele>
        <time>2014-08-31T06:35:25Z</time>
      </trkpt>
      <trkpt lat="43.70022" lon="6.9862">
        <ele>342</ele>
        <time>2014-08-31T06:35:30Z</time>
      </trkpt>
      <trkpt lat="43.70022" lon="6.9862">
        <ele>341</ele>
        <time>2014-08-31T06:35:35Z</time>
      </trkpt>
      <trkpt lat="43.70023" lon="6.9862">
        <ele>341</ele>
        <time>2014-08-31T06:35:40Z</time>
      </trkpt>
      <trkpt lat="43.70023" lon="6.98621">
        <ele>342</ele>
        <time>2014-08-31T06:35:45Z</time>
      </trkpt>
      <trkpt lat="43.70022" lon="6.98621">
        <ele>342</ele>
        <time>2014-08-31T06:35:50Z</time>
      </trkpt>
      <trkpt lat="43.70022" lon="6.98621">
        <ele>342</ele>
        <time>2014-08-31T06:35:56Z</time>
      </trkpt>
      <trkpt lat="43.70022" lon="6.98621">
        <ele>342</ele>
        <time>2014-08-31T06:36:00Z</time>
      </trkpt>
      <trkpt lat="43.70022" lon="6.98621">
        <ele>342</ele>
        <time>2014-08-31T06:36:05Z</time>
      </trkpt>
      <trkpt lat="43.70023" lon="6.9862">
        <ele>342</ele>
        <time>2014-08-31T06:36:10Z</time>
      </trkpt>
      <trkpt lat="43.70023" lon="6.9862">
        <ele>342</ele>
        <time>2014-08-31T06:36:15Z</time>
      </trkpt>
      <trkpt lat="43.70023" lon="6.9862">
        <ele>342</ele>
        <time>2014-08-31T06:36:20Z</time>
      </trkpt>
      <trkpt lat="43.70023" lon="6.9862">
        <ele>342</ele>
        <time>2014-08-31T06:36:25Z</time>
      </trkpt>
      <trkpt lat="43.70023" lon="6.9862">
        <ele>342</ele>
        <time>2014-08-31T06:36:30Z</time>
      </trkpt>
      <trkpt lat="43.70023" lon="6.9862">
        <ele>342</ele>
        <time>2014-08-31T06:36:35Z</time>
      </trkpt>
      <trkpt lat="43.70023" lon="6.9862">
        <ele>342</ele>
        <time>2014-08-31T06:36:40Z</time>
      </trkpt>
      <trkpt lat="43.70023" lon="6.9862">
        <ele>342</ele>
        <time>2014-08-31T06:36:45Z</time>
      </trkpt>
      <trkpt lat="43.70023" lon="6.9862">
        <ele>342</ele>
        <time>2014-08-31T06:36:50Z</time>
      </trkpt>
      <trkpt lat="43.70023" lon="6.9862">
        <ele>342</ele>
        <time>2014-08-31T06:36:55Z</time>
      </trkpt>
      <trkpt lat="43.70023" lon="6.9862">
        <ele>342</ele>
        <time>2014-08-31T06:37:00Z</time>
      </trkpt>
      <trkpt lat="43.70023" lon="6.9862">
        <ele>342</ele>
        <time>2014-08-31T06:37:05Z</time>
      </trkpt>
      <trkpt lat="43.70023" lon="6.9862">
        <ele>342</ele>
        <time>2014-08-31T06:37:10Z</time>
      </trkpt>
      <trkpt lat="43.70023" lon="6.9862">
        <ele>342</ele>
        <time>2014-08-31T06:37:15Z</time>
      </trkpt>
      <trkpt lat="43.70023" lon="6.9862">
        <ele>342</ele>
        <time>2014-08-31T06:37:20Z</time>
      </trkpt>
      <trkpt lat="43.70023" lon="6.9862">
        <ele>342</ele>
        <time>2014-08-31T06:37:25Z</time>
      </trkpt>
      <trkpt lat="43.70023" lon="6.9862">
        <ele>342</ele>
        <time>2014-08-31T06:37:30Z</time>
      </trkpt>
      <trkpt lat="43.70023" lon="6.9862">
        <ele>342</ele>
        <time>2014-08-31T06:37:35Z</time>
      </trkpt>
      <trkpt lat="43.70023" lon="6.9862">
        <ele>342</ele>
        <time>2014-08-31T06:37:40Z</time>
      </trkpt>
      <trkpt lat="43.70023" lon="6.9862">
        <ele>342</ele>
        <time>2014-08-31T06:37:47Z</time>
      </trkpt>
      <trkpt lat="43.70023" lon="6.9862">
        <ele>342</ele>
        <time>2014-08-31T06:37:50Z</time>
      </trkpt>
      <trkpt lat="43.70023" lon="6.9862">
        <ele>342</ele>
        <time>2014-08-31T06:37:55Z</time>
      </trkpt>
      <trkpt lat="43.70023" lon="6.9862">
        <ele>342</ele>
        <time>2014-08-31T06:38:00Z</time>
      </trkpt>
      <trkpt lat="43.70023" lon="6.9862">
        <ele>342</ele>
        <time>2014-08-31T06:38:05Z</time>
      </trkpt>
      <trkpt lat="43.70023" lon="6.9862">
        <ele>342</ele>
        <time>2014-08-31T06:38:10Z</time>
      </trkpt>
      <trkpt lat="43.70023" lon="6.9862">
        <ele>342</ele>
        <time>2014-08-31T06:38:15Z</time>
      </trkpt>
      <trkpt lat="43.70023" lon="6.9862">
        <ele>342</ele>
        <time>2014-08-31T06:38:20Z</time>
      </trkpt>
      <trkpt lat="43.70023" lon="6.9862">
        <ele>342</ele>
        <time>2014-08-31T06:38:25Z</time>
      </trkpt>
      <trkpt lat="43.70023" lon="6.9862">
        <ele>342</ele>
        <time>2014-08-31T06:38:30Z</time>
      </trkpt>
      <trkpt lat="43.70023" lon="6.9862">
        <ele>342</ele>
        <time>2014-08-31T06:38:37Z</time>
      </trkpt>
      <trkpt lat="43.70023" lon="6.9862">
        <ele>342</ele>
        <time>2014-08-31T06:38:42Z</time>
      </trkpt>
      <trkpt lat="43.70023" lon="6.9862">
        <ele>342</ele>
        <time>2014-08-31T06:38:45Z</time>
      </trkpt>
      <trkpt lat="43.70023" lon="6.9862">
        <ele>342</ele>
        <time>2014-08-31T06:38:52Z</time>
      </trkpt>
      <trkpt lat="43.70023" lon="6.9862">
        <ele>342</ele>
        <time>2014-08-31T06:38:55Z</time>
      </trkpt>
      <trkpt lat="43.70023" lon="6.9862">
        <ele>342</ele>
        <time>2014-08-31T06:39:00Z</time>
      </trkpt>
      <trkpt lat="43.70023" lon="6.9862">
        <ele>342</ele>
        <time>2014-08-31T06:39:05Z</time>
      </trkpt>
      <trkpt lat="43.70023" lon="6.9862">
        <ele>342</ele>
        <time>2014-08-31T06:39:10Z</time>
      </trkpt>
      <trkpt lat="43.70023" lon="6.9862">
        <ele>342</ele>
        <time>2014-08-31T06:39:15Z</time>
      </trkpt>
      <trkpt lat="43.70023" lon="6.9862">
        <ele>342</ele>
        <time>2014-08-31T06:39:20Z</time>
      </trkpt>
      <trkpt lat="43.70023" lon="6.9862">
        <ele>342</ele>
        <time>2014-08-31T06:39:25Z</time>
      </trkpt>
      <trkpt lat="43.70023" lon="6.9862">
        <ele>342</ele>
        <time>2014-08-31T06:39:30Z</time>
      </trkpt>
      <trkpt lat="43.70023" lon="6.9862">
        <ele>342</ele>
        <time>2014-08-31T06:39:35Z</time>
      </trkpt>
      <trkpt lat="43.70023" lon="6.9862">
        <ele>342</ele>
        <time>2014-08-31T06:39:40Z</time>
      </trkpt>
      <trkpt lat="43.70023" lon="6.9862">
        <ele>342</ele>
        <time>2014-08-31T06:39:45Z</time>
      </trkpt>
      <trkpt lat="43.70023" lon="6.9862">
        <ele>342</ele>
        <time>2014-08-31T06:39:50Z</time>
      </trkpt>
      <trkpt lat="43.70023" lon="6.9862">
        <ele>341</ele>
        <time>2014-08-31T06:39:55Z</time>
      </trkpt>
      <trkpt lat="43.70022" lon="6.9862">
        <ele>342</ele>
        <time>2014-08-31T06:40:00Z</time>
      </trkpt>
      <trkpt lat="43.70021" lon="6.9862">
        <ele>342</ele>
        <time>2014-08-31T06:40:05Z</time>
      </trkpt>
      <trkpt lat="43.70021" lon="6.9862">
        <ele>342</ele>
        <time>2014-08-31T06:40:10Z</time>
      </trkpt>
      <trkpt lat="43.70021" lon="6.9862">
        <ele>342</ele>
        <time>2014-08-31T06:40:15Z</time>
      </trkpt>
      <trkpt lat="43.70021" lon="6.9862">
        <ele>342</ele>
        <time>2014-08-31T06:40:20Z</time>
      </trkpt>
      <trkpt lat="43.70021" lon="6.9862">
        <ele>342</ele>
        <time>2014-08-31T06:40:25Z</time>
      </trkpt>
      <trkpt lat="43.70021" lon="6.9862">
        <ele>342</ele>
        <time>2014-08-31T06:40:30Z</time>
      </trkpt>
      <trkpt lat="43.70021" lon="6.9862">
        <ele>342</ele>
        <time>2014-08-31T06:40:35Z</time>
      </trkpt>
      <trkpt lat="43.70021" lon="6.9862">
        <ele>342</ele>
        <time>2014-08-31T06:40:40Z</time>
      </trkpt>
      <trkpt lat="43.70021" lon="6.9862">
        <ele>342</ele>
        <time>2014-08-31T06:40:45Z</time>
      </trkpt>
      <trkpt lat="43.70021" lon="6.9862">
        <ele>342</ele>
        <time>2014-08-31T06:40:53Z</time>
      </trkpt>
      <trkpt lat="43.70021" lon="6.9862">
        <ele>342</ele>
        <time>2014-08-31T06:40:55Z</time>
      </trkpt>
      <trkpt lat="43.70021" lon="6.9862">
        <ele>342</ele>
        <time>2014-08-31T06:41:00Z</time>
      </trkpt>
      <trkpt lat="43.70021" lon="6.9862">
        <ele>342</ele>
        <time>2014-08-31T06:41:05Z</time>
      </trkpt>
      <trkpt lat="43.70021" lon="6.9862">
        <ele>342</ele>
        <time>2014-08-31T06:41:10Z</time>
      </trkpt>
      <trkpt lat="43.70021" lon="6.9862">
        <ele>342</ele>
        <time>2014-08-31T06:41:15Z</time>
      </trkpt>
      <trkpt lat="43.70021" lon="6.9862">
        <ele>342</ele>
        <time>2014-08-31T06:41:20Z</time>
      </trkpt>
      <trkpt lat="43.70021" lon="6.9862">
        <ele>342</ele>
        <time>2014-08-31T06:41:26Z</time>
      </trkpt>
      <trkpt lat="43.70021" lon="6.9862">
        <ele>342</ele>
        <time>2014-08-31T06:41:30Z</time>
      </trkpt>
      <trkpt lat="43.70021" lon="6.9862">
        <ele>342</ele>
        <time>2014-08-31T06:41:35Z</time>
      </trkpt>
      <trkpt lat="43.70021" lon="6.9862">
        <ele>342</ele>
        <time>2014-08-31T06:41:40Z</time>
      </trkpt>
      <trkpt lat="43.70021" lon="6.9862">
        <ele>342</ele>
        <time>2014-08-31T06:41:45Z</time>
      </trkpt>
      <trkpt lat="43.70021" lon="6.9862">
        <ele>342</ele>
        <time>2014-08-31T06:41:50Z</time>
      </trkpt>
      <trkpt lat="43.70021" lon="6.9862">
        <ele>342</ele>
        <time>2014-08-31T06:41:55Z</time>
      </trkpt>
      <trkpt lat="43.70021" lon="6.9862">
        <ele>342</ele>
        <time>2014-08-31T06:42:00Z</time>
      </trkpt>
      <trkpt lat="43.70021" lon="6.9862">
        <ele>342</ele>
        <time>2014-08-31T06:42:05Z</time>
      </trkpt>
      <trkpt lat="43.70021" lon="6.9862">
        <ele>342</ele>
        <time>2014-08-31T06:42:10Z</time>
      </trkpt>
      <trkpt lat="43.70021" lon="6.9862">
        <ele>342</ele>
        <time>2014-08-31T06:42:15Z</time>
      </trkpt>
      <trkpt lat="43.70021" lon="6.9862">
        <ele>342</ele>
        <time>2014-08-31T06:42:20Z</time>
      </trkpt>
      <trkpt lat="43.70021" lon="6.9862">
        <ele>342</ele>
        <time>2014-08-31T06:42:25Z</time>
      </trkpt>
      <trkpt lat="43.70021" lon="6.9862">
        <ele>342</ele>
        <time>2014-08-31T06:42:30Z</time>
      </trkpt>
      <trkpt lat="43.70021" lon="6.9862">
        <ele>342</ele>
        <time>2014-08-31T06:42:35Z</time>
      </trkpt>
      <trkpt lat="43.70021" lon="6.9862">
        <ele>342</ele>
        <time>2014-08-31T06:42:40Z</time>
      </trkpt>
      <trkpt lat="43.70021" lon="6.9862">
        <ele>342</ele>
        <time>2014-08-31T06:42:45Z</time>
      </trkpt>
      <trkpt lat="43.70021" lon="6.9862">
        <ele>342</ele>
        <time>2014-08-31T06:42:50Z</time>
      </trkpt>
      <trkpt lat="43.70021" lon="6.9862">
        <ele>342</ele>
        <time>2014-08-31T06:42:55Z</time>
      </trkpt>
      <trkpt lat="43.70021" lon="6.9862">
        <ele>342</ele>
        <time>2014-08-31T06:43:00Z</time>
      </trkpt>
      <trkpt lat="43.70021" lon="6.9862">
        <ele>342</ele>
        <time>2014-08-31T06:43:06Z</time>
      </trkpt>
      <trkpt lat="43.70021" lon="6.9862">
        <ele>342</ele>
        <time>2014-08-31T06:43:10Z</time>
      </trkpt>
      <trkpt lat="43.70021" lon="6.9862">
        <ele>342</ele>
        <time>2014-08-31T06:43:15Z</time>
      </trkpt>
      <trkpt lat="43.70021" lon="6.9862">
        <ele>342</ele>
        <time>2014-08-31T06:43:21Z</time>
      </trkpt>
      <trkpt lat="43.70021" lon="6.9862">
        <ele>342</ele>
        <time>2014-08-31T06:43:25Z</time>
      </trkpt>
      <trkpt lat="43.70021" lon="6.9862">
        <ele>342</ele>
        <time>2014-08-31T06:43:30Z</time>
      </trkpt>
      <trkpt lat="43.70021" lon="6.9862">
        <ele>342</ele>
        <time>2014-08-31T06:43:35Z</time>
      </trkpt>
      <trkpt lat="43.70021" lon="6.9862">
        <ele>342</ele>
        <time>2014-08-31T06:43:42Z</time>
      </trkpt>
      <trkpt lat="43.70021" lon="6.9862">
        <ele>342</ele>
        <time>2014-08-31T06:43:45Z</time>
      </trkpt>
      <trkpt lat="43.70021" lon="6.9862">
        <ele>342</ele>
        <time>2014-08-31T06:43:51Z</time>
      </trkpt>
      <trkpt lat="43.70021" lon="6.9862">
        <ele>342</ele>
        <time>2014-08-31T06:43:55Z</time>
      </trkpt>
      <trkpt lat="43.70021" lon="6.9862">
        <ele>342</ele>
        <time>2014-08-31T06:44:00Z</time>
      </trkpt>
      <trkpt lat="43.70021" lon="6.9862">
        <ele>342</ele>
        <time>2014-08-31T06:44:05Z</time>
      </trkpt>
      <trkpt lat="43.70021" lon="6.9862">
        <ele>342</ele>
        <time>2014-08-31T06:44:10Z</time>
      </trkpt>
      <trkpt lat="43.70021" lon="6.9862">
        <ele>342</ele>
        <time>2014-08-31T06:44:15Z</time>
      </trkpt>
      <trkpt lat="43.70021" lon="6.9862">
        <ele>342</ele>
        <time>2014-08-31T06:44:20Z</time>
      </trkpt>
      <trkpt lat="43.70021" lon="6.9862">
        <ele>342</ele>
        <time>2014-08-31T06:44:25Z</time>
      </trkpt>
      <trkpt lat="43.70021" lon="6.9862">
        <ele>342</ele>
        <time>2014-08-31T06:44:30Z</time>
      </trkpt>
      <trkpt lat="43.70022" lon="6.98619">
        <ele>341</ele>
        <time>2014-08-31T06:44:37Z</time>
      </trkpt>
      <trkpt lat="43.70021" lon="6.98618">
        <ele>342</ele>
        <time>2014-08-31T06:44:40Z</time>
      </trkpt>
      <trkpt lat="43.70021" lon="6.9862">
        <ele>341</ele>
        <time>2014-08-31T06:44:45Z</time>
      </trkpt>
      <trkpt lat="43.70021" lon="6.98621">
        <ele>342</ele>
        <time>2014-08-31T06:44:51Z</time>
      </trkpt>
      <trkpt lat="43.70021" lon="6.98621">
        <ele>342</ele>
        <time>2014-08-31T06:44:57Z</time>
      </trkpt>
      <trkpt lat="43.70021" lon="6.98621">
        <ele>342</ele>
        <time>2014-08-31T06:45:00Z</time>
      </trkpt>
      <trkpt lat="43.70021" lon="6.98621">
        <ele>342</ele>
        <time>2014-08-31T06:45:05Z</time>
      </trkpt>
      <trkpt lat="43.70021" lon="6.98621">
        <ele>342</ele>
        <time>2014-08-31T06:45:10Z</time>
      </trkpt>
      <trkpt lat="43.70021" lon="6.98621">
        <ele>342</ele>
        <time>2014-08-31T06:45:15Z</time>
      </trkpt>
      <trkpt lat="43.70021" lon="6.98621">
        <ele>342</ele>
        <time>2014-08-31T06:45:20Z</time>
      </trkpt>
      <trkpt lat="43.70021" lon="6.98621">
        <ele>342</ele>
        <time>2014-08-31T06:45:26Z</time>
      </trkpt>
      <trkpt lat="43.70021" lon="6.98621">
        <ele>342</ele>
        <time>2014-08-31T06:45:30Z</time>
      </trkpt>
      <trkpt lat="43.70021" lon="6.98621">
        <ele>342</ele>
        <time>2014-08-31T06:45:35Z</time>
      </trkpt>
      <trkpt lat="43.70021" lon="6.98621">
        <ele>342</ele>
        <time>2014-08-31T06:45:40Z</time>
      </trkpt>
      <trkpt lat="43.70021" lon="6.98621">
        <ele>342</ele>
        <time>2014-08-31T06:45:45Z</time>
      </trkpt>
      <trkpt lat="43.70021" lon="6.98621">
        <ele>342</ele>
        <time>2014-08-31T06:45:50Z</time>
      </trkpt>
      <trkpt lat="43.70021" lon="6.98621">
        <ele>342</ele>
        <time>2014-08-31T06:45:55Z</time>
      </trkpt>
      <trkpt lat="43.70021" lon="6.98621">
        <ele>342</ele>
        <time>2014-08-31T06:46:01Z</time>
      </trkpt>
      <trkpt lat="43.70021" lon="6.98621">
        <ele>342</ele>
        <time>2014-08-31T06:46:05Z</time>
      </trkpt>
      <trkpt lat="43.70021" lon="6.98621">
        <ele>342</ele>
        <time>2014-08-31T06:46:12Z</time>
      </trkpt>
      <trkpt lat="43.70021" lon="6.98621">
        <ele>342</ele>
        <time>2014-08-31T06:46:16Z</time>
      </trkpt>
      <trkpt lat="43.70021" lon="6.98621">
        <ele>342</ele>
        <time>2014-08-31T06:46:20Z</time>
      </trkpt>
      <trkpt lat="43.70021" lon="6.98621">
        <ele>342</ele>
        <time>2014-08-31T06:46:25Z</time>
      </trkpt>
      <trkpt lat="43.70021" lon="6.9862">
        <ele>342</ele>
        <time>2014-08-31T06:46:30Z</time>
      </trkpt>
      <trkpt lat="43.70021" lon="6.9862">
        <ele>342</ele>
        <time>2014-08-31T06:46:36Z</time>
      </trkpt>
      <trkpt lat="43.70021" lon="6.9862">
        <ele>342</ele>
        <time>2014-08-31T06:46:40Z</time>
      </trkpt>
      <trkpt lat="43.70021" lon="6.9862">
        <ele>341</ele>
        <time>2014-08-31T06:46:48Z</time>
      </trkpt>
      <trkpt lat="43.70021" lon="6.9862">
        <ele>341</ele>
        <time>2014-08-31T06:46:50Z</time>
      </trkpt>
      <trkpt lat="43.70021" lon="6.9862">
        <ele>341</ele>
        <time>2014-08-31T06:46:55Z</time>
      </trkpt>
      <trkpt lat="43.70021" lon="6.9862">
        <ele>341</ele>
        <time>2014-08-31T06:47:00Z</time>
      </trkpt>
      <trkpt lat="43.70021" lon="6.9862">
        <ele>341</ele>
        <time>2014-08-31T06:47:05Z</time>
      </trkpt>
      <trkpt lat="43.70021" lon="6.9862">
        <ele>341</ele>
        <time>2014-08-31T06:47:10Z</time>
      </trkpt>
      <trkpt lat="43.70021" lon="6.9862">
        <ele>341</ele>
        <time>2014-08-31T06:47:15Z</time>
      </trkpt>
      <trkpt lat="43.70021" lon="6.9862">
        <ele>341</ele>
        <time>2014-08-31T06:47:21Z</time>
      </trkpt>
      <trkpt lat="43.70021" lon="6.9862">
        <ele>341</ele>
        <time>2014-08-31T06:47:25Z</time>
      </trkpt>
      <trkpt lat="43.70021" lon="6.9862">
        <ele>341</ele>
        <time>2014-08-31T06:47:30Z</time>
      </trkpt>
      <trkpt lat="43.70021" lon="6.9862">
        <ele>341</ele>
        <time>2014-08-31T06:47:35Z</time>
      </trkpt>
      <trkpt lat="43.70021" lon="6.9862">
        <ele>341</ele>
        <time>2014-08-31T06:47:40Z</time>
      </trkpt>
      <trkpt lat="43.70021" lon="6.9862">
        <ele>342</ele>
        <time>2014-08-31T06:47:45Z</time>
      </trkpt>
      <trkpt lat="43.70021" lon="6.9862">
        <ele>342</ele>
        <time>2014-08-31T06:47:50Z</time>
      </trkpt>
      <trkpt lat="43.70021" lon="6.98621">
        <ele>342</ele>
        <time>2014-08-31T06:47:55Z</time>
      </trkpt>
      <trkpt lat="43.70021" lon="6.98621">
        <ele>342</ele>
        <time>2014-08-31T06:48:00Z</time>
      </trkpt>
      <trkpt lat="43.70021" lon="6.98621">
        <ele>342</ele>
        <time>2014-08-31T06:48:05Z</time>
      </trkpt>
      <trkpt lat="43.70021" lon="6.98621">
        <ele>342</ele>
        <time>2014-08-31T06:48:10Z</time>
      </trkpt>
      <trkpt lat="43.70021" lon="6.98621">
        <ele>342</ele>
        <time>2014-08-31T06:48:15Z</time>
      </trkpt>
      <trkpt lat="43.70021" lon="6.98621">
        <ele>342</ele>
        <time>2014-08-31T06:48:20Z</time>
      </trkpt>
      <trkpt lat="43.70021" lon="6.98621">
        <ele>342</ele>
        <time>2014-08-31T06:48:25Z</time>
      </trkpt>
      <trkpt lat="43.70021" lon="6.98621">
        <ele>342</ele>
        <time>2014-08-31T06:48:30Z</time>
      </trkpt>
      <trkpt lat="43.70021" lon="6.98621">
        <ele>342</ele>
        <time>2014-08-31T06:48:35Z</time>
      </trkpt>
      <trkpt lat="43.70021" lon="6.98621">
        <ele>342</ele>
        <time>2014-08-31T06:48:40Z</time>
      </trkpt>
      <trkpt lat="43.70021" lon="6.98621">
        <ele>342</ele>
        <time>2014-08-31T06:48:45Z</time>
      </trkpt>
      <trkpt lat="43.70021" lon="6.98621">
        <ele>342</ele>
        <time>2014-08-31T06:48:51Z</time>
      </trkpt>
      <trkpt lat="43.70021" lon="6.98621">
        <ele>342</ele>
        <time>2014-08-31T06:48:55Z</time>
      </trkpt>
      <trkpt lat="43.70021" lon="6.98621">
        <ele>342</ele>
        <time>2014-08-31T06:49:00Z</time>
      </trkpt>
      <trkpt lat="43.70021" lon="6.98621">
        <ele>342</ele>
        <time>2014-08-31T06:49:05Z</time>
      </trkpt>
      <trkpt lat="43.70021" lon="6.98621">
        <ele>342</ele>
        <time>2014-08-31T06:49:10Z</time>
      </trkpt>
      <trkpt lat="43.70021" lon="6.98621">
        <ele>342</ele>
        <time>2014-08-31T06:49:15Z</time>
      </trkpt>
      <trkpt lat="43.70021" lon="6.98621">
        <ele>342</ele>
        <time>2014-08-31T06:49:22Z</time>
      </trkpt>
      <trkpt lat="43.70021" lon="6.98621">
        <ele>342</ele>
        <time>2014-08-31T06:49:25Z</time>
      </trkpt>
      <trkpt lat="43.70021" lon="6.98621">
        <ele>342</ele>
        <time>2014-08-31T06:49:30Z</time>
      </trkpt>
      <trkpt lat="43.70021" lon="6.98621">
        <ele>342</ele>
        <time>2014-08-31T06:49:35Z</time>
      </trkpt>
      <trkpt lat="43.70021" lon="6.98621">
        <ele>342</ele>
        <time>2014-08-31T06:49:40Z</time>
      </trkpt>
      <trkpt lat="43.70021" lon="6.98621">
        <ele>342</ele>
        <time>2014-08-31T06:49:45Z</time>
      </trkpt>
      <trkpt lat="43.70021" lon="6.98621">
        <ele>342</ele>
        <time>2014-08-31T06:49:50Z</time>
      </trkpt>
      <trkpt lat="43.70021" lon="6.98621">
        <ele>342</ele>
        <time>2014-08-31T06:49:55Z</time>
      </trkpt>
      <trkpt lat="43.70021" lon="6.98621">
        <ele>342</ele>
        <time>2014-08-31T06:50:00Z</time>
      </trkpt>
      <trkpt lat="43.70021" lon="6.98621">
        <ele>342</ele>
        <time>2014-08-31T06:50:09Z</time>
      </trkpt>
      <trkpt lat="43.70021" lon="6.98621">
        <ele>342</ele>
        <time>2014-08-31T06:50:10Z</time>
      </trkpt>
      <trkpt lat="43.70021" lon="6.98621">
        <ele>342</ele>
        <time>2014-08-31T06:50:16Z</time>
      </trkpt>
      <trkpt lat="43.70021" lon="6.98621">
        <ele>342</ele>
        <time>2014-08-31T06:50:20Z</time>
      </trkpt>
      <trkpt lat="43.70021" lon="6.98621">
        <ele>341</ele>
        <time>2014-08-31T06:50:29Z</time>
      </trkpt>
      <trkpt lat="43.70021" lon="6.98621">
        <ele>341</ele>
        <time>2014-08-31T06:50:30Z</time>
      </trkpt>
      <trkpt lat="43.70021" lon="6.98621">
        <ele>341</ele>
        <time>2014-08-31T06:50:35Z</time>
      </trkpt>
      <trkpt lat="43.70021" lon="6.98621">
        <ele>341</ele>
        <time>2014-08-31T06:50:40Z</time>
      </trkpt>
      <trkpt lat="43.70021" lon="6.98621">
        <ele>341</ele>
        <time>2014-08-31T06:50:46Z</time>
      </trkpt>
      <trkpt lat="43.70021" lon="6.98621">
        <ele>341</ele>
        <time>2014-08-31T06:50:50Z</time>
      </trkpt>
      <trkpt lat="43.70021" lon="6.98621">
        <ele>342</ele>
        <time>2014-08-31T06:50:55Z</time>
      </trkpt>
      <trkpt lat="43.70021" lon="6.98621">
        <ele>342</ele>
        <time>2014-08-31T06:51:00Z</time>
      </trkpt>
      <trkpt lat="43.70021" lon="6.98621">
        <ele>341</ele>
        <time>2014-08-31T06:51:05Z</time>
      </trkpt>
      <trkpt lat="43.70021" lon="6.98621">
        <ele>341</ele>
        <time>2014-08-31T06:51:10Z</time>
      </trkpt>
      <trkpt lat="43.70021" lon="6.98621">
        <ele>341</ele>
        <time>2014-08-31T06:51:15Z</time>
      </trkpt>
      <trkpt lat="43.70021" lon="6.98621">
        <ele>341</ele>
        <time>2014-08-31T06:51:20Z</time>
      </trkpt>
      <trkpt lat="43.70021" lon="6.98621">
        <ele>341</ele>
        <time>2014-08-31T06:51:25Z</time>
      </trkpt>
      <trkpt lat="43.70021" lon="6.98621">
        <ele>341</ele>
        <time>2014-08-31T06:51:30Z</time>
      </trkpt>
      <trkpt lat="43.70021" lon="6.98621">
        <ele>341</ele>
        <time>2014-08-31T06:51:35Z</time>
      </trkpt>
      <trkpt lat="43.70021" lon="6.98621">
        <ele>341</ele>
        <time>2014-08-31T06:51:41Z</time>
      </trkpt>
      <trkpt lat="43.70021" lon="6.98621">
        <ele>341</ele>
        <time>2014-08-31T06:51:45Z</time>
      </trkpt>
      <trkpt lat="43.70021" lon="6.98621">
        <ele>341</ele>
        <time>2014-08-31T06:51:50Z</time>
      </trkpt>
      <trkpt lat="43.70021" lon="6.98621">
        <ele>341</ele>
        <time>2014-08-31T06:51:55Z</time>
      </trkpt>
      <trkpt lat="43.70021" lon="6.98621">
        <ele>341</ele>
        <time>2014-08-31T06:52:00Z</time>
      </trkpt>
      <trkpt lat="43.70021" lon="6.98621">
        <ele>341</ele>
        <time>2014-08-31T06:52:06Z</time>
      </trkpt>
      <trkpt lat="43.70021" lon="6.98621">
        <ele>341</ele>
        <time>2014-08-31T06:52:10Z</time>
      </trkpt>
      <trkpt lat="43.70021" lon="6.98621">
        <ele>341</ele>
        <time>2014-08-31T06:52:18Z</time>
      </trkpt>
      <trkpt lat="43.70021" lon="6.98621">
        <ele>341</ele>
        <time>2014-08-31T06:52:24Z</time>
      </trkpt>
      <trkpt lat="43.70021" lon="6.98621">
        <ele>341</ele>
        <time>2014-08-31T06:52:25Z</time>
      </trkpt>
      <trkpt lat="43.70021" lon="6.98621">
        <ele>341</ele>
        <time>2014-08-31T06:52:30Z</time>
      </trkpt>
      <trkpt lat="43.70021" lon="6.98621">
        <ele>341</ele>
        <time>2014-08-31T06:52:35Z</time>
      </trkpt>
      <trkpt lat="43.70021" lon="6.98621">
        <ele>342</ele>
        <time>2014-08-31T06:52:40Z</time>
      </trkpt>
      <trkpt lat="43.70021" lon="6.98621">
        <ele>342</ele>
        <time>2014-08-31T06:52:49Z</time>
      </trkpt>
      <trkpt lat="43.70021" lon="6.98621">
        <ele>342</ele>
        <time>2014-08-31T06:52:50Z</time>
      </trkpt>
      <trkpt lat="43.70021" lon="6.98621">
        <ele>342</ele>
        <time>2014-08-31T06:52:55Z</time>
      </trkpt>
      <trkpt lat="43.70021" lon="6.98621">
        <ele>342</ele>
        <time>2014-08-31T06:53:00Z</time>
      </trkpt>
      <trkpt lat="43.70021" lon="6.98621">
        <ele>342</ele>
        <time>2014-08-31T06:53:05Z</time>
      </trkpt>
      <trkpt lat="43.70021" lon="6.98621">
        <ele>341</ele>
        <time>2014-08-31T06:53:10Z</time>
      </trkpt>
      <trkpt lat="43.70021" lon="6.98621">
        <ele>341</ele>
        <time>2014-08-31T06:53:18Z</time>
      </trkpt>
      <trkpt lat="43.70021" lon="6.98621">
        <ele>341</ele>
        <time>2014-08-31T06:53:20Z</time>
      </trkpt>
      <trkpt lat="43.70021" lon="6.98621">
        <ele>341</ele>
        <time>2014-08-31T06:53:25Z</time>
      </trkpt>
      <trkpt lat="43.70021" lon="6.98621">
        <ele>341</ele>
        <time>2014-08-31T06:53:31Z</time>
      </trkpt>
      <trkpt lat="43.70021" lon="6.98621">
        <ele>341</ele>
        <time>2014-08-31T06:53:35Z</time>
      </trkpt>
      <trkpt lat="43.70021" lon="6.98621">
        <ele>341</ele>
        <time>2014-08-31T06:53:40Z</time>
      </trkpt>
      <trkpt lat="43.70021" lon="6.98621">
        <ele>341</ele>
        <time>2014-08-31T06:53:45Z</time>
      </trkpt>
      <trkpt lat="43.70021" lon="6.98621">
        <ele>341</ele>
        <time>2014-08-31T06:53:50Z</time>
      </trkpt>
      <trkpt lat="43.70021" lon="6.98621">
        <ele>341</ele>
        <time>2014-08-31T06:53:55Z</time>
      </trkpt>
      <trkpt lat="43.70021" lon="6.98621">
        <ele>341</ele>
        <time>2014-08-31T06:54:00Z</time>
      </trkpt>
      <trkpt lat="43.70021" lon="6.98621">
        <ele>341</ele>
        <time>2014-08-31T06:54:05Z</time>
      </trkpt>
      <trkpt lat="43.70021" lon="6.98621">
        <ele>341</ele>
        <time>2014-08-31T06:54:10Z</time>
      </trkpt>
      <trkpt lat="43.70021" lon="6.98621">
        <ele>341</ele>
        <time>2014-08-31T06:54:15Z</time>
      </trkpt>
      <trkpt lat="43.70021" lon="6.98621">
        <ele>341</ele>
        <time>2014-08-31T06:54:20Z</time>
      </trkpt>
      <trkpt lat="43.70021" lon="6.98621">
        <ele>341</ele>
        <time>2014-08-31T06:54:25Z</time>
      </trkpt>
      <trkpt lat="43.70021" lon="6.98621">
        <ele>341</ele>
        <time>2014-08-31T06:54:31Z</time>
      </trkpt>
      <trkpt lat="43.70021" lon="6.98621">
        <ele>341</ele>
        <time>2014-08-31T06:54:35Z</time>
      </trkpt>
      <trkpt lat="43.70021" lon="6.98621">
        <ele>341</ele>
        <time>2014-08-31T06:54:40Z</time>
      </trkpt>
      <trkpt lat="43.70021" lon="6.98621">
        <ele>341</ele>
        <time>2014-08-31T06:54:45Z</time>
      </trkpt>
      <trkpt lat="43.70021" lon="6.98621">
        <ele>341</ele>
        <time>2014-08-31T06:54:50Z</time>
      </trkpt>
      <trkpt lat="43.70021" lon="6.98621">
        <ele>341</ele>
        <time>2014-08-31T06:54:55Z</time>
      </trkpt>
      <trkpt lat="43.70021" lon="6.98621">
        <ele>341</ele>
        <time>2014-08-31T06:55:00Z</time>
      </trkpt>
      <trkpt lat="43.70021" lon="6.98621">
        <ele>341</ele>
        <time>2014-08-31T06:55:05Z</time>
      </trkpt>
      <trkpt lat="43.70021" lon="6.98621">
        <ele>341</ele>
        <time>2014-08-31T06:55:10Z</time>
      </trkpt>
      <trkpt lat="43.70021" lon="6.98621">
        <ele>341</ele>
        <time>2014-08-31T06:55:15Z</time>
      </trkpt>
      <trkpt lat="43.70021" lon="6.98621">
        <ele>341</ele>
        <time>2014-08-31T06:55:20Z</time>
      </trkpt>
      <trkpt lat="43.70021" lon="6.98621">
        <ele>341</ele>
        <time>2014-08-31T06:55:25Z</time>
      </trkpt>
      <trkpt lat="43.70021" lon="6.9862">
        <ele>342</ele>
        <time>2014-08-31T06:55:30Z</time>
      </trkpt>
      <trkpt lat="43.7002" lon="6.9862">
        <ele>343</ele>
        <time>2014-08-31T06:55:35Z</time>
      </trkpt>
      <trkpt lat="43.7002" lon="6.9862">
        <ele>344</ele>
        <time>2014-08-31T06:55:40Z</time>
      </trkpt>
      <trkpt lat="43.7002" lon="6.9862">
        <ele>344</ele>
        <time>2014-08-31T06:55:45Z</time>
      </trkpt>
      <trkpt lat="43.7002" lon="6.9862">
        <ele>344</ele>
        <time>2014-08-31T06:55:50Z</time>
      </trkpt>
      <trkpt lat="43.7002" lon="6.9862">
        <ele>344</ele>
        <time>2014-08-31T06:55:55Z</time>
      </trkpt>
      <trkpt lat="43.7002" lon="6.9862">
        <ele>344</ele>
        <time>2014-08-31T06:56:00Z</time>
      </trkpt>
      <trkpt lat="43.7002" lon="6.9862">
        <ele>344</ele>
        <time>2014-08-31T06:56:05Z</time>
      </trkpt>
      <trkpt lat="43.7002" lon="6.9862">
        <ele>344</ele>
        <time>2014-08-31T06:56:10Z</time>
      </trkpt>
      <trkpt lat="43.7002" lon="6.9862">
        <ele>344</ele>
        <time>2014-08-31T06:56:15Z</time>
      </trkpt>
      <trkpt lat="43.7002" lon="6.9862">
        <ele>344</ele>
        <time>2014-08-31T06:56:20Z</time>
      </trkpt>
      <trkpt lat="43.7002" lon="6.9862">
        <ele>344</ele>
        <time>2014-08-31T06:56:25Z</time>
      </trkpt>
      <trkpt lat="43.7002" lon="6.9862">
        <ele>344</ele>
        <time>2014-08-31T06:56:30Z</time>
      </trkpt>
      <trkpt lat="43.7002" lon="6.9862">
        <ele>343</ele>
        <time>2014-08-31T06:56:35Z</time>
      </trkpt>
      <trkpt lat="43.7002" lon="6.98621">
        <ele>342</ele>
        <time>2014-08-31T06:56:40Z</time>
      </trkpt>
      <trkpt lat="43.70021" lon="6.98621">
        <ele>342</ele>
        <time>2014-08-31T06:56:45Z</time>
      </trkpt>
      <trkpt lat="43.70021" lon="6.98621">
        <ele>342</ele>
        <time>2014-08-31T06:56:50Z</time>
      </trkpt>
      <trkpt lat="43.70021" lon="6.98621">
        <ele>342</ele>
        <time>2014-08-31T06:56:55Z</time>
      </trkpt>
      <trkpt lat="43.70021" lon="6.98621">
        <ele>342</ele>
        <time>2014-08-31T06:57:00Z</time>
      </trkpt>
      <trkpt lat="43.70021" lon="6.98621">
        <ele>342</ele>
        <time>2014-08-31T06:57:05Z</time>
      </trkpt>
      <trkpt lat="43.70021" lon="6.98621">
        <ele>342</ele>
        <time>2014-08-31T06:57:10Z</time>
      </trkpt>
      <trkpt lat="43.70021" lon="6.98621">
        <ele>342</ele>
        <time>2014-08-31T06:57:15Z</time>
      </trkpt>
      <trkpt lat="43.70021" lon="6.98621">
        <ele>342</ele>
        <time>2014-08-31T06:57:20Z</time>
      </trkpt>
      <trkpt lat="43.70021" lon="6.98621">
        <ele>342</ele>
        <time>2014-08-31T06:57:25Z</time>
      </trkpt>
      <trkpt lat="43.70021" lon="6.98621">
        <ele>342</ele>
        <time>2014-08-31T06:57:30Z</time>
      </trkpt>
      <trkpt lat="43.70021" lon="6.98621">
        <ele>342</ele>
        <time>2014-08-31T06:57:35Z</time>
      </trkpt>
      <trkpt lat="43.7002" lon="6.98621">
        <ele>342</ele>
        <time>2014-08-31T06:57:40Z</time>
      </trkpt>
      <trkpt lat="43.70021" lon="6.98621">
        <ele>343</ele>
        <time>2014-08-31T06:57:45Z</time>
      </trkpt>
      <trkpt lat="43.7002" lon="6.98621">
        <ele>343</ele>
        <time>2014-08-31T06:57:50Z</time>
      </trkpt>
      <trkpt lat="43.7002" lon="6.98621">
        <ele>343</ele>
        <time>2014-08-31T06:57:55Z</time>
      </trkpt>
      <trkpt lat="43.7002" lon="6.98621">
        <ele>343</ele>
        <time>2014-08-31T06:58:00Z</time>
      </trkpt>
      <trkpt lat="43.7002" lon="6.98621">
        <ele>343</ele>
        <time>2014-08-31T06:58:06Z</time>
      </trkpt>
      <trkpt lat="43.7002" lon="6.98621">
        <ele>343</ele>
        <time>2014-08-31T06:58:10Z</time>
      </trkpt>
      <trkpt lat="43.7002" lon="6.98621">
        <ele>343</ele>
        <time>2014-08-31T06:58:15Z</time>
      </trkpt>
      <trkpt lat="43.7002" lon="6.98621">
        <ele>343</ele>
        <time>2014-08-31T06:58:20Z</time>
      </trkpt>
      <trkpt lat="43.7002" lon="6.98621">
        <ele>343</ele>
        <time>2014-08-31T06:58:25Z</time>
      </trkpt>
      <trkpt lat="43.7002" lon="6.98622">
        <ele>344</ele>
        <time>2014-08-31T06:58:31Z</time>
      </trkpt>
      <trkpt lat="43.7002" lon="6.98622">
        <ele>343</ele>
        <time>2014-08-31T06:58:35Z</time>
      </trkpt>
      <trkpt lat="43.7002" lon="6.98621">
        <ele>343</ele>
        <time>2014-08-31T06:58:44Z</time>
      </trkpt>
      <trkpt lat="43.7002" lon="6.98621">
        <ele>343</ele>
        <time>2014-08-31T06:58:45Z</time>
      </trkpt>
      <trkpt lat="43.70019" lon="6.98622">
        <ele>344</ele>
        <time>2014-08-31T06:58:50Z</time>
      </trkpt>
      <trkpt lat="43.70019" lon="6.98621">
        <ele>344</ele>
        <time>2014-08-31T06:58:55Z</time>
      </trkpt>
      <trkpt lat="43.70019" lon="6.98621">
        <ele>344</ele>
        <time>2014-08-31T06:59:00Z</time>
      </trkpt>
      <trkpt lat="43.70019" lon="6.98621">
        <ele>344</ele>
        <time>2014-08-31T06:59:07Z</time>
      </trkpt>
      <trkpt lat="43.70019" lon="6.98621">
        <ele>344</ele>
        <time>2014-08-31T06:59:10Z</time>
      </trkpt>
      <trkpt lat="43.70019" lon="6.98621">
        <ele>344</ele>
        <time>2014-08-31T06:59:15Z</time>
      </trkpt>
      <trkpt lat="43.7002" lon="6.98621">
        <ele>344</ele>
        <time>2014-08-31T06:59:20Z</time>
      </trkpt>
      <trkpt lat="43.7002" lon="6.9862">
        <ele>344</ele>
        <time>2014-08-31T06:59:25Z</time>
      </trkpt>
      <trkpt lat="43.7002" lon="6.9862">
        <ele>344</ele>
        <time>2014-08-31T06:59:30Z</time>
      </trkpt>
      <trkpt lat="43.7002" lon="6.9862">
        <ele>344</ele>
        <time>2014-08-31T06:59:35Z</time>
      </trkpt>
      <trkpt lat="43.7002" lon="6.9862">
        <ele>344</ele>
        <time>2014-08-31T06:59:43Z</time>
      </trkpt>
      <trkpt lat="43.7002" lon="6.9862">
        <ele>344</ele>
        <time>2014-08-31T06:59:49Z</time>
      </trkpt>
      <trkpt lat="43.7002" lon="6.9862">
        <ele>344</ele>
        <time>2014-08-31T06:59:51Z</time>
      </trkpt>
      <trkpt lat="43.7002" lon="6.9862">
        <ele>344</ele>
        <time>2014-08-31T06:59:55Z</time>
      </trkpt>
      <trkpt lat="43.7002" lon="6.9862">
        <ele>344</ele>
        <time>2014-08-31T07:00:00Z</time>
      </trkpt>
      <trkpt lat="43.7002" lon="6.9862">
        <ele>344</ele>
        <time>2014-08-31T07:00:05Z</time>
      </trkpt>
      <trkpt lat="43.7002" lon="6.9862">
        <ele>344</ele>
        <time>2014-08-31T07:00:10Z</time>
      </trkpt>
      <trkpt lat="43.70019" lon="6.98619">
        <ele>344</ele>
        <time>2014-08-31T07:00:17Z</time>
      </trkpt>
      <trkpt lat="43.70017" lon="6.98616">
        <ele>344</ele>
        <time>2014-08-31T07:00:20Z</time>
      </trkpt>
      <trkpt lat="43.70015" lon="6.98612">
        <ele>345</ele>
        <time>2014-08-31T07:00:25Z</time>
      </trkpt>
      <trkpt lat="43.70012" lon="6.98609">
        <ele>343</ele>
        <time>2014-08-31T07:00:31Z</time>
      </trkpt>
      <trkpt lat="43.70013" lon="6.98609">
        <ele>343</ele>
        <time>2014-08-31T07:00:35Z</time>
      </trkpt>
      <trkpt lat="43.70014" lon="6.98609">
        <ele>343</ele>
        <time>2014-08-31T07:00:40Z</time>
      </trkpt>
      <trkpt lat="43.70014" lon="6.9861">
        <ele>343</ele>
        <time>2014-08-31T07:00:45Z</time>
      </trkpt>
      <trkpt lat="43.70014" lon="6.9861">
        <ele>343</ele>
        <time>2014-08-31T07:00:50Z</time>
      </trkpt>
      <trkpt lat="43.70014" lon="6.98611">
        <ele>344</ele>
        <time>2014-08-31T07:00:55Z</time>
      </trkpt>
      <trkpt lat="43.70014" lon="6.98612">
        <ele>345</ele>
        <time>2014-08-31T07:01:00Z</time>
      </trkpt>
      <trkpt lat="43.70014" lon="6.98613">
        <ele>346</ele>
        <time>2014-08-31T07:01:05Z</time>
      </trkpt>
      <trkpt lat="43.70014" lon="6.98613">
        <ele>346</ele>
        <time>2014-08-31T07:01:10Z</time>
      </trkpt>
      <trkpt lat="43.70013" lon="6.98612">
        <ele>345</ele>
        <time>2014-08-31T07:01:15Z</time>
      </trkpt>
      <trkpt lat="43.69997" lon="6.98598">
        <ele>343</ele>
        <time>2014-08-31T07:01:21Z</time>
      </trkpt>
      <trkpt lat="43.6998" lon="6.98602">
        <ele>342</ele>
        <time>2014-08-31T07:01:25Z</time>
      </trkpt>
      <trkpt lat="43.69971" lon="6.98585">
        <ele>343</ele>
        <time>2014-08-31T07:01:30Z</time>
      </trkpt>
      <trkpt lat="43.69966" lon="6.98575">
        <ele>343</ele>
        <time>2014-08-31T07:01:35Z</time>
      </trkpt>
      <trkpt lat="43.6996" lon="6.98561">
        <ele>345</ele>
        <time>2014-08-31T07:01:41Z</time>
      </trkpt>
      <trkpt lat="43.69956" lon="6.98552">
        <ele>344</ele>
        <time>2014-08-31T07:01:45Z</time>
      </trkpt>
      <trkpt lat="43.6995" lon="6.98542">
        <ele>344</ele>
        <time>2014-08-31T07:01:50Z</time>
      </trkpt>
      <trkpt lat="43.69943" lon="6.98531">
        <ele>344</ele>
        <time>2014-08-31T07:01:56Z</time>
      </trkpt>
      <trkpt lat="43.69938" lon="6.98523">
        <ele>345</ele>
        <time>2014-08-31T07:02:00Z</time>
      </trkpt>
      <trkpt lat="43.69933" lon="6.98511">
        <ele>346</ele>
        <time>2014-08-31T07:02:05Z</time>
      </trkpt>
      <trkpt lat="43.69926" lon="6.985">
        <ele>346</ele>
        <time>2014-08-31T07:02:10Z</time>
      </trkpt>
      <trkpt lat="43.6992" lon="6.98488">
        <ele>346</ele>
        <time>2014-08-31T07:02:15Z</time>
      </trkpt>
      <trkpt lat="43.69913" lon="6.98475">
        <ele>346</ele>
        <time>2014-08-31T07:02:20Z</time>
      </trkpt>
      <trkpt lat="43.69904" lon="6.98463">
        <ele>347</ele>
        <time>2014-08-31T07:02:25Z</time>
      </trkpt>
      <trkpt lat="43.69897" lon="6.98451">
        <ele>348</ele>
        <time>2014-08-31T07:02:30Z</time>
      </trkpt>
      <trkpt lat="43.69889" lon="6.9844">
        <ele>348</ele>
        <time>2014-08-31T07:02:35Z</time>
      </trkpt>
      <trkpt lat="43.69884" lon="6.98426">
        <ele>348</ele>
        <time>2014-08-31T07:02:40Z</time>
      </trkpt>
      <trkpt lat="43.69888" lon="6.98411">
        <ele>348</ele>
        <time>2014-08-31T07:02:45Z</time>
      </trkpt>
      <trkpt lat="43.69895" lon="6.98398">
        <ele>350</ele>
        <time>2014-08-31T07:02:50Z</time>
      </trkpt>
      <trkpt lat="43.699" lon="6.98386">
        <ele>351</ele>
        <time>2014-08-31T07:02:55Z</time>
      </trkpt>
      <trkpt lat="43.69906" lon="6.98372">
        <ele>351</ele>
        <time>2014-08-31T07:03:00Z</time>
      </trkpt>
      <trkpt lat="43.6991" lon="6.98358">
        <ele>353</ele>
        <time>2014-08-31T07:03:05Z</time>
      </trkpt>
      <trkpt lat="43.6991" lon="6.98343">
        <ele>354</ele>
        <time>2014-08-31T07:03:10Z</time>
      </trkpt>
      <trkpt lat="43.69909" lon="6.98328">
        <ele>357</ele>
        <time>2014-08-31T07:03:15Z</time>
      </trkpt>
      <trkpt lat="43.69908" lon="6.98315">
        <ele>358</ele>
        <time>2014-08-31T07:03:20Z</time>
      </trkpt>
      <trkpt lat="43.69908" lon="6.98296">
        <ele>360</ele>
        <time>2014-08-31T07:03:28Z</time>
      </trkpt>
      <trkpt lat="43.69909" lon="6.98291">
        <ele>360</ele>
        <time>2014-08-31T07:03:30Z</time>
      </trkpt>
      <trkpt lat="43.6991" lon="6.9828">
        <ele>362</ele>
        <time>2014-08-31T07:03:35Z</time>
      </trkpt>
      <trkpt lat="43.69911" lon="6.98269">
        <ele>365</ele>
        <time>2014-08-31T07:03:40Z</time>
      </trkpt>
      <trkpt lat="43.69915" lon="6.98261">
        <ele>367</ele>
        <time>2014-08-31T07:03:45Z</time>
      </trkpt>
      <trkpt lat="43.6992" lon="6.98253">
        <ele>368</ele>
        <time>2014-08-31T07:03:50Z</time>
      </trkpt>
      <trkpt lat="43.69925" lon="6.98245">
        <ele>368</ele>
        <time>2014-08-31T07:03:55Z</time>
      </trkpt>
      <trkpt lat="43.69927" lon="6.98235">
        <ele>370</ele>
        <time>2014-08-31T07:04:00Z</time>
      </trkpt>
      <trkpt lat="43.6993" lon="6.98226">
        <ele>370</ele>
        <time>2014-08-31T07:04:05Z</time>
      </trkpt>
      <trkpt lat="43.69935" lon="6.98218">
        <ele>369</ele>
        <time>2014-08-31T07:04:10Z</time>
      </trkpt>
      <trkpt lat="43.69942" lon="6.98213">
        <ele>371</ele>
        <time>2014-08-31T07:04:15Z</time>
      </trkpt>
      <trkpt lat="43.69948" lon="6.98209">
        <ele>373</ele>
        <time>2014-08-31T07:04:20Z</time>
      </trkpt>
      <trkpt lat="43.69955" lon="6.98208">
        <ele>374</ele>
        <time>2014-08-31T07:04:25Z</time>
      </trkpt>
      <trkpt lat="43.6996" lon="6.98205">
        <ele>377</ele>
        <time>2014-08-31T07:04:30Z</time>
      </trkpt>
      <trkpt lat="43.69965" lon="6.982">
        <ele>379</ele>
        <time>2014-08-31T07:04:35Z</time>
      </trkpt>
      <trkpt lat="43.69967" lon="6.98193">
        <ele>381</ele>
        <time>2014-08-31T07:04:40Z</time>
      </trkpt>
      <trkpt lat="43.6997" lon="6.98186">
        <ele>381</ele>
        <time>2014-08-31T07:04:45Z</time>
      </trkpt>
      <trkpt lat="43.69974" lon="6.98179">
        <ele>382</ele>
        <time>2014-08-31T07:04:50Z</time>
      </trkpt>
      <trkpt lat="43.69977" lon="6.98172">
        <ele>383</ele>
        <time>2014-08-31T07:04:55Z</time>
      </trkpt>
      <trkpt lat="43.69981" lon="6.98166">
        <ele>385</ele>
        <time>2014-08-31T07:05:00Z</time>
      </trkpt>
      <trkpt lat="43.69985" lon="6.98158">
        <ele>387</ele>
        <time>2014-08-31T07:05:05Z</time>
      </trkpt>
      <trkpt lat="43.69986" lon="6.98148">
        <ele>389</ele>
        <time>2014-08-31T07:05:10Z</time>
      </trkpt>
      <trkpt lat="43.6999" lon="6.9814">
        <ele>389</ele>
        <time>2014-08-31T07:05:15Z</time>
      </trkpt>
      <trkpt lat="43.69996" lon="6.98133">
        <ele>391</ele>
        <time>2014-08-31T07:05:20Z</time>
      </trkpt>
      <trkpt lat="43.70002" lon="6.98128">
        <ele>393</ele>
        <time>2014-08-31T07:05:25Z</time>
      </trkpt>
      <trkpt lat="43.70004" lon="6.98124">
        <ele>395</ele>
        <time>2014-08-31T07:05:30Z</time>
      </trkpt>
      <trkpt lat="43.70011" lon="6.98112">
        <ele>397</ele>
        <time>2014-08-31T07:05:37Z</time>
      </trkpt>
      <trkpt lat="43.70015" lon="6.98105">
        <ele>396</ele>
        <time>2014-08-31T07:05:40Z</time>
      </trkpt>
      <trkpt lat="43.70017" lon="6.98092">
        <ele>398</ele>
        <time>2014-08-31T07:05:45Z</time>
      </trkpt>
      <trkpt lat="43.7002" lon="6.98082">
        <ele>398</ele>
        <time>2014-08-31T07:05:50Z</time>
      </trkpt>
      <trkpt lat="43.70025" lon="6.98065">
        <ele>396</ele>
        <time>2014-08-31T07:05:58Z</time>
      </trkpt>
      <trkpt lat="43.70028" lon="6.98054">
        <ele>396</ele>
        <time>2014-08-31T07:06:03Z</time>
      </trkpt>
      <trkpt lat="43.70028" lon="6.98047">
        <ele>397</ele>
        <time>2014-08-31T07:06:06Z</time>
      </trkpt>
      <trkpt lat="43.70027" lon="6.98031">
        <ele>400</ele>
        <time>2014-08-31T07:06:13Z</time>
      </trkpt>
      <trkpt lat="43.70028" lon="6.98026">
        <ele>400</ele>
        <time>2014-08-31T07:06:15Z</time>
      </trkpt>
      <trkpt lat="43.70026" lon="6.98014">
        <ele>403</ele>
        <time>2014-08-31T07:06:20Z</time>
      </trkpt>
      <trkpt lat="43.70025" lon="6.98001">
        <ele>402</ele>
        <time>2014-08-31T07:06:25Z</time>
      </trkpt>
      <trkpt lat="43.70024" lon="6.97982">
        <ele>403</ele>
        <time>2014-08-31T07:06:33Z</time>
      </trkpt>
      <trkpt lat="43.70023" lon="6.97977">
        <ele>403</ele>
        <time>2014-08-31T07:06:35Z</time>
      </trkpt>
      <trkpt lat="43.70023" lon="6.97965">
        <ele>405</ele>
        <time>2014-08-31T07:06:40Z</time>
      </trkpt>
      <trkpt lat="43.70023" lon="6.97953">
        <ele>406</ele>
        <time>2014-08-31T07:06:45Z</time>
      </trkpt>
      <trkpt lat="43.70022" lon="6.97942">
        <ele>408</ele>
        <time>2014-08-31T07:06:50Z</time>
      </trkpt>
      <trkpt lat="43.70021" lon="6.97931">
        <ele>409</ele>
        <time>2014-08-31T07:06:55Z</time>
      </trkpt>
      <trkpt lat="43.70021" lon="6.97919">
        <ele>410</ele>
        <time>2014-08-31T07:07:00Z</time>
      </trkpt>
      <trkpt lat="43.7002" lon="6.97908">
        <ele>413</ele>
        <time>2014-08-31T07:07:05Z</time>
      </trkpt>
      <trkpt lat="43.7002" lon="6.97898">
        <ele>414</ele>
        <time>2014-08-31T07:07:10Z</time>
      </trkpt>
      <trkpt lat="43.7002" lon="6.97887">
        <ele>416</ele>
        <time>2014-08-31T07:07:15Z</time>
      </trkpt>
      <trkpt lat="43.70021" lon="6.97873">
        <ele>416</ele>
        <time>2014-08-31T07:07:21Z</time>
      </trkpt>
      <trkpt lat="43.70021" lon="6.97864">
        <ele>417</ele>
        <time>2014-08-31T07:07:25Z</time>
      </trkpt>
      <trkpt lat="43.70022" lon="6.97854">
        <ele>419</ele>
        <time>2014-08-31T07:07:30Z</time>
      </trkpt>
      <trkpt lat="43.70023" lon="6.97845">
        <ele>420</ele>
        <time>2014-08-31T07:07:35Z</time>
      </trkpt>
      <trkpt lat="43.70023" lon="6.97835">
        <ele>421</ele>
        <time>2014-08-31T07:07:40Z</time>
      </trkpt>
      <trkpt lat="43.70024" lon="6.97824">
        <ele>423</ele>
        <time>2014-08-31T07:07:46Z</time>
      </trkpt>
      <trkpt lat="43.70025" lon="6.97815">
        <ele>423</ele>
        <time>2014-08-31T07:07:51Z</time>
      </trkpt>
      <trkpt lat="43.70024" lon="6.97808">
        <ele>426</ele>
        <time>2014-08-31T07:07:55Z</time>
      </trkpt>
      <trkpt lat="43.70024" lon="6.97797">
        <ele>426</ele>
        <time>2014-08-31T07:08:01Z</time>
      </trkpt>
      <trkpt lat="43.70026" lon="6.97789">
        <ele>427</ele>
        <time>2014-08-31T07:08:05Z</time>
      </trkpt>
      <trkpt lat="43.70032" lon="6.97783">
        <ele>428</ele>
        <time>2014-08-31T07:08:10Z</time>
      </trkpt>
      <trkpt lat="43.70038" lon="6.97782">
        <ele>430</ele>
        <time>2014-08-31T07:08:15Z</time>
      </trkpt>
      <trkpt lat="43.70042" lon="6.97776">
        <ele>432</ele>
        <time>2014-08-31T07:08:20Z</time>
      </trkpt>
      <trkpt lat="43.70041" lon="6.97767">
        <ele>435</ele>
        <time>2014-08-31T07:08:25Z</time>
      </trkpt>
      <trkpt lat="43.70041" lon="6.97757">
        <ele>436</ele>
        <time>2014-08-31T07:08:30Z</time>
      </trkpt>
      <trkpt lat="43.70041" lon="6.97748">
        <ele>437</ele>
        <time>2014-08-31T07:08:35Z</time>
      </trkpt>
      <trkpt lat="43.7004" lon="6.97739">
        <ele>436</ele>
        <time>2014-08-31T07:08:40Z</time>
      </trkpt>
      <trkpt lat="43.70037" lon="6.9773">
        <ele>437</ele>
        <time>2014-08-31T07:08:46Z</time>
      </trkpt>
      <trkpt lat="43.70035" lon="6.97724">
        <ele>437</ele>
        <time>2014-08-31T07:08:50Z</time>
      </trkpt>
      <trkpt lat="43.70035" lon="6.97712">
        <ele>436</ele>
        <time>2014-08-31T07:08:55Z</time>
      </trkpt>
      <trkpt lat="43.70035" lon="6.97698">
        <ele>437</ele>
        <time>2014-08-31T07:09:00Z</time>
      </trkpt>
      <trkpt lat="43.70034" lon="6.97688">
        <ele>439</ele>
        <time>2014-08-31T07:09:08Z</time>
      </trkpt>
      <trkpt lat="43.70034" lon="6.97688">
        <ele>439</ele>
        <time>2014-08-31T07:09:12Z</time>
      </trkpt>
      <trkpt lat="43.70034" lon="6.97688">
        <ele>439</ele>
        <time>2014-08-31T07:09:15Z</time>
      </trkpt>
      <trkpt lat="43.70032" lon="6.97685">
        <ele>441</ele>
        <time>2014-08-31T07:09:20Z</time>
      </trkpt>
      <trkpt lat="43.7003" lon="6.97676">
        <ele>442</ele>
        <time>2014-08-31T07:09:25Z</time>
      </trkpt>
      <trkpt lat="43.7003" lon="6.97668">
        <ele>442</ele>
        <time>2014-08-31T07:09:30Z</time>
      </trkpt>
      <trkpt lat="43.70029" lon="6.97665">
        <ele>442</ele>
        <time>2014-08-31T07:09:35Z</time>
      </trkpt>
      <trkpt lat="43.70027" lon="6.97661">
        <ele>444</ele>
        <time>2014-08-31T07:09:40Z</time>
      </trkpt>
      <trkpt lat="43.70027" lon="6.97652">
        <ele>445</ele>
        <time>2014-08-31T07:09:46Z</time>
      </trkpt>
      <trkpt lat="43.70029" lon="6.97647">
        <ele>446</ele>
        <time>2014-08-31T07:09:51Z</time>
      </trkpt>
      <trkpt lat="43.7003" lon="6.97642">
        <ele>448</ele>
        <time>2014-08-31T07:09:55Z</time>
      </trkpt>
      <trkpt lat="43.70033" lon="6.97638">
        <ele>448</ele>
        <time>2014-08-31T07:10:00Z</time>
      </trkpt>
      <trkpt lat="43.70036" lon="6.97635">
        <ele>446</ele>
        <time>2014-08-31T07:10:06Z</time>
      </trkpt>
      <trkpt lat="43.70037" lon="6.97633">
        <ele>446</ele>
        <time>2014-08-31T07:10:10Z</time>
      </trkpt>
      <trkpt lat="43.70035" lon="6.97632">
        <ele>447</ele>
        <time>2014-08-31T07:10:16Z</time>
      </trkpt>
      <trkpt lat="43.70036" lon="6.97628">
        <ele>445</ele>
        <time>2014-08-31T07:10:21Z</time>
      </trkpt>
      <trkpt lat="43.70037" lon="6.97625">
        <ele>446</ele>
        <time>2014-08-31T07:10:25Z</time>
      </trkpt>
      <trkpt lat="43.70038" lon="6.97618">
        <ele>449</ele>
        <time>2014-08-31T07:10:33Z</time>
      </trkpt>
      <trkpt lat="43.70039" lon="6.97617">
        <ele>450</ele>
        <time>2014-08-31T07:10:35Z</time>
      </trkpt>
      <trkpt lat="43.7004" lon="6.97612">
        <ele>450</ele>
        <time>2014-08-31T07:10:40Z</time>
      </trkpt>
      <trkpt lat="43.7004" lon="6.97607">
        <ele>451</ele>
        <time>2014-08-31T07:10:45Z</time>
      </trkpt>
      <trkpt lat="43.70041" lon="6.97601">
        <ele>453</ele>
        <time>2014-08-31T07:10:51Z</time>
      </trkpt>
      <trkpt lat="43.70042" lon="6.97596">
        <ele>455</ele>
        <time>2014-08-31T07:10:56Z</time>
      </trkpt>
      <trkpt lat="43.70042" lon="6.97592">
        <ele>455</ele>
        <time>2014-08-31T07:11:00Z</time>
      </trkpt>
      <trkpt lat="43.70043" lon="6.97588">
        <ele>455</ele>
        <time>2014-08-31T07:11:05Z</time>
      </trkpt>
      <trkpt lat="43.70044" lon="6.97583">
        <ele>456</ele>
        <time>2014-08-31T07:11:10Z</time>
      </trkpt>
      <trkpt lat="43.70044" lon="6.97578">
        <ele>457</ele>
        <time>2014-08-31T07:11:15Z</time>
      </trkpt>
      <trkpt lat="43.70046" lon="6.97571">
        <ele>458</ele>
        <time>2014-08-31T07:11:23Z</time>
      </trkpt>
      <trkpt lat="43.70047" lon="6.97568">
        <ele>459</ele>
        <time>2014-08-31T07:11:25Z</time>
      </trkpt>
      <trkpt lat="43.70048" lon="6.97564">
        <ele>459</ele>
        <time>2014-08-31T07:11:30Z</time>
      </trkpt>
      <trkpt lat="43.70049" lon="6.97562">
        <ele>460</ele>
        <time>2014-08-31T07:11:35Z</time>
      </trkpt>
      <trkpt lat="43.7005" lon="6.97556">
        <ele>461</ele>
        <time>2014-08-31T07:11:40Z</time>
      </trkpt>
      <trkpt lat="43.70051" lon="6.9755">
        <ele>463</ele>
        <time>2014-08-31T07:11:45Z</time>
      </trkpt>
      <trkpt lat="43.70054" lon="6.97544">
        <ele>462</ele>
        <time>2014-08-31T07:11:50Z</time>
      </trkpt>
      <trkpt lat="43.70055" lon="6.97539">
        <ele>464</ele>
        <time>2014-08-31T07:11:55Z</time>
      </trkpt>
      <trkpt lat="43.70058" lon="6.97537">
        <ele>464</ele>
        <time>2014-08-31T07:12:03Z</time>
      </trkpt>
      <trkpt lat="43.70059" lon="6.97531">
        <ele>464</ele>
        <time>2014-08-31T07:12:09Z</time>
      </trkpt>
      <trkpt lat="43.70059" lon="6.97528">
        <ele>465</ele>
        <time>2014-08-31T07:12:10Z</time>
      </trkpt>
      <trkpt lat="43.70059" lon="6.97515">
        <ele>468</ele>
        <time>2014-08-31T07:12:15Z</time>
      </trkpt>
      <trkpt lat="43.70058" lon="6.97504">
        <ele>469</ele>
        <time>2014-08-31T07:12:20Z</time>
      </trkpt>
      <trkpt lat="43.7006" lon="6.97493">
        <ele>469</ele>
        <time>2014-08-31T07:12:25Z</time>
      </trkpt>
      <trkpt lat="43.70064" lon="6.97482">
        <ele>471</ele>
        <time>2014-08-31T07:12:32Z</time>
      </trkpt>
      <trkpt lat="43.70065" lon="6.97478">
        <ele>472</ele>
        <time>2014-08-31T07:12:35Z</time>
      </trkpt>
      <trkpt lat="43.70069" lon="6.97475">
        <ele>470</ele>
        <time>2014-08-31T07:12:40Z</time>
      </trkpt>
      <trkpt lat="43.7007" lon="6.97471">
        <ele>472</ele>
        <time>2014-08-31T07:12:45Z</time>
      </trkpt>
      <trkpt lat="43.70069" lon="6.97466">
        <ele>475</ele>
        <time>2014-08-31T07:12:53Z</time>
      </trkpt>
      <trkpt lat="43.7007" lon="6.97464">
        <ele>476</ele>
        <time>2014-08-31T07:12:56Z</time>
      </trkpt>
      <trkpt lat="43.70074" lon="6.97462">
        <ele>478</ele>
        <time>2014-08-31T07:13:02Z</time>
      </trkpt>
      <trkpt lat="43.70076" lon="6.9746">
        <ele>478</ele>
        <time>2014-08-31T07:13:05Z</time>
      </trkpt>
      <trkpt lat="43.7008" lon="6.9746">
        <ele>478</ele>
        <time>2014-08-31T07:13:10Z</time>
      </trkpt>
      <trkpt lat="43.70082" lon="6.97464">
        <ele>479</ele>
        <time>2014-08-31T07:13:15Z</time>
      </trkpt>
      <trkpt lat="43.70085" lon="6.97467">
        <ele>480</ele>
        <time>2014-08-31T07:13:20Z</time>
      </trkpt>
      <trkpt lat="43.70086" lon="6.9747">
        <ele>480</ele>
        <time>2014-08-31T07:13:25Z</time>
      </trkpt>
      <trkpt lat="43.70087" lon="6.97474">
        <ele>482</ele>
        <time>2014-08-31T07:13:30Z</time>
      </trkpt>
      <trkpt lat="43.70089" lon="6.97477">
        <ele>483</ele>
        <time>2014-08-31T07:13:35Z</time>
      </trkpt>
      <trkpt lat="43.70091" lon="6.97479">
        <ele>483</ele>
        <time>2014-08-31T07:13:40Z</time>
      </trkpt>
      <trkpt lat="43.70092" lon="6.97483">
        <ele>485</ele>
        <time>2014-08-31T07:13:45Z</time>
      </trkpt>
      <trkpt lat="43.70093" lon="6.97486">
        <ele>490</ele>
        <time>2014-08-31T07:13:51Z</time>
      </trkpt>
      <trkpt lat="43.70094" lon="6.97488">
        <ele>491</ele>
        <time>2014-08-31T07:13:55Z</time>
      </trkpt>
      <trkpt lat="43.70097" lon="6.9749">
        <ele>490</ele>
        <time>2014-08-31T07:14:00Z</time>
      </trkpt>
      <trkpt lat="43.70099" lon="6.97488">
        <ele>491</ele>
        <time>2014-08-31T07:14:05Z</time>
      </trkpt>
      <trkpt lat="43.701" lon="6.97485">
        <ele>489</ele>
        <time>2014-08-31T07:14:12Z</time>
      </trkpt>
      <trkpt lat="43.70102" lon="6.97482">
        <ele>487</ele>
        <time>2014-08-31T07:14:15Z</time>
      </trkpt>
      <trkpt lat="43.70105" lon="6.97478">
        <ele>488</ele>
        <time>2014-08-31T07:14:20Z</time>
      </trkpt>
      <trkpt lat="43.70109" lon="6.97472">
        <ele>492</ele>
        <time>2014-08-31T07:14:27Z</time>
      </trkpt>
      <trkpt lat="43.7011" lon="6.9747">
        <ele>493</ele>
        <time>2014-08-31T07:14:30Z</time>
      </trkpt>
      <trkpt lat="43.70114" lon="6.97465">
        <ele>493</ele>
        <time>2014-08-31T07:14:38Z</time>
      </trkpt>
      <trkpt lat="43.70116" lon="6.97464">
        <ele>494</ele>
        <time>2014-08-31T07:14:41Z</time>
      </trkpt>
      <trkpt lat="43.70118" lon="6.97461">
        <ele>494</ele>
        <time>2014-08-31T07:14:46Z</time>
      </trkpt>
      <trkpt lat="43.70121" lon="6.97459">
        <ele>493</ele>
        <time>2014-08-31T07:14:50Z</time>
      </trkpt>
      <trkpt lat="43.70122" lon="6.97455">
        <ele>495</ele>
        <time>2014-08-31T07:14:55Z</time>
      </trkpt>
      <trkpt lat="43.70124" lon="6.97451">
        <ele>495</ele>
        <time>2014-08-31T07:15:00Z</time>
      </trkpt>
      <trkpt lat="43.70127" lon="6.97448">
        <ele>496</ele>
        <time>2014-08-31T07:15:06Z</time>
      </trkpt>
      <trkpt lat="43.7013" lon="6.97444">
        <ele>497</ele>
        <time>2014-08-31T07:15:10Z</time>
      </trkpt>
      <trkpt lat="43.70133" lon="6.9744">
        <ele>498</ele>
        <time>2014-08-31T07:15:15Z</time>
      </trkpt>
      <trkpt lat="43.70137" lon="6.97436">
        <ele>499</ele>
        <time>2014-08-31T07:15:21Z</time>
      </trkpt>
      <trkpt lat="43.70138" lon="6.97433">
        <ele>501</ele>
        <time>2014-08-31T07:15:25Z</time>
      </trkpt>
      <trkpt lat="43.7014" lon="6.97429">
        <ele>501</ele>
        <time>2014-08-31T07:15:31Z</time>
      </trkpt>
      <trkpt lat="43.70141" lon="6.97425">
        <ele>499</ele>
        <time>2014-08-31T07:15:36Z</time>
      </trkpt>
      <trkpt lat="43.70139" lon="6.97424">
        <ele>500</ele>
        <time>2014-08-31T07:15:40Z</time>
      </trkpt>
      <trkpt lat="43.70141" lon="6.97418">
        <ele>500</ele>
        <time>2014-08-31T07:15:46Z</time>
      </trkpt>
      <trkpt lat="43.70142" lon="6.97414">
        <ele>502</ele>
        <time>2014-08-31T07:15:50Z</time>
      </trkpt>
      <trkpt lat="43.70143" lon="6.97409">
        <ele>502</ele>
        <time>2014-08-31T07:15:55Z</time>
      </trkpt>
      <trkpt lat="43.70143" lon="6.97404">
        <ele>505</ele>
        <time>2014-08-31T07:16:00Z</time>
      </trkpt>
      <trkpt lat="43.70144" lon="6.97399">
        <ele>504</ele>
        <time>2014-08-31T07:16:06Z</time>
      </trkpt>
      <trkpt lat="43.70145" lon="6.97395">
        <ele>504</ele>
        <time>2014-08-31T07:16:10Z</time>
      </trkpt>
      <trkpt lat="43.70146" lon="6.9739">
        <ele>504</ele>
        <time>2014-08-31T07:16:15Z</time>
      </trkpt>
      <trkpt lat="43.7015" lon="6.97383">
        <ele>506</ele>
        <time>2014-08-31T07:16:23Z</time>
      </trkpt>
      <trkpt lat="43.70152" lon="6.97382">
        <ele>507</ele>
        <time>2014-08-31T07:16:25Z</time>
      </trkpt>
      <trkpt lat="43.70155" lon="6.97376">
        <ele>508</ele>
        <time>2014-08-31T07:16:32Z</time>
      </trkpt>
      <trkpt lat="43.70157" lon="6.97375">
        <ele>508</ele>
        <time>2014-08-31T07:16:35Z</time>
      </trkpt>
      <trkpt lat="43.70159" lon="6.97375">
        <ele>510</ele>
        <time>2014-08-31T07:16:40Z</time>
      </trkpt>
      <trkpt lat="43.7016" lon="6.9737">
        <ele>512</ele>
        <time>2014-08-31T07:16:47Z</time>
      </trkpt>
      <trkpt lat="43.70162" lon="6.97365">
        <ele>513</ele>
        <time>2014-08-31T07:16:50Z</time>
      </trkpt>
      <trkpt lat="43.70164" lon="6.97356">
        <ele>515</ele>
        <time>2014-08-31T07:16:55Z</time>
      </trkpt>
      <trkpt lat="43.70167" lon="6.97349">
        <ele>514</ele>
        <time>2014-08-31T07:17:00Z</time>
      </trkpt>
      <trkpt lat="43.70172" lon="6.97342">
        <ele>517</ele>
        <time>2014-08-31T07:17:05Z</time>
      </trkpt>
      <trkpt lat="43.70175" lon="6.97334">
        <ele>521</ele>
        <time>2014-08-31T07:17:10Z</time>
      </trkpt>
      <trkpt lat="43.70181" lon="6.97325">
        <ele>526</ele>
        <time>2014-08-31T07:17:18Z</time>
      </trkpt>
      <trkpt lat="43.70183" lon="6.97322">
        <ele>526</ele>
        <time>2014-08-31T07:17:20Z</time>
      </trkpt>
      <trkpt lat="43.70187" lon="6.97312">
        <ele>528</ele>
        <time>2014-08-31T07:17:26Z</time>
      </trkpt>
      <trkpt lat="43.70191" lon="6.97305">
        <ele>529</ele>
        <time>2014-08-31T07:17:30Z</time>
      </trkpt>
      <trkpt lat="43.70195" lon="6.97297">
        <ele>527</ele>
        <time>2014-08-31T07:17:35Z</time>
      </trkpt>
      <trkpt lat="43.70201" lon="6.97285">
        <ele>526</ele>
        <time>2014-08-31T07:17:43Z</time>
      </trkpt>
      <trkpt lat="43.70201" lon="6.97282">
        <ele>526</ele>
        <time>2014-08-31T07:17:45Z</time>
      </trkpt>
      <trkpt lat="43.70204" lon="6.97275">
        <ele>528</ele>
        <time>2014-08-31T07:17:50Z</time>
      </trkpt>
      <trkpt lat="43.70207" lon="6.97269">
        <ele>528</ele>
        <time>2014-08-31T07:17:56Z</time>
      </trkpt>
      <trkpt lat="43.70209" lon="6.97264">
        <ele>528</ele>
        <time>2014-08-31T07:18:00Z</time>
      </trkpt>
      <trkpt lat="43.7021" lon="6.97257">
        <ele>530</ele>
        <time>2014-08-31T07:18:05Z</time>
      </trkpt>
      <trkpt lat="43.70212" lon="6.97248">
        <ele>531</ele>
        <time>2014-08-31T07:18:11Z</time>
      </trkpt>
      <trkpt lat="43.70213" lon="6.97242">
        <ele>531</ele>
        <time>2014-08-31T07:18:15Z</time>
      </trkpt>
      <trkpt lat="43.70213" lon="6.97234">
        <ele>534</ele>
        <time>2014-08-31T07:18:20Z</time>
      </trkpt>
      <trkpt lat="43.70213" lon="6.97224">
        <ele>536</ele>
        <time>2014-08-31T07:18:25Z</time>
      </trkpt>
      <trkpt lat="43.70214" lon="6.97213">
        <ele>537</ele>
        <time>2014-08-31T07:18:30Z</time>
      </trkpt>
      <trkpt lat="43.70214" lon="6.97191">
        <ele>536</ele>
        <time>2014-08-31T07:18:39Z</time>
      </trkpt>
      <trkpt lat="43.70214" lon="6.97188">
        <ele>537</ele>
        <time>2014-08-31T07:18:40Z</time>
      </trkpt>
      <trkpt lat="43.70213" lon="6.97176">
        <ele>539</ele>
        <time>2014-08-31T07:18:45Z</time>
      </trkpt>
      <trkpt lat="43.70219" lon="6.97178">
        <ele>540</ele>
        <time>2014-08-31T07:18:50Z</time>
      </trkpt>
      <trkpt lat="43.7022" lon="6.97187">
        <ele>542</ele>
        <time>2014-08-31T07:18:55Z</time>
      </trkpt>
      <trkpt lat="43.70221" lon="6.97196">
        <ele>543</ele>
        <time>2014-08-31T07:19:00Z</time>
      </trkpt>
      <trkpt lat="43.70222" lon="6.97205">
        <ele>546</ele>
        <time>2014-08-31T07:19:05Z</time>
      </trkpt>
      <trkpt lat="43.70225" lon="6.97213">
        <ele>547</ele>
        <time>2014-08-31T07:19:10Z</time>
      </trkpt>
      <trkpt lat="43.70226" lon="6.97222">
        <ele>548</ele>
        <time>2014-08-31T07:19:15Z</time>
      </trkpt>
      <trkpt lat="43.70227" lon="6.97231">
        <ele>548</ele>
        <time>2014-08-31T07:19:20Z</time>
      </trkpt>
      <trkpt lat="43.70227" lon="6.9724">
        <ele>546</ele>
        <time>2014-08-31T07:19:25Z</time>
      </trkpt>
      <trkpt lat="43.70228" lon="6.97249">
        <ele>548</ele>
        <time>2014-08-31T07:19:30Z</time>
      </trkpt>
      <trkpt lat="43.70229" lon="6.97257">
        <ele>550</ele>
        <time>2014-08-31T07:19:35Z</time>
      </trkpt>
      <trkpt lat="43.70229" lon="6.97267">
        <ele>552</ele>
        <time>2014-08-31T07:19:42Z</time>
      </trkpt>
      <trkpt lat="43.70228" lon="6.97273">
        <ele>553</ele>
        <time>2014-08-31T07:19:45Z</time>
      </trkpt>
      <trkpt lat="43.70228" lon="6.97281">
        <ele>553</ele>
        <time>2014-08-31T07:19:50Z</time>
      </trkpt>
      <trkpt lat="43.70227" lon="6.9729">
        <ele>551</ele>
        <time>2014-08-31T07:19:55Z</time>
      </trkpt>
      <trkpt lat="43.70233" lon="6.9729">
        <ele>550</ele>
        <time>2014-08-31T07:20:00Z</time>
      </trkpt>
      <trkpt lat="43.70233" lon="6.97279">
        <ele>549</ele>
        <time>2014-08-31T07:20:05Z</time>
      </trkpt>
      <trkpt lat="43.70235" lon="6.97269">
        <ele>548</ele>
        <time>2014-08-31T07:20:10Z</time>
      </trkpt>
      <trkpt lat="43.70237" lon="6.9726">
        <ele>551</ele>
        <time>2014-08-31T07:20:15Z</time>
      </trkpt>
      <trkpt lat="43.70238" lon="6.9725">
        <ele>551</ele>
        <time>2014-08-31T07:20:21Z</time>
      </trkpt>
      <trkpt lat="43.70239" lon="6.97244">
        <ele>552</ele>
        <time>2014-08-31T07:20:25Z</time>
      </trkpt>
      <trkpt lat="43.70241" lon="6.97235">
        <ele>554</ele>
        <time>2014-08-31T07:20:30Z</time>
      </trkpt>
      <trkpt lat="43.70242" lon="6.97227">
        <ele>553</ele>
        <time>2014-08-31T07:20:35Z</time>
      </trkpt>
      <trkpt lat="43.70243" lon="6.97218">
        <ele>555</ele>
        <time>2014-08-31T07:20:40Z</time>
      </trkpt>
      <trkpt lat="43.70244" lon="6.97209">
        <ele>557</ele>
        <time>2014-08-31T07:20:45Z</time>
      </trkpt>
      <trkpt lat="43.70245" lon="6.97201">
        <ele>559</ele>
        <time>2014-08-31T07:20:50Z</time>
      </trkpt>
      <trkpt lat="43.70247" lon="6.97193">
        <ele>560</ele>
        <time>2014-08-31T07:20:55Z</time>
      </trkpt>
      <trkpt lat="43.70249" lon="6.97185">
        <ele>563</ele>
        <time>2014-08-31T07:21:00Z</time>
      </trkpt>
      <trkpt lat="43.70248" lon="6.97176">
        <ele>568</ele>
        <time>2014-08-31T07:21:05Z</time>
      </trkpt>
      <trkpt lat="43.70248" lon="6.97166">
        <ele>569</ele>
        <time>2014-08-31T07:21:10Z</time>
      </trkpt>
      <trkpt lat="43.70249" lon="6.97159">
        <ele>569</ele>
        <time>2014-08-31T07:21:15Z</time>
      </trkpt>
      <trkpt lat="43.70253" lon="6.97163">
        <ele>569</ele>
        <time>2014-08-31T07:21:20Z</time>
      </trkpt>
      <trkpt lat="43.70253" lon="6.97173">
        <ele>570</ele>
        <time>2014-08-31T07:21:25Z</time>
      </trkpt>
      <trkpt lat="43.70255" lon="6.97182">
        <ele>573</ele>
        <time>2014-08-31T07:21:30Z</time>
      </trkpt>
      <trkpt lat="43.70257" lon="6.97191">
        <ele>575</ele>
        <time>2014-08-31T07:21:35Z</time>
      </trkpt>
      <trkpt lat="43.70257" lon="6.972">
        <ele>579</ele>
        <time>2014-08-31T07:21:40Z</time>
      </trkpt>
      <trkpt lat="43.7026" lon="6.97208">
        <ele>581</ele>
        <time>2014-08-31T07:21:45Z</time>
      </trkpt>
      <trkpt lat="43.70261" lon="6.97219">
        <ele>583</ele>
        <time>2014-08-31T07:21:51Z</time>
      </trkpt>
      <trkpt lat="43.7026" lon="6.97226">
        <ele>585</ele>
        <time>2014-08-31T07:21:55Z</time>
      </trkpt>
      <trkpt lat="43.70261" lon="6.97236">
        <ele>582</ele>
        <time>2014-08-31T07:22:00Z</time>
      </trkpt>
      <trkpt lat="43.70262" lon="6.97248">
        <ele>582</ele>
        <time>2014-08-31T07:22:06Z</time>
      </trkpt>
      <trkpt lat="43.70262" lon="6.97256">
        <ele>582</ele>
        <time>2014-08-31T07:22:10Z</time>
      </trkpt>
      <trkpt lat="43.70266" lon="6.97259">
        <ele>583</ele>
        <time>2014-08-31T07:22:15Z</time>
      </trkpt>
      <trkpt lat="43.70268" lon="6.97248">
        <ele>581</ele>
        <time>2014-08-31T07:22:20Z</time>
      </trkpt>
      <trkpt lat="43.7027" lon="6.97237">
        <ele>581</ele>
        <time>2014-08-31T07:22:25Z</time>
      </trkpt>
      <trkpt lat="43.70271" lon="6.97225">
        <ele>581</ele>
        <time>2014-08-31T07:22:30Z</time>
      </trkpt>
      <trkpt lat="43.70273" lon="6.97213">
        <ele>581</ele>
        <time>2014-08-31T07:22:35Z</time>
      </trkpt>
      <trkpt lat="43.70274" lon="6.97201">
        <ele>580</ele>
        <time>2014-08-31T07:22:40Z</time>
      </trkpt>
      <trkpt lat="43.70273" lon="6.97188">
        <ele>582</ele>
        <time>2014-08-31T07:22:45Z</time>
      </trkpt>
      <trkpt lat="43.70272" lon="6.97177">
        <ele>581</ele>
        <time>2014-08-31T07:22:50Z</time>
      </trkpt>
      <trkpt lat="43.70275" lon="6.97164">
        <ele>581</ele>
        <time>2014-08-31T07:22:55Z</time>
      </trkpt>
      <trkpt lat="43.70276" lon="6.97151">
        <ele>582</ele>
        <time>2014-08-31T07:23:00Z</time>
      </trkpt>
      <trkpt lat="43.70276" lon="6.97137">
        <ele>582</ele>
        <time>2014-08-31T07:23:05Z</time>
      </trkpt>
      <trkpt lat="43.70275" lon="6.97125">
        <ele>581</ele>
        <time>2014-08-31T07:23:10Z</time>
      </trkpt>
      <trkpt lat="43.70275" lon="6.97114">
        <ele>582</ele>
        <time>2014-08-31T07:23:15Z</time>
      </trkpt>
      <trkpt lat="43.70275" lon="6.97104">
        <ele>584</ele>
        <time>2014-08-31T07:23:20Z</time>
      </trkpt>
      <trkpt lat="43.70275" lon="6.97097">
        <ele>587</ele>
        <time>2014-08-31T07:23:25Z</time>
      </trkpt>
      <trkpt lat="43.70275" lon="6.9709">
        <ele>588</ele>
        <time>2014-08-31T07:23:30Z</time>
      </trkpt>
      <trkpt lat="43.70276" lon="6.97081">
        <ele>591</ele>
        <time>2014-08-31T07:23:36Z</time>
      </trkpt>
      <trkpt lat="43.70273" lon="6.97067">
        <ele>591</ele>
        <time>2014-08-31T07:23:44Z</time>
      </trkpt>
      <trkpt lat="43.70273" lon="6.97065">
        <ele>590</ele>
        <time>2014-08-31T07:23:45Z</time>
      </trkpt>
      <trkpt lat="43.70272" lon="6.97054">
        <ele>591</ele>
        <time>2014-08-31T07:23:50Z</time>
      </trkpt>
      <trkpt lat="43.7027" lon="6.9704">
        <ele>591</ele>
        <time>2014-08-31T07:23:57Z</time>
      </trkpt>
      <trkpt lat="43.7027" lon="6.97034">
        <ele>590</ele>
        <time>2014-08-31T07:24:00Z</time>
      </trkpt>
      <trkpt lat="43.70269" lon="6.97019">
        <ele>591</ele>
        <time>2014-08-31T07:24:07Z</time>
      </trkpt>
      <trkpt lat="43.70269" lon="6.97013">
        <ele>592</ele>
        <time>2014-08-31T07:24:10Z</time>
      </trkpt>
      <trkpt lat="43.70269" lon="6.97001">
        <ele>591</ele>
        <time>2014-08-31T07:24:16Z</time>
      </trkpt>
      <trkpt lat="43.70269" lon="6.96993">
        <ele>591</ele>
        <time>2014-08-31T07:24:20Z</time>
      </trkpt>
      <trkpt lat="43.70269" lon="6.96981">
        <ele>594</ele>
        <time>2014-08-31T07:24:25Z</time>
      </trkpt>
      <trkpt lat="43.70269" lon="6.9697">
        <ele>595</ele>
        <time>2014-08-31T07:24:30Z</time>
      </trkpt>
      <trkpt lat="43.7027" lon="6.96958">
        <ele>595</ele>
        <time>2014-08-31T07:24:35Z</time>
      </trkpt>
      <trkpt lat="43.7027" lon="6.96942">
        <ele>598</ele>
        <time>2014-08-31T07:24:42Z</time>
      </trkpt>
      <trkpt lat="43.70271" lon="6.96935">
        <ele>598</ele>
        <time>2014-08-31T07:24:45Z</time>
      </trkpt>
      <trkpt lat="43.70271" lon="6.96924">
        <ele>599</ele>
        <time>2014-08-31T07:24:50Z</time>
      </trkpt>
      <trkpt lat="43.70272" lon="6.96912">
        <ele>600</ele>
        <time>2014-08-31T07:24:55Z</time>
      </trkpt>
      <trkpt lat="43.70272" lon="6.96901">
        <ele>601</ele>
        <time>2014-08-31T07:25:00Z</time>
      </trkpt>
      <trkpt lat="43.7027" lon="6.96891">
        <ele>603</ele>
        <time>2014-08-31T07:25:05Z</time>
      </trkpt>
      <trkpt lat="43.70269" lon="6.96879">
        <ele>599</ele>
        <time>2014-08-31T07:25:11Z</time>
      </trkpt>
      <trkpt lat="43.70268" lon="6.96872">
        <ele>599</ele>
        <time>2014-08-31T07:25:15Z</time>
      </trkpt>
      <trkpt lat="43.70268" lon="6.9686">
        <ele>600</ele>
        <time>2014-08-31T07:25:20Z</time>
      </trkpt>
      <trkpt lat="43.70268" lon="6.96848">
        <ele>598</ele>
        <time>2014-08-31T07:25:25Z</time>
      </trkpt>
      <trkpt lat="43.70268" lon="6.96828">
        <ele>601</ele>
        <time>2014-08-31T07:25:34Z</time>
      </trkpt>
      <trkpt lat="43.70268" lon="6.96826">
        <ele>601</ele>
        <time>2014-08-31T07:25:35Z</time>
      </trkpt>
      <trkpt lat="43.7027" lon="6.96816">
        <ele>602</ele>
        <time>2014-08-31T07:25:40Z</time>
      </trkpt>
      <trkpt lat="43.70275" lon="6.96807">
        <ele>602</ele>
        <time>2014-08-31T07:25:45Z</time>
      </trkpt>
      <trkpt lat="43.70274" lon="6.96796">
        <ele>603</ele>
        <time>2014-08-31T07:25:50Z</time>
      </trkpt>
      <trkpt lat="43.70273" lon="6.96785">
        <ele>605</ele>
        <time>2014-08-31T07:25:55Z</time>
      </trkpt>
      <trkpt lat="43.70273" lon="6.96774">
        <ele>606</ele>
        <time>2014-08-31T07:26:00Z</time>
      </trkpt>
      <trkpt lat="43.70276" lon="6.96758">
        <ele>608</ele>
        <time>2014-08-31T07:26:08Z</time>
      </trkpt>
      <trkpt lat="43.70277" lon="6.96753">
        <ele>608</ele>
        <time>2014-08-31T07:26:10Z</time>
      </trkpt>
      <trkpt lat="43.70281" lon="6.96743">
        <ele>607</ele>
        <time>2014-08-31T07:26:15Z</time>
      </trkpt>
      <trkpt lat="43.70283" lon="6.9673">
        <ele>609</ele>
        <time>2014-08-31T07:26:20Z</time>
      </trkpt>
      <trkpt lat="43.70279" lon="6.96712">
        <ele>610</ele>
        <time>2014-08-31T07:26:25Z</time>
      </trkpt>
      <trkpt lat="43.70269" lon="6.96687">
        <ele>610</ele>
        <time>2014-08-31T07:26:30Z</time>
      </trkpt>
      <trkpt lat="43.70262" lon="6.96664">
        <ele>611</ele>
        <time>2014-08-31T07:26:35Z</time>
      </trkpt>
      <trkpt lat="43.70258" lon="6.96642">
        <ele>612</ele>
        <time>2014-08-31T07:26:40Z</time>
      </trkpt>
      <trkpt lat="43.70256" lon="6.96604">
        <ele>613</ele>
        <time>2014-08-31T07:26:47Z</time>
      </trkpt>
      <trkpt lat="43.70254" lon="6.96593">
        <ele>612</ele>
        <time>2014-08-31T07:26:50Z</time>
      </trkpt>
      <trkpt lat="43.70253" lon="6.96576">
        <ele>612</ele>
        <time>2014-08-31T07:26:55Z</time>
      </trkpt>
      <trkpt lat="43.70247" lon="6.96556">
        <ele>610</ele>
        <time>2014-08-31T07:27:01Z</time>
      </trkpt>
      <trkpt lat="43.70245" lon="6.96547">
        <ele>610</ele>
        <time>2014-08-31T07:27:05Z</time>
      </trkpt>
      <trkpt lat="43.70245" lon="6.96549">
        <ele>610</ele>
        <time>2014-08-31T07:27:10Z</time>
      </trkpt>
      <trkpt lat="43.70246" lon="6.96549">
        <ele>610</ele>
        <time>2014-08-31T07:27:15Z</time>
      </trkpt>
      <trkpt lat="43.70247" lon="6.96549">
        <ele>610</ele>
        <time>2014-08-31T07:27:20Z</time>
      </trkpt>
      <trkpt lat="43.70247" lon="6.96549">
        <ele>610</ele>
        <time>2014-08-31T07:27:25Z</time>
      </trkpt>
      <trkpt lat="43.70247" lon="6.96549">
        <ele>610</ele>
        <time>2014-08-31T07:27:30Z</time>
      </trkpt>
      <trkpt lat="43.70247" lon="6.96549">
        <ele>610</ele>
        <time>2014-08-31T07:27:35Z</time>
      </trkpt>
      <trkpt lat="43.70247" lon="6.96549">
        <ele>610</ele>
        <time>2014-08-31T07:27:40Z</time>
      </trkpt>
      <trkpt lat="43.70247" lon="6.96549">
        <ele>610</ele>
        <time>2014-08-31T07:27:45Z</time>
      </trkpt>
      <trkpt lat="43.70247" lon="6.96549">
        <ele>610</ele>
        <time>2014-08-31T07:27:50Z</time>
      </trkpt>
      <trkpt lat="43.70247" lon="6.96549">
        <ele>610</ele>
        <time>2014-08-31T07:27:55Z</time>
      </trkpt>
      <trkpt lat="43.70247" lon="6.96549">
        <ele>610</ele>
        <time>2014-08-31T07:28:00Z</time>
      </trkpt>
      <trkpt lat="43.70247" lon="6.96549">
        <ele>610</ele>
        <time>2014-08-31T07:28:05Z</time>
      </trkpt>
      <trkpt lat="43.70246" lon="6.96547">
        <ele>610</ele>
        <time>2014-08-31T07:28:10Z</time>
      </trkpt>
      <trkpt lat="43.70245" lon="6.96532">
        <ele>609</ele>
        <time>2014-08-31T07:28:15Z</time>
      </trkpt>
      <trkpt lat="43.70238" lon="6.96504">
        <ele>607</ele>
        <time>2014-08-31T07:28:20Z</time>
      </trkpt>
      <trkpt lat="43.70231" lon="6.96466">
        <ele>606</ele>
        <time>2014-08-31T07:28:26Z</time>
      </trkpt>
      <trkpt lat="43.70228" lon="6.96449">
        <ele>607</ele>
        <time>2014-08-31T07:28:30Z</time>
      </trkpt>
      <trkpt lat="43.70223" lon="6.96429">
        <ele>608</ele>
        <time>2014-08-31T07:28:35Z</time>
      </trkpt>
      <trkpt lat="43.70218" lon="6.96404">
        <ele>609</ele>
        <time>2014-08-31T07:28:41Z</time>
      </trkpt>
      <trkpt lat="43.70209" lon="6.96383">
        <ele>609</ele>
        <time>2014-08-31T07:28:47Z</time>
      </trkpt>
      <trkpt lat="43.70204" lon="6.9637">
        <ele>610</ele>
        <time>2014-08-31T07:28:51Z</time>
      </trkpt>
      <trkpt lat="43.70199" lon="6.96357">
        <ele>611</ele>
        <time>2014-08-31T07:28:55Z</time>
      </trkpt>
      <trkpt lat="43.70197" lon="6.96342">
        <ele>613</ele>
        <time>2014-08-31T07:29:00Z</time>
      </trkpt>
      <trkpt lat="43.70196" lon="6.96331">
        <ele>616</ele>
        <time>2014-08-31T07:29:05Z</time>
      </trkpt>
      <trkpt lat="43.70189" lon="6.9632">
        <ele>618</ele>
        <time>2014-08-31T07:29:10Z</time>
      </trkpt>
      <trkpt lat="43.70182" lon="6.96309">
        <ele>618</ele>
        <time>2014-08-31T07:29:15Z</time>
      </trkpt>
      <trkpt lat="43.70177" lon="6.96298">
        <ele>619</ele>
        <time>2014-08-31T07:29:20Z</time>
      </trkpt>
      <trkpt lat="43.70171" lon="6.96287">
        <ele>619</ele>
        <time>2014-08-31T07:29:25Z</time>
      </trkpt>
      <trkpt lat="43.70166" lon="6.96275">
        <ele>619</ele>
        <time>2014-08-31T07:29:30Z</time>
      </trkpt>
      <trkpt lat="43.7016" lon="6.96264">
        <ele>620</ele>
        <time>2014-08-31T07:29:35Z</time>
      </trkpt>
      <trkpt lat="43.70155" lon="6.96254">
        <ele>623</ele>
        <time>2014-08-31T07:29:40Z</time>
      </trkpt>
      <trkpt lat="43.7015" lon="6.96244">
        <ele>623</ele>
        <time>2014-08-31T07:29:45Z</time>
      </trkpt>
      <trkpt lat="43.70145" lon="6.96236">
        <ele>627</ele>
        <time>2014-08-31T07:29:50Z</time>
      </trkpt>
      <trkpt lat="43.7014" lon="6.96228">
        <ele>628</ele>
        <time>2014-08-31T07:29:55Z</time>
      </trkpt>
      <trkpt lat="43.70134" lon="6.9622">
        <ele>628</ele>
        <time>2014-08-31T07:30:00Z</time>
      </trkpt>
      <trkpt lat="43.70126" lon="6.96213">
        <ele>628</ele>
        <time>2014-08-31T07:30:05Z</time>
      </trkpt>
      <trkpt lat="43.70116" lon="6.96194">
        <ele>629</ele>
        <time>2014-08-31T07:30:14Z</time>
      </trkpt>
      <trkpt lat="43.70115" lon="6.96193">
        <ele>629</ele>
        <time>2014-08-31T07:30:15Z</time>
      </trkpt>
      <trkpt lat="43.70106" lon="6.96185">
        <ele>628</ele>
        <time>2014-08-31T07:30:20Z</time>
      </trkpt>
      <trkpt lat="43.70096" lon="6.96177">
        <ele>630</ele>
        <time>2014-08-31T07:30:25Z</time>
      </trkpt>
      <trkpt lat="43.70087" lon="6.96169">
        <ele>630</ele>
        <time>2014-08-31T07:30:30Z</time>
      </trkpt>
      <trkpt lat="43.70081" lon="6.96161">
        <ele>631</ele>
        <time>2014-08-31T07:30:35Z</time>
      </trkpt>
      <trkpt lat="43.70075" lon="6.96153">
        <ele>633</ele>
        <time>2014-08-31T07:30:40Z</time>
      </trkpt>
      <trkpt lat="43.7007" lon="6.96146">
        <ele>636</ele>
        <time>2014-08-31T07:30:45Z</time>
      </trkpt>
      <trkpt lat="43.70061" lon="6.96135">
        <ele>633</ele>
        <time>2014-08-31T07:30:52Z</time>
      </trkpt>
      <trkpt lat="43.70058" lon="6.96129">
        <ele>634</ele>
        <time>2014-08-31T07:30:56Z</time>
      </trkpt>
      <trkpt lat="43.7006" lon="6.96125">
        <ele>633</ele>
        <time>2014-08-31T07:31:00Z</time>
      </trkpt>
      <trkpt lat="43.70068" lon="6.96132">
        <ele>634</ele>
        <time>2014-08-31T07:31:05Z</time>
      </trkpt>
      <trkpt lat="43.70079" lon="6.96139">
        <ele>634</ele>
        <time>2014-08-31T07:31:10Z</time>
      </trkpt>
      <trkpt lat="43.7009" lon="6.96147">
        <ele>635</ele>
        <time>2014-08-31T07:31:15Z</time>
      </trkpt>
      <trkpt lat="43.70101" lon="6.96152">
        <ele>635</ele>
        <time>2014-08-31T07:31:20Z</time>
      </trkpt>
      <trkpt lat="43.7012" lon="6.96166">
        <ele>636</ele>
        <time>2014-08-31T07:31:28Z</time>
      </trkpt>
      <trkpt lat="43.70126" lon="6.9617">
        <ele>638</ele>
        <time>2014-08-31T07:31:30Z</time>
      </trkpt>
      <trkpt lat="43.70148" lon="6.96183">
        <ele>637</ele>
        <time>2014-08-31T07:31:38Z</time>
      </trkpt>
      <trkpt lat="43.70154" lon="6.96187">
        <ele>637</ele>
        <time>2014-08-31T07:31:40Z</time>
      </trkpt>
      <trkpt lat="43.70167" lon="6.96197">
        <ele>636</ele>
        <time>2014-08-31T07:31:45Z</time>
      </trkpt>
      <trkpt lat="43.70179" lon="6.96207">
        <ele>636</ele>
        <time>2014-08-31T07:31:50Z</time>
      </trkpt>
      <trkpt lat="43.7019" lon="6.96218">
        <ele>637</ele>
        <time>2014-08-31T07:31:55Z</time>
      </trkpt>
      <trkpt lat="43.70201" lon="6.9623">
        <ele>637</ele>
        <time>2014-08-31T07:32:00Z</time>
      </trkpt>
      <trkpt lat="43.70213" lon="6.96253">
        <ele>638</ele>
        <time>2014-08-31T07:32:07Z</time>
      </trkpt>
      <trkpt lat="43.70218" lon="6.96263">
        <ele>639</ele>
        <time>2014-08-31T07:32:09Z</time>
      </trkpt>
      <trkpt lat="43.70226" lon="6.9628">
        <ele>639</ele>
        <time>2014-08-31T07:32:15Z</time>
      </trkpt>
      <trkpt lat="43.70234" lon="6.96296">
        <ele>638</ele>
        <time>2014-08-31T07:32:20Z</time>
      </trkpt>
      <trkpt lat="43.70247" lon="6.96322">
        <ele>641</ele>
        <time>2014-08-31T07:32:28Z</time>
      </trkpt>
      <trkpt lat="43.70251" lon="6.96332">
        <ele>643</ele>
        <time>2014-08-31T07:32:31Z</time>
      </trkpt>
      <trkpt lat="43.70258" lon="6.96348">
        <ele>643</ele>
        <time>2014-08-31T07:32:36Z</time>
      </trkpt>
      <trkpt lat="43.70264" lon="6.96362">
        <ele>645</ele>
        <time>2014-08-31T07:32:40Z</time>
      </trkpt>
      <trkpt lat="43.70272" lon="6.96377">
        <ele>643</ele>
        <time>2014-08-31T07:32:45Z</time>
      </trkpt>
      <trkpt lat="43.70279" lon="6.96394">
        <ele>646</ele>
        <time>2014-08-31T07:32:49Z</time>
      </trkpt>
      <trkpt lat="43.70285" lon="6.96413">
        <ele>644</ele>
        <time>2014-08-31T07:32:55Z</time>
      </trkpt>
      <trkpt lat="43.7029" lon="6.96432">
        <ele>644</ele>
        <time>2014-08-31T07:33:00Z</time>
      </trkpt>
      <trkpt lat="43.70293" lon="6.9645">
        <ele>645</ele>
        <time>2014-08-31T07:33:05Z</time>
      </trkpt>
      <trkpt lat="43.70297" lon="6.96471">
        <ele>645</ele>
        <time>2014-08-31T07:33:10Z</time>
      </trkpt>
      <trkpt lat="43.70299" lon="6.96491">
        <ele>644</ele>
        <time>2014-08-31T07:33:15Z</time>
      </trkpt>
      <trkpt lat="43.70302" lon="6.96511">
        <ele>647</ele>
        <time>2014-08-31T07:33:20Z</time>
      </trkpt>
      <trkpt lat="43.70306" lon="6.9653">
        <ele>647</ele>
        <time>2014-08-31T07:33:25Z</time>
      </trkpt>
      <trkpt lat="43.70311" lon="6.96558">
        <ele>646</ele>
        <time>2014-08-31T07:33:32Z</time>
      </trkpt>
      <trkpt lat="43.70313" lon="6.9657">
        <ele>646</ele>
        <time>2014-08-31T07:33:35Z</time>
      </trkpt>
      <trkpt lat="43.70317" lon="6.9659">
        <ele>647</ele>
        <time>2014-08-31T07:33:40Z</time>
      </trkpt>
      <trkpt lat="43.7032" lon="6.9661">
        <ele>651</ele>
        <time>2014-08-31T07:33:45Z</time>
      </trkpt>
      <trkpt lat="43.70323" lon="6.9663">
        <ele>649</ele>
        <time>2014-08-31T07:33:50Z</time>
      </trkpt>
      <trkpt lat="43.70328" lon="6.96662">
        <ele>652</ele>
        <time>2014-08-31T07:33:58Z</time>
      </trkpt>
      <trkpt lat="43.7033" lon="6.9667">
        <ele>653</ele>
        <time>2014-08-31T07:34:00Z</time>
      </trkpt>
      <trkpt lat="43.70334" lon="6.9669">
        <ele>652</ele>
        <time>2014-08-31T07:34:04Z</time>
      </trkpt>
      <trkpt lat="43.70337" lon="6.96711">
        <ele>653</ele>
        <time>2014-08-31T07:34:10Z</time>
      </trkpt>
      <trkpt lat="43.70342" lon="6.96741">
        <ele>652</ele>
        <time>2014-08-31T07:34:16Z</time>
      </trkpt>
      <trkpt lat="43.70344" lon="6.96753">
        <ele>653</ele>
        <time>2014-08-31T07:34:19Z</time>
      </trkpt>
      <trkpt lat="43.70344" lon="6.96772">
        <ele>653</ele>
        <time>2014-08-31T07:34:25Z</time>
      </trkpt>
      <trkpt lat="43.70345" lon="6.96792">
        <ele>654</ele>
        <time>2014-08-31T07:34:30Z</time>
      </trkpt>
      <trkpt lat="43.70346" lon="6.96817">
        <ele>656</ele>
        <time>2014-08-31T07:34:36Z</time>
      </trkpt>
      <trkpt lat="43.70348" lon="6.96838">
        <ele>657</ele>
        <time>2014-08-31T07:34:40Z</time>
      </trkpt>
      <trkpt lat="43.7035" lon="6.96854">
        <ele>658</ele>
        <time>2014-08-31T07:34:44Z</time>
      </trkpt>
      <trkpt lat="43.70353" lon="6.96875">
        <ele>660</ele>
        <time>2014-08-31T07:34:49Z</time>
      </trkpt>
      <trkpt lat="43.70359" lon="6.96909">
        <ele>657</ele>
        <time>2014-08-31T07:34:58Z</time>
      </trkpt>
      <trkpt lat="43.7036" lon="6.96917">
        <ele>656</ele>
        <time>2014-08-31T07:35:00Z</time>
      </trkpt>
      <trkpt lat="43.70363" lon="6.96937">
        <ele>655</ele>
        <time>2014-08-31T07:35:05Z</time>
      </trkpt>
      <trkpt lat="43.70364" lon="6.96955">
        <ele>658</ele>
        <time>2014-08-31T07:35:10Z</time>
      </trkpt>
      <trkpt lat="43.70368" lon="6.96981">
        <ele>656</ele>
        <time>2014-08-31T07:35:16Z</time>
      </trkpt>
      <trkpt lat="43.70369" lon="6.96992">
        <ele>655</ele>
        <time>2014-08-31T07:35:20Z</time>
      </trkpt>
      <trkpt lat="43.70374" lon="6.97011">
        <ele>654</ele>
        <time>2014-08-31T07:35:25Z</time>
      </trkpt>
      <trkpt lat="43.70389" lon="6.97043">
        <ele>654</ele>
        <time>2014-08-31T07:35:33Z</time>
      </trkpt>
      <trkpt lat="43.70391" lon="6.97047">
        <ele>654</ele>
        <time>2014-08-31T07:35:35Z</time>
      </trkpt>
      <trkpt lat="43.70403" lon="6.97061">
        <ele>655</ele>
        <time>2014-08-31T07:35:40Z</time>
      </trkpt>
      <trkpt lat="43.70416" lon="6.97074">
        <ele>656</ele>
        <time>2014-08-31T07:35:45Z</time>
      </trkpt>
      <trkpt lat="43.70428" lon="6.97087">
        <ele>656</ele>
        <time>2014-08-31T07:35:50Z</time>
      </trkpt>
      <trkpt lat="43.70441" lon="6.971">
        <ele>655</ele>
        <time>2014-08-31T07:35:54Z</time>
      </trkpt>
      <trkpt lat="43.70453" lon="6.97113">
        <ele>661</ele>
        <time>2014-08-31T07:36:00Z</time>
      </trkpt>
      <trkpt lat="43.70463" lon="6.97126">
        <ele>661</ele>
        <time>2014-08-31T07:36:04Z</time>
      </trkpt>
      <trkpt lat="43.70482" lon="6.97142">
        <ele>661</ele>
        <time>2014-08-31T07:36:12Z</time>
      </trkpt>
      <trkpt lat="43.70497" lon="6.9715">
        <ele>663</ele>
        <time>2014-08-31T07:36:17Z</time>
      </trkpt>
      <trkpt lat="43.7051" lon="6.97157">
        <ele>664</ele>
        <time>2014-08-31T07:36:21Z</time>
      </trkpt>
      <trkpt lat="43.7053" lon="6.97164">
        <ele>664</ele>
        <time>2014-08-31T07:36:27Z</time>
      </trkpt>
      <trkpt lat="43.7054" lon="6.97166">
        <ele>665</ele>
        <time>2014-08-31T07:36:29Z</time>
      </trkpt>
      <trkpt lat="43.70557" lon="6.97168">
        <ele>664</ele>
        <time>2014-08-31T07:36:34Z</time>
      </trkpt>
      <trkpt lat="43.70572" lon="6.97168">
        <ele>666</ele>
        <time>2014-08-31T07:36:39Z</time>
      </trkpt>
      <trkpt lat="43.70588" lon="6.97169">
        <ele>665</ele>
        <time>2014-08-31T07:36:44Z</time>
      </trkpt>
      <trkpt lat="43.70602" lon="6.97168">
        <ele>663</ele>
        <time>2014-08-31T07:36:49Z</time>
      </trkpt>
      <trkpt lat="43.7062" lon="6.97169">
        <ele>660</ele>
        <time>2014-08-31T07:36:56Z</time>
      </trkpt>
      <trkpt lat="43.70642" lon="6.97174">
        <ele>658</ele>
        <time>2014-08-31T07:37:03Z</time>
      </trkpt>
      <trkpt lat="43.70654" lon="6.97179">
        <ele>660</ele>
        <time>2014-08-31T07:37:07Z</time>
      </trkpt>
      <trkpt lat="43.70663" lon="6.97182">
        <ele>662</ele>
        <time>2014-08-31T07:37:10Z</time>
      </trkpt>
      <trkpt lat="43.70684" lon="6.97191">
        <ele>664</ele>
        <time>2014-08-31T07:37:16Z</time>
      </trkpt>
      <trkpt lat="43.70693" lon="6.97196">
        <ele>664</ele>
        <time>2014-08-31T07:37:19Z</time>
      </trkpt>
      <trkpt lat="43.70707" lon="6.97208">
        <ele>666</ele>
        <time>2014-08-31T07:37:24Z</time>
      </trkpt>
      <trkpt lat="43.7072" lon="6.97221">
        <ele>667</ele>
        <time>2014-08-31T07:37:29Z</time>
      </trkpt>
      <trkpt lat="43.70732" lon="6.97236">
        <ele>667</ele>
        <time>2014-08-31T07:37:35Z</time>
      </trkpt>
      <trkpt lat="43.70744" lon="6.97259">
        <ele>667</ele>
        <time>2014-08-31T07:37:41Z</time>
      </trkpt>
      <trkpt lat="43.7075" lon="6.97276">
        <ele>669</ele>
        <time>2014-08-31T07:37:44Z</time>
      </trkpt>
      <trkpt lat="43.70757" lon="6.97297">
        <ele>670</ele>
        <time>2014-08-31T07:37:49Z</time>
      </trkpt>
      <trkpt lat="43.70764" lon="6.97325">
        <ele>673</ele>
        <time>2014-08-31T07:37:56Z</time>
      </trkpt>
      <trkpt lat="43.70769" lon="6.97338">
        <ele>676</ele>
        <time>2014-08-31T07:37:59Z</time>
      </trkpt>
      <trkpt lat="43.70773" lon="6.97349">
        <ele>678</ele>
        <time>2014-08-31T07:38:04Z</time>
      </trkpt>
      <trkpt lat="43.70777" lon="6.97362">
        <ele>678</ele>
        <time>2014-08-31T07:38:10Z</time>
      </trkpt>
      <trkpt lat="43.70782" lon="6.97372">
        <ele>678</ele>
        <time>2014-08-31T07:38:15Z</time>
      </trkpt>
      <trkpt lat="43.70789" lon="6.97372">
        <ele>679</ele>
        <time>2014-08-31T07:38:21Z</time>
      </trkpt>
      <trkpt lat="43.70792" lon="6.97369">
        <ele>677</ele>
        <time>2014-08-31T07:38:24Z</time>
      </trkpt>
      <trkpt lat="43.70793" lon="6.97363">
        <ele>676</ele>
        <time>2014-08-31T07:38:29Z</time>
      </trkpt>
      <trkpt lat="43.70793" lon="6.97353">
        <ele>678</ele>
        <time>2014-08-31T07:38:34Z</time>
      </trkpt>
      <trkpt lat="43.70795" lon="6.97343">
        <ele>678</ele>
        <time>2014-08-31T07:38:41Z</time>
      </trkpt>
      <trkpt lat="43.70795" lon="6.97343">
        <ele>678</ele>
        <time>2014-08-31T07:38:45Z</time>
      </trkpt>
      <trkpt lat="43.70795" lon="6.97343">
        <ele>678</ele>
        <time>2014-08-31T07:38:50Z</time>
      </trkpt>
      <trkpt lat="43.70796" lon="6.97341">
        <ele>679</ele>
        <time>2014-08-31T07:38:56Z</time>
      </trkpt>
      <trkpt lat="43.70797" lon="6.97337">
        <ele>680</ele>
        <time>2014-08-31T07:38:59Z</time>
      </trkpt>
      <trkpt lat="43.70799" lon="6.97325">
        <ele>679</ele>
        <time>2014-08-31T07:39:04Z</time>
      </trkpt>
      <trkpt lat="43.70803" lon="6.97313">
        <ele>679</ele>
        <time>2014-08-31T07:39:10Z</time>
      </trkpt>
      <trkpt lat="43.70807" lon="6.97301">
        <ele>682</ele>
        <time>2014-08-31T07:39:14Z</time>
      </trkpt>
      <trkpt lat="43.70811" lon="6.97288">
        <ele>682</ele>
        <time>2014-08-31T07:39:20Z</time>
      </trkpt>
      <trkpt lat="43.7082" lon="6.97273">
        <ele>681</ele>
        <time>2014-08-31T07:39:28Z</time>
      </trkpt>
      <trkpt lat="43.70821" lon="6.97271">
        <ele>682</ele>
        <time>2014-08-31T07:39:30Z</time>
      </trkpt>
      <trkpt lat="43.70826" lon="6.97263">
        <ele>681</ele>
        <time>2014-08-31T07:39:34Z</time>
      </trkpt>
      <trkpt lat="43.70831" lon="6.97254">
        <ele>682</ele>
        <time>2014-08-31T07:39:39Z</time>
      </trkpt>
      <trkpt lat="43.70838" lon="6.97246">
        <ele>685</ele>
        <time>2014-08-31T07:39:44Z</time>
      </trkpt>
      <trkpt lat="43.70845" lon="6.97237">
        <ele>684</ele>
        <time>2014-08-31T07:39:49Z</time>
      </trkpt>
      <trkpt lat="43.70853" lon="6.97229">
        <ele>687</ele>
        <time>2014-08-31T07:39:54Z</time>
      </trkpt>
      <trkpt lat="43.7086" lon="6.97222">
        <ele>689</ele>
        <time>2014-08-31T07:39:59Z</time>
      </trkpt>
      <trkpt lat="43.70868" lon="6.97214">
        <ele>690</ele>
        <time>2014-08-31T07:40:04Z</time>
      </trkpt>
      <trkpt lat="43.70875" lon="6.97206">
        <ele>688</ele>
        <time>2014-08-31T07:40:10Z</time>
      </trkpt>
      <trkpt lat="43.70882" lon="6.97196">
        <ele>689</ele>
        <time>2014-08-31T07:40:14Z</time>
      </trkpt>
      <trkpt lat="43.70886" lon="6.97185">
        <ele>688</ele>
        <time>2014-08-31T07:40:19Z</time>
      </trkpt>
      <trkpt lat="43.7089" lon="6.97173">
        <ele>690</ele>
        <time>2014-08-31T07:40:24Z</time>
      </trkpt>
      <trkpt lat="43.70894" lon="6.97161">
        <ele>691</ele>
        <time>2014-08-31T07:40:30Z</time>
      </trkpt>
      <trkpt lat="43.70898" lon="6.97148">
        <ele>692</ele>
        <time>2014-08-31T07:40:35Z</time>
      </trkpt>
      <trkpt lat="43.70901" lon="6.97135">
        <ele>694</ele>
        <time>2014-08-31T07:40:39Z</time>
      </trkpt>
      <trkpt lat="43.70907" lon="6.97124">
        <ele>695</ele>
        <time>2014-08-31T07:40:44Z</time>
      </trkpt>
      <trkpt lat="43.70911" lon="6.97114">
        <ele>696</ele>
        <time>2014-08-31T07:40:49Z</time>
      </trkpt>
      <trkpt lat="43.70915" lon="6.97104">
        <ele>698</ele>
        <time>2014-08-31T07:40:54Z</time>
      </trkpt>
      <trkpt lat="43.70919" lon="6.97094">
        <ele>698</ele>
        <time>2014-08-31T07:40:59Z</time>
      </trkpt>
      <trkpt lat="43.70923" lon="6.97084">
        <ele>698</ele>
        <time>2014-08-31T07:41:04Z</time>
      </trkpt>
      <trkpt lat="43.70926" lon="6.97072">
        <ele>698</ele>
        <time>2014-08-31T07:41:10Z</time>
      </trkpt>
      <trkpt lat="43.70928" lon="6.97064">
        <ele>700</ele>
        <time>2014-08-31T07:41:14Z</time>
      </trkpt>
      <trkpt lat="43.70933" lon="6.97055">
        <ele>701</ele>
        <time>2014-08-31T07:41:19Z</time>
      </trkpt>
      <trkpt lat="43.70938" lon="6.97046">
        <ele>702</ele>
        <time>2014-08-31T07:41:24Z</time>
      </trkpt>
      <trkpt lat="43.70945" lon="6.97032">
        <ele>703</ele>
        <time>2014-08-31T07:41:32Z</time>
      </trkpt>
      <trkpt lat="43.70947" lon="6.97029">
        <ele>703</ele>
        <time>2014-08-31T07:41:34Z</time>
      </trkpt>
      <trkpt lat="43.70951" lon="6.97019">
        <ele>704</ele>
        <time>2014-08-31T07:41:40Z</time>
      </trkpt>
      <trkpt lat="43.70954" lon="6.97007">
        <ele>705</ele>
        <time>2014-08-31T07:41:44Z</time>
      </trkpt>
      <trkpt lat="43.70956" lon="6.96995">
        <ele>706</ele>
        <time>2014-08-31T07:41:49Z</time>
      </trkpt>
      <trkpt lat="43.70958" lon="6.96984">
        <ele>707</ele>
        <time>2014-08-31T07:41:55Z</time>
      </trkpt>
      <trkpt lat="43.70959" lon="6.96972">
        <ele>707</ele>
        <time>2014-08-31T07:42:00Z</time>
      </trkpt>
      <trkpt lat="43.7096" lon="6.96959">
        <ele>707</ele>
        <time>2014-08-31T07:42:05Z</time>
      </trkpt>
      <trkpt lat="43.70961" lon="6.96948">
        <ele>708</ele>
        <time>2014-08-31T07:42:09Z</time>
      </trkpt>
      <trkpt lat="43.70962" lon="6.96935">
        <ele>708</ele>
        <time>2014-08-31T07:42:14Z</time>
      </trkpt>
      <trkpt lat="43.70964" lon="6.96923">
        <ele>709</ele>
        <time>2014-08-31T07:42:20Z</time>
      </trkpt>
      <trkpt lat="43.70968" lon="6.96911">
        <ele>710</ele>
        <time>2014-08-31T07:42:25Z</time>
      </trkpt>
      <trkpt lat="43.70977" lon="6.96902">
        <ele>710</ele>
        <time>2014-08-31T07:42:29Z</time>
      </trkpt>
      <trkpt lat="43.70986" lon="6.96909">
        <ele>711</ele>
        <time>2014-08-31T07:42:34Z</time>
      </trkpt>
      <trkpt lat="43.70991" lon="6.96922">
        <ele>713</ele>
        <time>2014-08-31T07:42:39Z</time>
      </trkpt>
      <trkpt lat="43.70996" lon="6.96934">
        <ele>715</ele>
        <time>2014-08-31T07:42:45Z</time>
      </trkpt>
      <trkpt lat="43.71002" lon="6.96948">
        <ele>715</ele>
        <time>2014-08-31T07:42:49Z</time>
      </trkpt>
      <trkpt lat="43.71008" lon="6.96961">
        <ele>716</ele>
        <time>2014-08-31T07:42:55Z</time>
      </trkpt>
      <trkpt lat="43.71014" lon="6.96974">
        <ele>716</ele>
        <time>2014-08-31T07:42:59Z</time>
      </trkpt>
      <trkpt lat="43.71023" lon="6.96983">
        <ele>718</ele>
        <time>2014-08-31T07:43:04Z</time>
      </trkpt>
      <trkpt lat="43.71034" lon="6.96987">
        <ele>718</ele>
        <time>2014-08-31T07:43:09Z</time>
      </trkpt>
      <trkpt lat="43.71044" lon="6.9699">
        <ele>719</ele>
        <time>2014-08-31T07:43:14Z</time>
      </trkpt>
      <trkpt lat="43.71055" lon="6.96992">
        <ele>718</ele>
        <time>2014-08-31T07:43:19Z</time>
      </trkpt>
      <trkpt lat="43.71065" lon="6.96997">
        <ele>719</ele>
        <time>2014-08-31T07:43:24Z</time>
      </trkpt>
      <trkpt lat="43.71076" lon="6.97002">
        <ele>720</ele>
        <time>2014-08-31T07:43:29Z</time>
      </trkpt>
      <trkpt lat="43.71086" lon="6.97007">
        <ele>720</ele>
        <time>2014-08-31T07:43:34Z</time>
      </trkpt>
      <trkpt lat="43.71096" lon="6.97011">
        <ele>722</ele>
        <time>2014-08-31T07:43:39Z</time>
      </trkpt>
      <trkpt lat="43.71106" lon="6.97014">
        <ele>723</ele>
        <time>2014-08-31T07:43:45Z</time>
      </trkpt>
      <trkpt lat="43.71117" lon="6.97017">
        <ele>723</ele>
        <time>2014-08-31T07:43:49Z</time>
      </trkpt>
      <trkpt lat="43.71127" lon="6.97019">
        <ele>723</ele>
        <time>2014-08-31T07:43:54Z</time>
      </trkpt>
      <trkpt lat="43.71138" lon="6.97022">
        <ele>723</ele>
        <time>2014-08-31T07:43:59Z</time>
      </trkpt>
      <trkpt lat="43.71148" lon="6.97024">
        <ele>723</ele>
        <time>2014-08-31T07:44:04Z</time>
      </trkpt>
      <trkpt lat="43.71158" lon="6.97026">
        <ele>723</ele>
        <time>2014-08-31T07:44:09Z</time>
      </trkpt>
      <trkpt lat="43.71173" lon="6.97032">
        <ele>722</ele>
        <time>2014-08-31T07:44:16Z</time>
      </trkpt>
      <trkpt lat="43.71179" lon="6.97033">
        <ele>720</ele>
        <time>2014-08-31T07:44:19Z</time>
      </trkpt>
      <trkpt lat="43.71191" lon="6.97036">
        <ele>725</ele>
        <time>2014-08-31T07:44:25Z</time>
      </trkpt>
      <trkpt lat="43.71199" lon="6.97039">
        <ele>726</ele>
        <time>2014-08-31T07:44:29Z</time>
      </trkpt>
      <trkpt lat="43.71208" lon="6.97044">
        <ele>727</ele>
        <time>2014-08-31T07:44:34Z</time>
      </trkpt>
      <trkpt lat="43.71224" lon="6.97048">
        <ele>731</ele>
        <time>2014-08-31T07:44:42Z</time>
      </trkpt>
      <trkpt lat="43.71228" lon="6.97048">
        <ele>732</ele>
        <time>2014-08-31T07:44:44Z</time>
      </trkpt>
      <trkpt lat="43.71238" lon="6.97047">
        <ele>732</ele>
        <time>2014-08-31T07:44:49Z</time>
      </trkpt>
      <trkpt lat="43.71249" lon="6.97048">
        <ele>732</ele>
        <time>2014-08-31T07:44:54Z</time>
      </trkpt>
      <trkpt lat="43.71259" lon="6.97049">
        <ele>736</ele>
        <time>2014-08-31T07:44:59Z</time>
      </trkpt>
      <trkpt lat="43.71269" lon="6.97052">
        <ele>738</ele>
        <time>2014-08-31T07:45:04Z</time>
      </trkpt>
      <trkpt lat="43.71278" lon="6.97057">
        <ele>738</ele>
        <time>2014-08-31T07:45:09Z</time>
      </trkpt>
      <trkpt lat="43.71288" lon="6.97061">
        <ele>736</ele>
        <time>2014-08-31T07:45:14Z</time>
      </trkpt>
      <trkpt lat="43.71304" lon="6.97068">
        <ele>733</ele>
        <time>2014-08-31T07:45:22Z</time>
      </trkpt>
      <trkpt lat="43.71307" lon="6.97071">
        <ele>734</ele>
        <time>2014-08-31T07:45:24Z</time>
      </trkpt>
      <trkpt lat="43.71317" lon="6.97077">
        <ele>735</ele>
        <time>2014-08-31T07:45:29Z</time>
      </trkpt>
      <trkpt lat="43.71332" lon="6.97088">
        <ele>738</ele>
        <time>2014-08-31T07:45:37Z</time>
      </trkpt>
      <trkpt lat="43.71336" lon="6.97092">
        <ele>736</ele>
        <time>2014-08-31T07:45:39Z</time>
      </trkpt>
      <trkpt lat="43.71347" lon="6.971">
        <ele>738</ele>
        <time>2014-08-31T07:45:44Z</time>
      </trkpt>
      <trkpt lat="43.71356" lon="6.97109">
        <ele>740</ele>
        <time>2014-08-31T07:45:49Z</time>
      </trkpt>
      <trkpt lat="43.71365" lon="6.9712">
        <ele>742</ele>
        <time>2014-08-31T07:45:54Z</time>
      </trkpt>
      <trkpt lat="43.71375" lon="6.97129">
        <ele>742</ele>
        <time>2014-08-31T07:45:59Z</time>
      </trkpt>
      <trkpt lat="43.71385" lon="6.97139">
        <ele>744</ele>
        <time>2014-08-31T07:46:04Z</time>
      </trkpt>
      <trkpt lat="43.71394" lon="6.9715">
        <ele>745</ele>
        <time>2014-08-31T07:46:09Z</time>
      </trkpt>
      <trkpt lat="43.71403" lon="6.97162">
        <ele>745</ele>
        <time>2014-08-31T07:46:14Z</time>
      </trkpt>
      <trkpt lat="43.71412" lon="6.97173">
        <ele>744</ele>
        <time>2014-08-31T07:46:19Z</time>
      </trkpt>
      <trkpt lat="43.71421" lon="6.97183">
        <ele>744</ele>
        <time>2014-08-31T07:46:24Z</time>
      </trkpt>
      <trkpt lat="43.71431" lon="6.9719">
        <ele>746</ele>
        <time>2014-08-31T07:46:29Z</time>
      </trkpt>
      <trkpt lat="43.71442" lon="6.97195">
        <ele>746</ele>
        <time>2014-08-31T07:46:34Z</time>
      </trkpt>
      <trkpt lat="43.71451" lon="6.97204">
        <ele>749</ele>
        <time>2014-08-31T07:46:39Z</time>
      </trkpt>
      <trkpt lat="43.71458" lon="6.97214">
        <ele>749</ele>
        <time>2014-08-31T07:46:44Z</time>
      </trkpt>
      <trkpt lat="43.71466" lon="6.97206">
        <ele>746</ele>
        <time>2014-08-31T07:46:49Z</time>
      </trkpt>
      <trkpt lat="43.71456" lon="6.97188">
        <ele>745</ele>
        <time>2014-08-31T07:46:57Z</time>
      </trkpt>
      <trkpt lat="43.71453" lon="6.97185">
        <ele>744</ele>
        <time>2014-08-31T07:46:59Z</time>
      </trkpt>
      <trkpt lat="43.71443" lon="6.97175">
        <ele>745</ele>
        <time>2014-08-31T07:47:05Z</time>
      </trkpt>
      <trkpt lat="43.71437" lon="6.97168">
        <ele>746</ele>
        <time>2014-08-31T07:47:09Z</time>
      </trkpt>
      <trkpt lat="43.7143" lon="6.97156">
        <ele>747</ele>
        <time>2014-08-31T07:47:14Z</time>
      </trkpt>
      <trkpt lat="43.71422" lon="6.97134">
        <ele>747</ele>
        <time>2014-08-31T07:47:22Z</time>
      </trkpt>
      <trkpt lat="43.71418" lon="6.97125">
        <ele>747</ele>
        <time>2014-08-31T07:47:25Z</time>
      </trkpt>
      <trkpt lat="43.71413" lon="6.97114">
        <ele>748</ele>
        <time>2014-08-31T07:47:29Z</time>
      </trkpt>
      <trkpt lat="43.71401" lon="6.97096">
        <ele>748</ele>
        <time>2014-08-31T07:47:37Z</time>
      </trkpt>
      <trkpt lat="43.71397" lon="6.97091">
        <ele>748</ele>
        <time>2014-08-31T07:47:39Z</time>
      </trkpt>
      <trkpt lat="43.7139" lon="6.9708">
        <ele>749</ele>
        <time>2014-08-31T07:47:44Z</time>
      </trkpt>
      <trkpt lat="43.71381" lon="6.9707">
        <ele>750</ele>
        <time>2014-08-31T07:47:49Z</time>
      </trkpt>
      <trkpt lat="43.71373" lon="6.9706">
        <ele>750</ele>
        <time>2014-08-31T07:47:54Z</time>
      </trkpt>
      <trkpt lat="43.71366" lon="6.97048">
        <ele>750</ele>
        <time>2014-08-31T07:47:59Z</time>
      </trkpt>
      <trkpt lat="43.71359" lon="6.97036">
        <ele>751</ele>
        <time>2014-08-31T07:48:04Z</time>
      </trkpt>
      <trkpt lat="43.71352" lon="6.97022">
        <ele>751</ele>
        <time>2014-08-31T07:48:09Z</time>
      </trkpt>
      <trkpt lat="43.71344" lon="6.97009">
        <ele>751</ele>
        <time>2014-08-31T07:48:14Z</time>
      </trkpt>
      <trkpt lat="43.71337" lon="6.96996">
        <ele>751</ele>
        <time>2014-08-31T07:48:19Z</time>
      </trkpt>
      <trkpt lat="43.71329" lon="6.96985">
        <ele>751</ele>
        <time>2014-08-31T07:48:24Z</time>
      </trkpt>
      <trkpt lat="43.71321" lon="6.96974">
        <ele>753</ele>
        <time>2014-08-31T07:48:29Z</time>
      </trkpt>
      <trkpt lat="43.71315" lon="6.96963">
        <ele>755</ele>
        <time>2014-08-31T07:48:34Z</time>
      </trkpt>
      <trkpt lat="43.7131" lon="6.96947">
        <ele>755</ele>
        <time>2014-08-31T07:48:40Z</time>
      </trkpt>
      <trkpt lat="43.71306" lon="6.96936">
        <ele>758</ele>
        <time>2014-08-31T07:48:45Z</time>
      </trkpt>
      <trkpt lat="43.71303" lon="6.96922">
        <ele>759</ele>
        <time>2014-08-31T07:48:49Z</time>
      </trkpt>
      <trkpt lat="43.71299" lon="6.96907">
        <ele>759</ele>
        <time>2014-08-31T07:48:54Z</time>
      </trkpt>
      <trkpt lat="43.71297" lon="6.96893">
        <ele>761</ele>
        <time>2014-08-31T07:48:59Z</time>
      </trkpt>
      <trkpt lat="43.71293" lon="6.96876">
        <ele>761</ele>
        <time>2014-08-31T07:49:05Z</time>
      </trkpt>
      <trkpt lat="43.71291" lon="6.96865">
        <ele>763</ele>
        <time>2014-08-31T07:49:09Z</time>
      </trkpt>
      <trkpt lat="43.71288" lon="6.96851">
        <ele>764</ele>
        <time>2014-08-31T07:49:14Z</time>
      </trkpt>
      <trkpt lat="43.71284" lon="6.96837">
        <ele>765</ele>
        <time>2014-08-31T07:49:19Z</time>
      </trkpt>
      <trkpt lat="43.71279" lon="6.9682">
        <ele>764</ele>
        <time>2014-08-31T07:49:25Z</time>
      </trkpt>
      <trkpt lat="43.71274" lon="6.96801">
        <ele>765</ele>
        <time>2014-08-31T07:49:32Z</time>
      </trkpt>
      <trkpt lat="43.71272" lon="6.96796">
        <ele>767</ele>
        <time>2014-08-31T07:49:34Z</time>
      </trkpt>
      <trkpt lat="43.71267" lon="6.96783">
        <ele>769</ele>
        <time>2014-08-31T07:49:39Z</time>
      </trkpt>
      <trkpt lat="43.71262" lon="6.9677">
        <ele>770</ele>
        <time>2014-08-31T07:49:44Z</time>
      </trkpt>
      <trkpt lat="43.71255" lon="6.9675">
        <ele>771</ele>
        <time>2014-08-31T07:49:51Z</time>
      </trkpt>
      <trkpt lat="43.7125" lon="6.96739">
        <ele>771</ele>
        <time>2014-08-31T07:49:55Z</time>
      </trkpt>
      <trkpt lat="43.71244" lon="6.96727">
        <ele>770</ele>
        <time>2014-08-31T07:49:59Z</time>
      </trkpt>
      <trkpt lat="43.71237" lon="6.96714">
        <ele>769</ele>
        <time>2014-08-31T07:50:04Z</time>
      </trkpt>
      <trkpt lat="43.71231" lon="6.967">
        <ele>771</ele>
        <time>2014-08-31T07:50:09Z</time>
      </trkpt>
      <trkpt lat="43.71228" lon="6.96685">
        <ele>772</ele>
        <time>2014-08-31T07:50:14Z</time>
      </trkpt>
      <trkpt lat="43.71227" lon="6.96664">
        <ele>774</ele>
        <time>2014-08-31T07:50:21Z</time>
      </trkpt>
      <trkpt lat="43.71227" lon="6.96645">
        <ele>774</ele>
        <time>2014-08-31T07:50:27Z</time>
      </trkpt>
      <trkpt lat="43.71227" lon="6.96639">
        <ele>775</ele>
        <time>2014-08-31T07:50:29Z</time>
      </trkpt>
      <trkpt lat="43.71226" lon="6.96623">
        <ele>775</ele>
        <time>2014-08-31T07:50:34Z</time>
      </trkpt>
      <trkpt lat="43.71226" lon="6.96607">
        <ele>775</ele>
        <time>2014-08-31T07:50:39Z</time>
      </trkpt>
      <trkpt lat="43.71224" lon="6.96587">
        <ele>775</ele>
        <time>2014-08-31T07:50:46Z</time>
      </trkpt>
      <trkpt lat="43.71224" lon="6.96579">
        <ele>775</ele>
        <time>2014-08-31T07:50:49Z</time>
      </trkpt>
      <trkpt lat="43.71222" lon="6.96565">
        <ele>775</ele>
        <time>2014-08-31T07:50:55Z</time>
      </trkpt>
      <trkpt lat="43.71221" lon="6.96551">
        <ele>775</ele>
        <time>2014-08-31T07:51:00Z</time>
      </trkpt>
      <trkpt lat="43.71221" lon="6.96537">
        <ele>777</ele>
        <time>2014-08-31T07:51:04Z</time>
      </trkpt>
      <trkpt lat="43.71219" lon="6.96524">
        <ele>777</ele>
        <time>2014-08-31T07:51:09Z</time>
      </trkpt>
      <trkpt lat="43.71219" lon="6.9651">
        <ele>775</ele>
        <time>2014-08-31T07:51:14Z</time>
      </trkpt>
      <trkpt lat="43.71219" lon="6.96488">
        <ele>776</ele>
        <time>2014-08-31T07:51:22Z</time>
      </trkpt>
      <trkpt lat="43.71219" lon="6.96482">
        <ele>777</ele>
        <time>2014-08-31T07:51:24Z</time>
      </trkpt>
      <trkpt lat="43.71219" lon="6.96468">
        <ele>778</ele>
        <time>2014-08-31T07:51:29Z</time>
      </trkpt>
      <trkpt lat="43.71217" lon="6.96455">
        <ele>779</ele>
        <time>2014-08-31T07:51:34Z</time>
      </trkpt>
      <trkpt lat="43.71212" lon="6.96441">
        <ele>779</ele>
        <time>2014-08-31T07:51:39Z</time>
      </trkpt>
      <trkpt lat="43.71204" lon="6.96426">
        <ele>779</ele>
        <time>2014-08-31T07:51:44Z</time>
      </trkpt>
      <trkpt lat="43.71194" lon="6.96412">
        <ele>780</ele>
        <time>2014-08-31T07:51:49Z</time>
      </trkpt>
      <trkpt lat="43.71186" lon="6.96398">
        <ele>780</ele>
        <time>2014-08-31T07:51:54Z</time>
      </trkpt>
      <trkpt lat="43.7118" lon="6.96383">
        <ele>781</ele>
        <time>2014-08-31T07:51:59Z</time>
      </trkpt>
      <trkpt lat="43.71174" lon="6.96368">
        <ele>781</ele>
        <time>2014-08-31T07:52:04Z</time>
      </trkpt>
      <trkpt lat="43.71169" lon="6.96353">
        <ele>782</ele>
        <time>2014-08-31T07:52:09Z</time>
      </trkpt>
      <trkpt lat="43.71166" lon="6.96338">
        <ele>782</ele>
        <time>2014-08-31T07:52:14Z</time>
      </trkpt>
      <trkpt lat="43.71164" lon="6.96323">
        <ele>783</ele>
        <time>2014-08-31T07:52:19Z</time>
      </trkpt>
      <trkpt lat="43.71165" lon="6.96309">
        <ele>784</ele>
        <time>2014-08-31T07:52:24Z</time>
      </trkpt>
      <trkpt lat="43.71165" lon="6.96295">
        <ele>786</ele>
        <time>2014-08-31T07:52:29Z</time>
      </trkpt>
      <trkpt lat="43.71165" lon="6.96281">
        <ele>787</ele>
        <time>2014-08-31T07:52:34Z</time>
      </trkpt>
      <trkpt lat="43.71165" lon="6.9627">
        <ele>787</ele>
        <time>2014-08-31T07:52:39Z</time>
      </trkpt>
      <trkpt lat="43.71171" lon="6.96265">
        <ele>788</ele>
        <time>2014-08-31T07:52:44Z</time>
      </trkpt>
      <trkpt lat="43.71178" lon="6.96274">
        <ele>789</ele>
        <time>2014-08-31T07:52:49Z</time>
      </trkpt>
      <trkpt lat="43.71187" lon="6.96284">
        <ele>790</ele>
        <time>2014-08-31T07:52:54Z</time>
      </trkpt>
      <trkpt lat="43.71197" lon="6.96291">
        <ele>791</ele>
        <time>2014-08-31T07:52:59Z</time>
      </trkpt>
      <trkpt lat="43.71207" lon="6.96293">
        <ele>791</ele>
        <time>2014-08-31T07:53:04Z</time>
      </trkpt>
      <trkpt lat="43.71218" lon="6.96291">
        <ele>791</ele>
        <time>2014-08-31T07:53:09Z</time>
      </trkpt>
      <trkpt lat="43.71229" lon="6.96286">
        <ele>791</ele>
        <time>2014-08-31T07:53:14Z</time>
      </trkpt>
      <trkpt lat="43.7124" lon="6.96283">
        <ele>793</ele>
        <time>2014-08-31T07:53:19Z</time>
      </trkpt>
      <trkpt lat="43.71252" lon="6.96281">
        <ele>795</ele>
        <time>2014-08-31T07:53:24Z</time>
      </trkpt>
      <trkpt lat="43.71263" lon="6.96281">
        <ele>798</ele>
        <time>2014-08-31T07:53:29Z</time>
      </trkpt>
      <trkpt lat="43.71284" lon="6.96276">
        <ele>795</ele>
        <time>2014-08-31T07:53:37Z</time>
      </trkpt>
      <trkpt lat="43.7129" lon="6.96277">
        <ele>794</ele>
        <time>2014-08-31T07:53:39Z</time>
      </trkpt>
      <trkpt lat="43.71301" lon="6.96289">
        <ele>794</ele>
        <time>2014-08-31T07:53:44Z</time>
      </trkpt>
      <trkpt lat="43.71312" lon="6.963">
        <ele>795</ele>
        <time>2014-08-31T07:53:49Z</time>
      </trkpt>
      <trkpt lat="43.71326" lon="6.96309">
        <ele>795</ele>
        <time>2014-08-31T07:53:54Z</time>
      </trkpt>
      <trkpt lat="43.7134" lon="6.96313">
        <ele>794</ele>
        <time>2014-08-31T07:53:59Z</time>
      </trkpt>
      <trkpt lat="43.71354" lon="6.9632">
        <ele>794</ele>
        <time>2014-08-31T07:54:04Z</time>
      </trkpt>
      <trkpt lat="43.71368" lon="6.96332">
        <ele>793</ele>
        <time>2014-08-31T07:54:09Z</time>
      </trkpt>
      <trkpt lat="43.71381" lon="6.96352">
        <ele>793</ele>
        <time>2014-08-31T07:54:14Z</time>
      </trkpt>
      <trkpt lat="43.71394" lon="6.96372">
        <ele>792</ele>
        <time>2014-08-31T07:54:19Z</time>
      </trkpt>
      <trkpt lat="43.71404" lon="6.96391">
        <ele>795</ele>
        <time>2014-08-31T07:54:24Z</time>
      </trkpt>
      <trkpt lat="43.71416" lon="6.96413">
        <ele>795</ele>
        <time>2014-08-31T07:54:30Z</time>
      </trkpt>
      <trkpt lat="43.71424" lon="6.96427">
        <ele>795</ele>
        <time>2014-08-31T07:54:34Z</time>
      </trkpt>
      <trkpt lat="43.71432" lon="6.96449">
        <ele>794</ele>
        <time>2014-08-31T07:54:39Z</time>
      </trkpt>
      <trkpt lat="43.71432" lon="6.96474">
        <ele>793</ele>
        <time>2014-08-31T07:54:44Z</time>
      </trkpt>
      <trkpt lat="43.71428" lon="6.96499">
        <ele>794</ele>
        <time>2014-08-31T07:54:49Z</time>
      </trkpt>
      <trkpt lat="43.71427" lon="6.96522">
        <ele>793</ele>
        <time>2014-08-31T07:54:54Z</time>
      </trkpt>
      <trkpt lat="43.71431" lon="6.96546">
        <ele>793</ele>
        <time>2014-08-31T07:54:59Z</time>
      </trkpt>
      <trkpt lat="43.71438" lon="6.9657">
        <ele>793</ele>
        <time>2014-08-31T07:55:04Z</time>
      </trkpt>
      <trkpt lat="43.71445" lon="6.96594">
        <ele>793</ele>
        <time>2014-08-31T07:55:09Z</time>
      </trkpt>
      <trkpt lat="43.71446" lon="6.96618">
        <ele>794</ele>
        <time>2014-08-31T07:55:14Z</time>
      </trkpt>
      <trkpt lat="43.71446" lon="6.96643">
        <ele>794</ele>
        <time>2014-08-31T07:55:19Z</time>
      </trkpt>
      <trkpt lat="43.7145" lon="6.9667">
        <ele>794</ele>
        <time>2014-08-31T07:55:24Z</time>
      </trkpt>
      <trkpt lat="43.71459" lon="6.96692">
        <ele>793</ele>
        <time>2014-08-31T07:55:29Z</time>
      </trkpt>
      <trkpt lat="43.71471" lon="6.96714">
        <ele>792</ele>
        <time>2014-08-31T07:55:34Z</time>
      </trkpt>
      <trkpt lat="43.7148" lon="6.96734">
        <ele>791</ele>
        <time>2014-08-31T07:55:39Z</time>
      </trkpt>
      <trkpt lat="43.71492" lon="6.96751">
        <ele>790</ele>
        <time>2014-08-31T07:55:44Z</time>
      </trkpt>
      <trkpt lat="43.71505" lon="6.96757">
        <ele>791</ele>
        <time>2014-08-31T07:55:49Z</time>
      </trkpt>
      <trkpt lat="43.71522" lon="6.96757">
        <ele>789</ele>
        <time>2014-08-31T07:55:54Z</time>
      </trkpt>
      <trkpt lat="43.71541" lon="6.96751">
        <ele>788</ele>
        <time>2014-08-31T07:55:59Z</time>
      </trkpt>
      <trkpt lat="43.71565" lon="6.96731">
        <ele>785</ele>
        <time>2014-08-31T07:56:04Z</time>
      </trkpt>
      <trkpt lat="43.71583" lon="6.96689">
        <ele>781</ele>
        <time>2014-08-31T07:56:09Z</time>
      </trkpt>
      <trkpt lat="43.71605" lon="6.9664">
        <ele>778</ele>
        <time>2014-08-31T07:56:14Z</time>
      </trkpt>
      <trkpt lat="43.71625" lon="6.96598">
        <ele>779</ele>
        <time>2014-08-31T07:56:19Z</time>
      </trkpt>
      <trkpt lat="43.71644" lon="6.96564">
        <ele>778</ele>
        <time>2014-08-31T07:56:24Z</time>
      </trkpt>
      <trkpt lat="43.7166" lon="6.96544">
        <ele>779</ele>
        <time>2014-08-31T07:56:29Z</time>
      </trkpt>
      <trkpt lat="43.71675" lon="6.96534">
        <ele>781</ele>
        <time>2014-08-31T07:56:34Z</time>
      </trkpt>
      <trkpt lat="43.71689" lon="6.96522">
        <ele>781</ele>
        <time>2014-08-31T07:56:39Z</time>
      </trkpt>
      <trkpt lat="43.71699" lon="6.96507">
        <ele>782</ele>
        <time>2014-08-31T07:56:44Z</time>
      </trkpt>
      <trkpt lat="43.71705" lon="6.96491">
        <ele>781</ele>
        <time>2014-08-31T07:56:49Z</time>
      </trkpt>
      <trkpt lat="43.71713" lon="6.9647">
        <ele>782</ele>
        <time>2014-08-31T07:56:55Z</time>
      </trkpt>
      <trkpt lat="43.71722" lon="6.96458">
        <ele>781</ele>
        <time>2014-08-31T07:56:59Z</time>
      </trkpt>
      <trkpt lat="43.71737" lon="6.96445">
        <ele>780</ele>
        <time>2014-08-31T07:57:04Z</time>
      </trkpt>
      <trkpt lat="43.71755" lon="6.96428">
        <ele>778</ele>
        <time>2014-08-31T07:57:09Z</time>
      </trkpt>
      <trkpt lat="43.71772" lon="6.96404">
        <ele>777</ele>
        <time>2014-08-31T07:57:14Z</time>
      </trkpt>
      <trkpt lat="43.71785" lon="6.9637">
        <ele>774</ele>
        <time>2014-08-31T07:57:19Z</time>
      </trkpt>
      <trkpt lat="43.71795" lon="6.96325">
        <ele>770</ele>
        <time>2014-08-31T07:57:24Z</time>
      </trkpt>
      <trkpt lat="43.71804" lon="6.96278">
        <ele>768</ele>
        <time>2014-08-31T07:57:29Z</time>
      </trkpt>
      <trkpt lat="43.71818" lon="6.96244">
        <ele>769</ele>
        <time>2014-08-31T07:57:34Z</time>
      </trkpt>
      <trkpt lat="43.71833" lon="6.96228">
        <ele>769</ele>
        <time>2014-08-31T07:57:39Z</time>
      </trkpt>
      <trkpt lat="43.71846" lon="6.96205">
        <ele>770</ele>
        <time>2014-08-31T07:57:44Z</time>
      </trkpt>
      <trkpt lat="43.7186" lon="6.9619">
        <ele>768</ele>
        <time>2014-08-31T07:57:49Z</time>
      </trkpt>
      <trkpt lat="43.71877" lon="6.96184">
        <ele>767</ele>
        <time>2014-08-31T07:57:54Z</time>
      </trkpt>
      <trkpt lat="43.71898" lon="6.9618">
        <ele>766</ele>
        <time>2014-08-31T07:57:59Z</time>
      </trkpt>
      <trkpt lat="43.71926" lon="6.96175">
        <ele>763</ele>
        <time>2014-08-31T07:58:05Z</time>
      </trkpt>
      <trkpt lat="43.71941" lon="6.96172">
        <ele>763</ele>
        <time>2014-08-31T07:58:09Z</time>
      </trkpt>
      <trkpt lat="43.7196" lon="6.96174">
        <ele>767</ele>
        <time>2014-08-31T07:58:14Z</time>
      </trkpt>
      <trkpt lat="43.71977" lon="6.96187">
        <ele>770</ele>
        <time>2014-08-31T07:58:19Z</time>
      </trkpt>
      <trkpt lat="43.71995" lon="6.96196">
        <ele>771</ele>
        <time>2014-08-31T07:58:24Z</time>
      </trkpt>
      <trkpt lat="43.72006" lon="6.96206">
        <ele>769</ele>
        <time>2014-08-31T07:58:29Z</time>
      </trkpt>
      <trkpt lat="43.72007" lon="6.9622">
        <ele>768</ele>
        <time>2014-08-31T07:58:34Z</time>
      </trkpt>
      <trkpt lat="43.72011" lon="6.96239">
        <ele>770</ele>
        <time>2014-08-31T07:58:43Z</time>
      </trkpt>
      <trkpt lat="43.72011" lon="6.96239">
        <ele>771</ele>
        <time>2014-08-31T07:58:44Z</time>
      </trkpt>
      <trkpt lat="43.72011" lon="6.96239">
        <ele>769</ele>
        <time>2014-08-31T07:58:49Z</time>
      </trkpt>
      <trkpt lat="43.72011" lon="6.96239">
        <ele>768</ele>
        <time>2014-08-31T07:58:54Z</time>
      </trkpt>
      <trkpt lat="43.72011" lon="6.96238">
        <ele>768</ele>
        <time>2014-08-31T07:58:59Z</time>
      </trkpt>
      <trkpt lat="43.72011" lon="6.96238">
        <ele>768</ele>
        <time>2014-08-31T07:59:04Z</time>
      </trkpt>
      <trkpt lat="43.72011" lon="6.96238">
        <ele>768</ele>
        <time>2014-08-31T07:59:09Z</time>
      </trkpt>
      <trkpt lat="43.72011" lon="6.96238">
        <ele>768</ele>
        <time>2014-08-31T07:59:14Z</time>
      </trkpt>
      <trkpt lat="43.72011" lon="6.96238">
        <ele>768</ele>
        <time>2014-08-31T07:59:19Z</time>
      </trkpt>
      <trkpt lat="43.72011" lon="6.96238">
        <ele>768</ele>
        <time>2014-08-31T07:59:25Z</time>
      </trkpt>
      <trkpt lat="43.72011" lon="6.96238">
        <ele>768</ele>
        <time>2014-08-31T07:59:29Z</time>
      </trkpt>
      <trkpt lat="43.72011" lon="6.96238">
        <ele>768</ele>
        <time>2014-08-31T07:59:34Z</time>
      </trkpt>
      <trkpt lat="43.72011" lon="6.96238">
        <ele>768</ele>
        <time>2014-08-31T07:59:39Z</time>
      </trkpt>
      <trkpt lat="43.72011" lon="6.96238">
        <ele>768</ele>
        <time>2014-08-31T07:59:46Z</time>
      </trkpt>
      <trkpt lat="43.72011" lon="6.96238">
        <ele>767</ele>
        <time>2014-08-31T07:59:49Z</time>
      </trkpt>
      <trkpt lat="43.72011" lon="6.96237">
        <ele>766</ele>
        <time>2014-08-31T07:59:54Z</time>
      </trkpt>
      <trkpt lat="43.72011" lon="6.96237">
        <ele>766</ele>
        <time>2014-08-31T07:59:59Z</time>
      </trkpt>
      <trkpt lat="43.72012" lon="6.96243">
        <ele>766</ele>
        <time>2014-08-31T08:00:05Z</time>
      </trkpt>
      <trkpt lat="43.72015" lon="6.96263">
        <ele>764</ele>
        <time>2014-08-31T08:00:09Z</time>
      </trkpt>
      <trkpt lat="43.72027" lon="6.96293">
        <ele>762</ele>
        <time>2014-08-31T08:00:14Z</time>
      </trkpt>
      <trkpt lat="43.72029" lon="6.96331">
        <ele>760</ele>
        <time>2014-08-31T08:00:19Z</time>
      </trkpt>
      <trkpt lat="43.72041" lon="6.9638">
        <ele>757</ele>
        <time>2014-08-31T08:00:24Z</time>
      </trkpt>
      <trkpt lat="43.72054" lon="6.96426">
        <ele>757</ele>
        <time>2014-08-31T08:00:29Z</time>
      </trkpt>
      <trkpt lat="43.72057" lon="6.96463">
        <ele>757</ele>
        <time>2014-08-31T08:00:34Z</time>
      </trkpt>
      <trkpt lat="43.72058" lon="6.9649">
        <ele>758</ele>
        <time>2014-08-31T08:00:39Z</time>
      </trkpt>
      <trkpt lat="43.72061" lon="6.96511">
        <ele>759</ele>
        <time>2014-08-31T08:00:44Z</time>
      </trkpt>
      <trkpt lat="43.72066" lon="6.96533">
        <ele>762</ele>
        <time>2014-08-31T08:00:49Z</time>
      </trkpt>
      <trkpt lat="43.72075" lon="6.96554">
        <ele>764</ele>
        <time>2014-08-31T08:00:54Z</time>
      </trkpt>
      <trkpt lat="43.72086" lon="6.96557">
        <ele>764</ele>
        <time>2014-08-31T08:00:59Z</time>
      </trkpt>
      <trkpt lat="43.72097" lon="6.96552">
        <ele>764</ele>
        <time>2014-08-31T08:01:04Z</time>
      </trkpt>
      <trkpt lat="43.72108" lon="6.96546">
        <ele>764</ele>
        <time>2014-08-31T08:01:09Z</time>
      </trkpt>
      <trkpt lat="43.7212" lon="6.96543">
        <ele>765</ele>
        <time>2014-08-31T08:01:14Z</time>
      </trkpt>
      <trkpt lat="43.72133" lon="6.96535">
        <ele>764</ele>
        <time>2014-08-31T08:01:19Z</time>
      </trkpt>
      <trkpt lat="43.72146" lon="6.96523">
        <ele>764</ele>
        <time>2014-08-31T08:01:25Z</time>
      </trkpt>
      <trkpt lat="43.72165" lon="6.96506">
        <ele>763</ele>
        <time>2014-08-31T08:01:30Z</time>
      </trkpt>
      <trkpt lat="43.72186" lon="6.96491">
        <ele>762</ele>
        <time>2014-08-31T08:01:35Z</time>
      </trkpt>
      <trkpt lat="43.72199" lon="6.96494">
        <ele>762</ele>
        <time>2014-08-31T08:01:39Z</time>
      </trkpt>
      <trkpt lat="43.72208" lon="6.96491">
        <ele>762</ele>
        <time>2014-08-31T08:01:44Z</time>
      </trkpt>
      <trkpt lat="43.72207" lon="6.96481">
        <ele>762</ele>
        <time>2014-08-31T08:01:50Z</time>
      </trkpt>
      <trkpt lat="43.72212" lon="6.96476">
        <ele>762</ele>
        <time>2014-08-31T08:01:55Z</time>
      </trkpt>
      <trkpt lat="43.72209" lon="6.96475">
        <ele>763</ele>
        <time>2014-08-31T08:01:59Z</time>
      </trkpt>
      <trkpt lat="43.72207" lon="6.96484">
        <ele>762</ele>
        <time>2014-08-31T08:02:04Z</time>
      </trkpt>
      <trkpt lat="43.7221" lon="6.96501">
        <ele>762</ele>
        <time>2014-08-31T08:02:09Z</time>
      </trkpt>
      <trkpt lat="43.72216" lon="6.96522">
        <ele>762</ele>
        <time>2014-08-31T08:02:14Z</time>
      </trkpt>
      <trkpt lat="43.72221" lon="6.96543">
        <ele>764</ele>
        <time>2014-08-31T08:02:19Z</time>
      </trkpt>
      <trkpt lat="43.72227" lon="6.96561">
        <ele>765</ele>
        <time>2014-08-31T08:02:24Z</time>
      </trkpt>
      <trkpt lat="43.72231" lon="6.96577">
        <ele>767</ele>
        <time>2014-08-31T08:02:29Z</time>
      </trkpt>
      <trkpt lat="43.72234" lon="6.96592">
        <ele>767</ele>
        <time>2014-08-31T08:02:34Z</time>
      </trkpt>
      <trkpt lat="43.72235" lon="6.96607">
        <ele>769</ele>
        <time>2014-08-31T08:02:39Z</time>
      </trkpt>
      <trkpt lat="43.72234" lon="6.96618">
        <ele>768</ele>
        <time>2014-08-31T08:02:45Z</time>
      </trkpt>
      <trkpt lat="43.72232" lon="6.96626">
        <ele>769</ele>
        <time>2014-08-31T08:02:49Z</time>
      </trkpt>
      <trkpt lat="43.72228" lon="6.96636">
        <ele>770</ele>
        <time>2014-08-31T08:02:54Z</time>
      </trkpt>
      <trkpt lat="43.72225" lon="6.96648">
        <ele>770</ele>
        <time>2014-08-31T08:02:59Z</time>
      </trkpt>
      <trkpt lat="43.72225" lon="6.9666">
        <ele>772</ele>
        <time>2014-08-31T08:03:04Z</time>
      </trkpt>
      <trkpt lat="43.72226" lon="6.96673">
        <ele>772</ele>
        <time>2014-08-31T08:03:09Z</time>
      </trkpt>
      <trkpt lat="43.72229" lon="6.96685">
        <ele>773</ele>
        <time>2014-08-31T08:03:14Z</time>
      </trkpt>
      <trkpt lat="43.72232" lon="6.96699">
        <ele>772</ele>
        <time>2014-08-31T08:03:19Z</time>
      </trkpt>
      <trkpt lat="43.72236" lon="6.96713">
        <ele>771</ele>
        <time>2014-08-31T08:03:24Z</time>
      </trkpt>
      <trkpt lat="43.72239" lon="6.96729">
        <ele>771</ele>
        <time>2014-08-31T08:03:29Z</time>
      </trkpt>
      <trkpt lat="43.72241" lon="6.96744">
        <ele>771</ele>
        <time>2014-08-31T08:03:34Z</time>
      </trkpt>
      <trkpt lat="43.72243" lon="6.9676">
        <ele>772</ele>
        <time>2014-08-31T08:03:39Z</time>
      </trkpt>
      <trkpt lat="43.72246" lon="6.96773">
        <ele>773</ele>
        <time>2014-08-31T08:03:44Z</time>
      </trkpt>
      <trkpt lat="43.72246" lon="6.96776">
        <ele>773</ele>
        <time>2014-08-31T08:03:49Z</time>
      </trkpt>
      <trkpt lat="43.72247" lon="6.96777">
        <ele>773</ele>
        <time>2014-08-31T08:03:54Z</time>
      </trkpt>
      <trkpt lat="43.72249" lon="6.96785">
        <ele>773</ele>
        <time>2014-08-31T08:03:59Z</time>
      </trkpt>
      <trkpt lat="43.72251" lon="6.96777">
        <ele>773</ele>
        <time>2014-08-31T08:04:04Z</time>
      </trkpt>
      <trkpt lat="43.7225" lon="6.96763">
        <ele>774</ele>
        <time>2014-08-31T08:04:09Z</time>
      </trkpt>
      <trkpt lat="43.72251" lon="6.96749">
        <ele>777</ele>
        <time>2014-08-31T08:04:14Z</time>
      </trkpt>
      <trkpt lat="43.72252" lon="6.96736">
        <ele>777</ele>
        <time>2014-08-31T08:04:19Z</time>
      </trkpt>
      <trkpt lat="43.72254" lon="6.96723">
        <ele>781</ele>
        <time>2014-08-31T08:04:24Z</time>
      </trkpt>
      <trkpt lat="43.72261" lon="6.96719">
        <ele>781</ele>
        <time>2014-08-31T08:04:29Z</time>
      </trkpt>
      <trkpt lat="43.72271" lon="6.96717">
        <ele>785</ele>
        <time>2014-08-31T08:04:34Z</time>
      </trkpt>
      <trkpt lat="43.7228" lon="6.96714">
        <ele>784</ele>
        <time>2014-08-31T08:04:39Z</time>
      </trkpt>
      <trkpt lat="43.72291" lon="6.9671">
        <ele>782</ele>
        <time>2014-08-31T08:04:44Z</time>
      </trkpt>
      <trkpt lat="43.72302" lon="6.96706">
        <ele>783</ele>
        <time>2014-08-31T08:04:49Z</time>
      </trkpt>
      <trkpt lat="43.72325" lon="6.96707">
        <ele>783</ele>
        <time>2014-08-31T08:04:58Z</time>
      </trkpt>
      <trkpt lat="43.72327" lon="6.96707">
        <ele>783</ele>
        <time>2014-08-31T08:04:59Z</time>
      </trkpt>
      <trkpt lat="43.72337" lon="6.96708">
        <ele>782</ele>
        <time>2014-08-31T08:05:04Z</time>
      </trkpt>
      <trkpt lat="43.72348" lon="6.96708">
        <ele>781</ele>
        <time>2014-08-31T08:05:09Z</time>
      </trkpt>
      <trkpt lat="43.72357" lon="6.96701">
        <ele>783</ele>
        <time>2014-08-31T08:05:15Z</time>
      </trkpt>
      <trkpt lat="43.7236" lon="6.96689">
        <ele>784</ele>
        <time>2014-08-31T08:05:19Z</time>
      </trkpt>
      <trkpt lat="43.72366" lon="6.96675">
        <ele>785</ele>
        <time>2014-08-31T08:05:24Z</time>
      </trkpt>
      <trkpt lat="43.72371" lon="6.96663">
        <ele>782</ele>
        <time>2014-08-31T08:05:29Z</time>
      </trkpt>
      <trkpt lat="43.72375" lon="6.96649">
        <ele>784</ele>
        <time>2014-08-31T08:05:34Z</time>
      </trkpt>
      <trkpt lat="43.72376" lon="6.96636">
        <ele>782</ele>
        <time>2014-08-31T08:05:39Z</time>
      </trkpt>
      <trkpt lat="43.72377" lon="6.96621">
        <ele>784</ele>
        <time>2014-08-31T08:05:46Z</time>
      </trkpt>
      <trkpt lat="43.72379" lon="6.96614">
        <ele>785</ele>
        <time>2014-08-31T08:05:49Z</time>
      </trkpt>
      <trkpt lat="43.72388" lon="6.96607">
        <ele>786</ele>
        <time>2014-08-31T08:05:54Z</time>
      </trkpt>
      <trkpt lat="43.72395" lon="6.96607">
        <ele>786</ele>
        <time>2014-08-31T08:05:59Z</time>
      </trkpt>
      <trkpt lat="43.72398" lon="6.96605">
        <ele>787</ele>
        <time>2014-08-31T08:06:04Z</time>
      </trkpt>
      <trkpt lat="43.72397" lon="6.96606">
        <ele>786</ele>
        <time>2014-08-31T08:06:09Z</time>
      </trkpt>
      <trkpt lat="43.724" lon="6.96604">
        <ele>786</ele>
        <time>2014-08-31T08:06:14Z</time>
      </trkpt>
      <trkpt lat="43.72403" lon="6.96605">
        <ele>789</ele>
        <time>2014-08-31T08:06:20Z</time>
      </trkpt>
      <trkpt lat="43.72409" lon="6.96606">
        <ele>790</ele>
        <time>2014-08-31T08:06:26Z</time>
      </trkpt>
      <trkpt lat="43.72412" lon="6.96607">
        <ele>790</ele>
        <time>2014-08-31T08:06:29Z</time>
      </trkpt>
      <trkpt lat="43.72416" lon="6.96609">
        <ele>790</ele>
        <time>2014-08-31T08:06:34Z</time>
      </trkpt>
      <trkpt lat="43.72416" lon="6.9661">
        <ele>790</ele>
        <time>2014-08-31T08:06:39Z</time>
      </trkpt>
      <trkpt lat="43.72419" lon="6.96614">
        <ele>792</ele>
        <time>2014-08-31T08:06:44Z</time>
      </trkpt>
      <trkpt lat="43.72423" lon="6.96622">
        <ele>793</ele>
        <time>2014-08-31T08:06:49Z</time>
      </trkpt>
      <trkpt lat="43.72426" lon="6.96637">
        <ele>795</ele>
        <time>2014-08-31T08:06:54Z</time>
      </trkpt>
      <trkpt lat="43.72428" lon="6.9665">
        <ele>797</ele>
        <time>2014-08-31T08:06:59Z</time>
      </trkpt>
      <trkpt lat="43.7243" lon="6.96661">
        <ele>798</ele>
        <time>2014-08-31T08:07:04Z</time>
      </trkpt>
      <trkpt lat="43.72437" lon="6.96677">
        <ele>800</ele>
        <time>2014-08-31T08:07:13Z</time>
      </trkpt>
      <trkpt lat="43.72438" lon="6.96678">
        <ele>800</ele>
        <time>2014-08-31T08:07:14Z</time>
      </trkpt>
      <trkpt lat="43.7245" lon="6.96689">
        <ele>801</ele>
        <time>2014-08-31T08:07:23Z</time>
      </trkpt>
      <trkpt lat="43.72451" lon="6.9669">
        <ele>801</ele>
        <time>2014-08-31T08:07:24Z</time>
      </trkpt>
      <trkpt lat="43.72458" lon="6.96696">
        <ele>802</ele>
        <time>2014-08-31T08:07:29Z</time>
      </trkpt>
      <trkpt lat="43.72463" lon="6.96704">
        <ele>804</ele>
        <time>2014-08-31T08:07:34Z</time>
      </trkpt>
      <trkpt lat="43.72467" lon="6.96711">
        <ele>805</ele>
        <time>2014-08-31T08:07:39Z</time>
      </trkpt>
      <trkpt lat="43.72473" lon="6.96716">
        <ele>807</ele>
        <time>2014-08-31T08:07:44Z</time>
      </trkpt>
      <trkpt lat="43.7248" lon="6.96727">
        <ele>811</ele>
        <time>2014-08-31T08:07:53Z</time>
      </trkpt>
      <trkpt lat="43.7248" lon="6.96728">
        <ele>811</ele>
        <time>2014-08-31T08:07:54Z</time>
      </trkpt>
      <trkpt lat="43.72481" lon="6.96737">
        <ele>814</ele>
        <time>2014-08-31T08:07:59Z</time>
      </trkpt>
      <trkpt lat="43.72483" lon="6.96747">
        <ele>814</ele>
        <time>2014-08-31T08:08:04Z</time>
      </trkpt>
      <trkpt lat="43.72485" lon="6.96757">
        <ele>815</ele>
        <time>2014-08-31T08:08:09Z</time>
      </trkpt>
      <trkpt lat="43.72491" lon="6.96768">
        <ele>817</ele>
        <time>2014-08-31T08:08:15Z</time>
      </trkpt>
      <trkpt lat="43.72496" lon="6.96773">
        <ele>817</ele>
        <time>2014-08-31T08:08:19Z</time>
      </trkpt>
      <trkpt lat="43.72501" lon="6.96767">
        <ele>819</ele>
        <time>2014-08-31T08:08:24Z</time>
      </trkpt>
      <trkpt lat="43.72498" lon="6.96757">
        <ele>817</ele>
        <time>2014-08-31T08:08:29Z</time>
      </trkpt>
      <trkpt lat="43.72502" lon="6.9675">
        <ele>819</ele>
        <time>2014-08-31T08:08:34Z</time>
      </trkpt>
      <trkpt lat="43.72509" lon="6.96754">
        <ele>819</ele>
        <time>2014-08-31T08:08:39Z</time>
      </trkpt>
      <trkpt lat="43.72519" lon="6.96762">
        <ele>820</ele>
        <time>2014-08-31T08:08:47Z</time>
      </trkpt>
      <trkpt lat="43.72521" lon="6.96764">
        <ele>819</ele>
        <time>2014-08-31T08:08:49Z</time>
      </trkpt>
      <trkpt lat="43.72532" lon="6.96773">
        <ele>822</ele>
        <time>2014-08-31T08:08:58Z</time>
      </trkpt>
      <trkpt lat="43.72535" lon="6.96775">
        <ele>822</ele>
        <time>2014-08-31T08:09:00Z</time>
      </trkpt>
      <trkpt lat="43.72543" lon="6.96781">
        <ele>824</ele>
        <time>2014-08-31T08:09:07Z</time>
      </trkpt>
      <trkpt lat="43.72548" lon="6.96786">
        <ele>825</ele>
        <time>2014-08-31T08:09:11Z</time>
      </trkpt>
      <trkpt lat="43.72551" lon="6.96788">
        <ele>826</ele>
        <time>2014-08-31T08:09:14Z</time>
      </trkpt>
      <trkpt lat="43.72557" lon="6.96794">
        <ele>826</ele>
        <time>2014-08-31T08:09:19Z</time>
      </trkpt>
      <trkpt lat="43.72563" lon="6.96798">
        <ele>826</ele>
        <time>2014-08-31T08:09:24Z</time>
      </trkpt>
      <trkpt lat="43.72569" lon="6.96803">
        <ele>827</ele>
        <time>2014-08-31T08:09:29Z</time>
      </trkpt>
      <trkpt lat="43.72575" lon="6.96809">
        <ele>828</ele>
        <time>2014-08-31T08:09:34Z</time>
      </trkpt>
      <trkpt lat="43.7258" lon="6.96818">
        <ele>829</ele>
        <time>2014-08-31T08:09:40Z</time>
      </trkpt>
      <trkpt lat="43.72585" lon="6.96824">
        <ele>829</ele>
        <time>2014-08-31T08:09:44Z</time>
      </trkpt>
      <trkpt lat="43.72591" lon="6.9683">
        <ele>829</ele>
        <time>2014-08-31T08:09:49Z</time>
      </trkpt>
      <trkpt lat="43.72597" lon="6.96836">
        <ele>832</ele>
        <time>2014-08-31T08:09:54Z</time>
      </trkpt>
      <trkpt lat="43.72603" lon="6.96841">
        <ele>832</ele>
        <time>2014-08-31T08:09:59Z</time>
      </trkpt>
      <trkpt lat="43.72611" lon="6.96845">
        <ele>832</ele>
        <time>2014-08-31T08:10:04Z</time>
      </trkpt>
      <trkpt lat="43.72617" lon="6.96849">
        <ele>834</ele>
        <time>2014-08-31T08:10:09Z</time>
      </trkpt>
      <trkpt lat="43.72622" lon="6.96854">
        <ele>836</ele>
        <time>2014-08-31T08:10:14Z</time>
      </trkpt>
      <trkpt lat="43.72625" lon="6.96861">
        <ele>838</ele>
        <time>2014-08-31T08:10:19Z</time>
      </trkpt>
      <trkpt lat="43.72631" lon="6.96864">
        <ele>841</ele>
        <time>2014-08-31T08:10:24Z</time>
      </trkpt>
      <trkpt lat="43.72637" lon="6.96861">
        <ele>841</ele>
        <time>2014-08-31T08:10:29Z</time>
      </trkpt>
      <trkpt lat="43.72642" lon="6.96854">
        <ele>839</ele>
        <time>2014-08-31T08:10:34Z</time>
      </trkpt>
      <trkpt lat="43.72646" lon="6.96848">
        <ele>840</ele>
        <time>2014-08-31T08:10:39Z</time>
      </trkpt>
      <trkpt lat="43.72652" lon="6.96846">
        <ele>842</ele>
        <time>2014-08-31T08:10:44Z</time>
      </trkpt>
      <trkpt lat="43.72661" lon="6.96842">
        <ele>843</ele>
        <time>2014-08-31T08:10:51Z</time>
      </trkpt>
      <trkpt lat="43.72664" lon="6.9684">
        <ele>844</ele>
        <time>2014-08-31T08:10:54Z</time>
      </trkpt>
      <trkpt lat="43.72671" lon="6.96835">
        <ele>844</ele>
        <time>2014-08-31T08:10:59Z</time>
      </trkpt>
      <trkpt lat="43.72679" lon="6.96836">
        <ele>843</ele>
        <time>2014-08-31T08:11:06Z</time>
      </trkpt>
      <trkpt lat="43.72678" lon="6.96836">
        <ele>844</ele>
        <time>2014-08-31T08:11:09Z</time>
      </trkpt>
      <trkpt lat="43.72679" lon="6.96836">
        <ele>843</ele>
        <time>2014-08-31T08:11:14Z</time>
      </trkpt>
      <trkpt lat="43.72678" lon="6.96836">
        <ele>844</ele>
        <time>2014-08-31T08:11:19Z</time>
      </trkpt>
      <trkpt lat="43.72678" lon="6.96835">
        <ele>844</ele>
        <time>2014-08-31T08:11:24Z</time>
      </trkpt>
      <trkpt lat="43.72678" lon="6.96835">
        <ele>845</ele>
        <time>2014-08-31T08:11:29Z</time>
      </trkpt>
      <trkpt lat="43.72678" lon="6.96835">
        <ele>846</ele>
        <time>2014-08-31T08:11:34Z</time>
      </trkpt>
      <trkpt lat="43.72678" lon="6.96835">
        <ele>846</ele>
        <time>2014-08-31T08:11:39Z</time>
      </trkpt>
      <trkpt lat="43.72679" lon="6.96835">
        <ele>846</ele>
        <time>2014-08-31T08:11:44Z</time>
      </trkpt>
      <trkpt lat="43.72682" lon="6.96835">
        <ele>846</ele>
        <time>2014-08-31T08:11:49Z</time>
      </trkpt>
      <trkpt lat="43.72686" lon="6.96829">
        <ele>848</ele>
        <time>2014-08-31T08:11:54Z</time>
      </trkpt>
      <trkpt lat="43.72691" lon="6.96826">
        <ele>847</ele>
        <time>2014-08-31T08:11:59Z</time>
      </trkpt>
      <trkpt lat="43.72694" lon="6.9682">
        <ele>845</ele>
        <time>2014-08-31T08:12:04Z</time>
      </trkpt>
      <trkpt lat="43.72697" lon="6.96814">
        <ele>845</ele>
        <time>2014-08-31T08:12:10Z</time>
      </trkpt>
      <trkpt lat="43.72697" lon="6.96815">
        <ele>845</ele>
        <time>2014-08-31T08:12:14Z</time>
      </trkpt>
      <trkpt lat="43.72697" lon="6.96816">
        <ele>845</ele>
        <time>2014-08-31T08:12:19Z</time>
      </trkpt>
      <trkpt lat="43.72697" lon="6.96817">
        <ele>845</ele>
        <time>2014-08-31T08:12:25Z</time>
      </trkpt>
      <trkpt lat="43.72697" lon="6.96817">
        <ele>845</ele>
        <time>2014-08-31T08:12:29Z</time>
      </trkpt>
      <trkpt lat="43.72697" lon="6.96817">
        <ele>845</ele>
        <time>2014-08-31T08:12:34Z</time>
      </trkpt>
      <trkpt lat="43.72697" lon="6.96817">
        <ele>845</ele>
        <time>2014-08-31T08:12:39Z</time>
      </trkpt>
      <trkpt lat="43.72697" lon="6.96817">
        <ele>845</ele>
        <time>2014-08-31T08:12:44Z</time>
      </trkpt>
      <trkpt lat="43.72697" lon="6.96817">
        <ele>845</ele>
        <time>2014-08-31T08:12:49Z</time>
      </trkpt>
      <trkpt lat="43.72697" lon="6.96817">
        <ele>845</ele>
        <time>2014-08-31T08:12:54Z</time>
      </trkpt>
      <trkpt lat="43.72697" lon="6.96817">
        <ele>845</ele>
        <time>2014-08-31T08:12:59Z</time>
      </trkpt>
      <trkpt lat="43.72697" lon="6.96817">
        <ele>845</ele>
        <time>2014-08-31T08:13:04Z</time>
      </trkpt>
      <trkpt lat="43.72697" lon="6.96817">
        <ele>845</ele>
        <time>2014-08-31T08:13:09Z</time>
      </trkpt>
      <trkpt lat="43.72697" lon="6.96817">
        <ele>845</ele>
        <time>2014-08-31T08:13:14Z</time>
      </trkpt>
      <trkpt lat="43.72697" lon="6.96817">
        <ele>845</ele>
        <time>2014-08-31T08:13:19Z</time>
      </trkpt>
      <trkpt lat="43.72697" lon="6.96817">
        <ele>845</ele>
        <time>2014-08-31T08:13:24Z</time>
      </trkpt>
      <trkpt lat="43.72697" lon="6.96817">
        <ele>845</ele>
        <time>2014-08-31T08:13:29Z</time>
      </trkpt>
      <trkpt lat="43.72697" lon="6.96817">
        <ele>845</ele>
        <time>2014-08-31T08:13:34Z</time>
      </trkpt>
      <trkpt lat="43.72697" lon="6.96817">
        <ele>845</ele>
        <time>2014-08-31T08:13:39Z</time>
      </trkpt>
      <trkpt lat="43.72697" lon="6.96817">
        <ele>845</ele>
        <time>2014-08-31T08:13:44Z</time>
      </trkpt>
      <trkpt lat="43.72697" lon="6.96817">
        <ele>845</ele>
        <time>2014-08-31T08:13:49Z</time>
      </trkpt>
      <trkpt lat="43.72697" lon="6.96817">
        <ele>845</ele>
        <time>2014-08-31T08:13:54Z</time>
      </trkpt>
      <trkpt lat="43.72697" lon="6.96817">
        <ele>845</ele>
        <time>2014-08-31T08:13:59Z</time>
      </trkpt>
      <trkpt lat="43.72697" lon="6.96817">
        <ele>845</ele>
        <time>2014-08-31T08:14:04Z</time>
      </trkpt>
      <trkpt lat="43.72697" lon="6.96817">
        <ele>845</ele>
        <time>2014-08-31T08:14:09Z</time>
      </trkpt>
      <trkpt lat="43.72697" lon="6.96817">
        <ele>845</ele>
        <time>2014-08-31T08:14:14Z</time>
      </trkpt>
      <trkpt lat="43.72697" lon="6.96817">
        <ele>845</ele>
        <time>2014-08-31T08:14:19Z</time>
      </trkpt>
      <trkpt lat="43.72697" lon="6.96817">
        <ele>845</ele>
        <time>2014-08-31T08:14:24Z</time>
      </trkpt>
      <trkpt lat="43.72697" lon="6.96817">
        <ele>845</ele>
        <time>2014-08-31T08:14:29Z</time>
      </trkpt>
      <trkpt lat="43.72697" lon="6.96817">
        <ele>845</ele>
        <time>2014-08-31T08:14:34Z</time>
      </trkpt>
      <trkpt lat="43.72697" lon="6.96817">
        <ele>845</ele>
        <time>2014-08-31T08:14:40Z</time>
      </trkpt>
      <trkpt lat="43.72697" lon="6.96817">
        <ele>845</ele>
        <time>2014-08-31T08:14:44Z</time>
      </trkpt>
      <trkpt lat="43.72697" lon="6.96817">
        <ele>845</ele>
        <time>2014-08-31T08:14:49Z</time>
      </trkpt>
      <trkpt lat="43.72697" lon="6.96817">
        <ele>845</ele>
        <time>2014-08-31T08:14:54Z</time>
      </trkpt>
      <trkpt lat="43.72697" lon="6.96817">
        <ele>845</ele>
        <time>2014-08-31T08:15:01Z</time>
      </trkpt>
      <trkpt lat="43.72697" lon="6.96817">
        <ele>845</ele>
        <time>2014-08-31T08:15:04Z</time>
      </trkpt>
      <trkpt lat="43.72697" lon="6.96817">
        <ele>845</ele>
        <time>2014-08-31T08:15:09Z</time>
      </trkpt>
      <trkpt lat="43.72698" lon="6.96817">
        <ele>843</ele>
        <time>2014-08-31T08:15:14Z</time>
      </trkpt>
      <trkpt lat="43.72697" lon="6.96817">
        <ele>843</ele>
        <time>2014-08-31T08:15:19Z</time>
      </trkpt>
      <trkpt lat="43.72697" lon="6.96818">
        <ele>843</ele>
        <time>2014-08-31T08:15:27Z</time>
      </trkpt>
      <trkpt lat="43.72697" lon="6.96818">
        <ele>843</ele>
        <time>2014-08-31T08:15:30Z</time>
      </trkpt>
      <trkpt lat="43.72697" lon="6.96814">
        <ele>843</ele>
        <time>2014-08-31T08:15:34Z</time>
      </trkpt>
      <trkpt lat="43.72702" lon="6.96799">
        <ele>845</ele>
        <time>2014-08-31T08:15:39Z</time>
      </trkpt>
      <trkpt lat="43.72708" lon="6.96782">
        <ele>846</ele>
        <time>2014-08-31T08:15:44Z</time>
      </trkpt>
      <trkpt lat="43.72712" lon="6.96764">
        <ele>848</ele>
        <time>2014-08-31T08:15:49Z</time>
      </trkpt>
      <trkpt lat="43.72715" lon="6.96745">
        <ele>849</ele>
        <time>2014-08-31T08:15:54Z</time>
      </trkpt>
      <trkpt lat="43.72718" lon="6.96727">
        <ele>850</ele>
        <time>2014-08-31T08:15:59Z</time>
      </trkpt>
      <trkpt lat="43.72721" lon="6.96709">
        <ele>851</ele>
        <time>2014-08-31T08:16:04Z</time>
      </trkpt>
      <trkpt lat="43.72723" lon="6.9669">
        <ele>852</ele>
        <time>2014-08-31T08:16:09Z</time>
      </trkpt>
      <trkpt lat="43.72726" lon="6.96673">
        <ele>852</ele>
        <time>2014-08-31T08:16:14Z</time>
      </trkpt>
      <trkpt lat="43.72729" lon="6.96655">
        <ele>854</ele>
        <time>2014-08-31T08:16:19Z</time>
      </trkpt>
      <trkpt lat="43.7273" lon="6.96637">
        <ele>854</ele>
        <time>2014-08-31T08:16:24Z</time>
      </trkpt>
      <trkpt lat="43.72732" lon="6.96618">
        <ele>855</ele>
        <time>2014-08-31T08:16:29Z</time>
      </trkpt>
      <trkpt lat="43.72734" lon="6.96599">
        <ele>857</ele>
        <time>2014-08-31T08:16:34Z</time>
      </trkpt>
      <trkpt lat="43.72735" lon="6.9658">
        <ele>858</ele>
        <time>2014-08-31T08:16:39Z</time>
      </trkpt>
      <trkpt lat="43.72736" lon="6.9656">
        <ele>859</ele>
        <time>2014-08-31T08:16:44Z</time>
      </trkpt>
      <trkpt lat="43.72736" lon="6.96539">
        <ele>860</ele>
        <time>2014-08-31T08:16:49Z</time>
      </trkpt>
      <trkpt lat="43.72735" lon="6.96518">
        <ele>861</ele>
        <time>2014-08-31T08:16:54Z</time>
      </trkpt>
      <trkpt lat="43.72735" lon="6.96497">
        <ele>862</ele>
        <time>2014-08-31T08:16:59Z</time>
      </trkpt>
      <trkpt lat="43.72734" lon="6.96476">
        <ele>863</ele>
        <time>2014-08-31T08:17:04Z</time>
      </trkpt>
      <trkpt lat="43.72734" lon="6.96456">
        <ele>865</ele>
        <time>2014-08-31T08:17:09Z</time>
      </trkpt>
      <trkpt lat="43.72733" lon="6.96435">
        <ele>866</ele>
        <time>2014-08-31T08:17:14Z</time>
      </trkpt>
      <trkpt lat="43.72732" lon="6.96415">
        <ele>866</ele>
        <time>2014-08-31T08:17:19Z</time>
      </trkpt>
      <trkpt lat="43.72732" lon="6.96395">
        <ele>867</ele>
        <time>2014-08-31T08:17:24Z</time>
      </trkpt>
      <trkpt lat="43.72732" lon="6.96375">
        <ele>868</ele>
        <time>2014-08-31T08:17:29Z</time>
      </trkpt>
      <trkpt lat="43.72731" lon="6.96355">
        <ele>869</ele>
        <time>2014-08-31T08:17:34Z</time>
      </trkpt>
      <trkpt lat="43.72731" lon="6.96334">
        <ele>870</ele>
        <time>2014-08-31T08:17:39Z</time>
      </trkpt>
      <trkpt lat="43.7273" lon="6.96313">
        <ele>871</ele>
        <time>2014-08-31T08:17:44Z</time>
      </trkpt>
      <trkpt lat="43.7273" lon="6.96293">
        <ele>872</ele>
        <time>2014-08-31T08:17:49Z</time>
      </trkpt>
      <trkpt lat="43.7273" lon="6.96272">
        <ele>873</ele>
        <time>2014-08-31T08:17:54Z</time>
      </trkpt>
      <trkpt lat="43.72731" lon="6.96251">
        <ele>875</ele>
        <time>2014-08-31T08:17:59Z</time>
      </trkpt>
      <trkpt lat="43.72735" lon="6.96232">
        <ele>877</ele>
        <time>2014-08-31T08:18:04Z</time>
      </trkpt>
      <trkpt lat="43.7274" lon="6.96214">
        <ele>878</ele>
        <time>2014-08-31T08:18:09Z</time>
      </trkpt>
      <trkpt lat="43.72746" lon="6.96197">
        <ele>879</ele>
        <time>2014-08-31T08:18:14Z</time>
      </trkpt>
      <trkpt lat="43.72754" lon="6.9618">
        <ele>879</ele>
        <time>2014-08-31T08:18:19Z</time>
      </trkpt>
      <trkpt lat="43.72764" lon="6.96164">
        <ele>880</ele>
        <time>2014-08-31T08:18:24Z</time>
      </trkpt>
      <trkpt lat="43.72773" lon="6.96149">
        <ele>880</ele>
        <time>2014-08-31T08:18:29Z</time>
      </trkpt>
      <trkpt lat="43.72783" lon="6.96135">
        <ele>881</ele>
        <time>2014-08-31T08:18:34Z</time>
      </trkpt>
      <trkpt lat="43.72794" lon="6.96122">
        <ele>882</ele>
        <time>2014-08-31T08:18:39Z</time>
      </trkpt>
      <trkpt lat="43.72808" lon="6.96109">
        <ele>882</ele>
        <time>2014-08-31T08:18:45Z</time>
      </trkpt>
      <trkpt lat="43.72817" lon="6.96101">
        <ele>882</ele>
        <time>2014-08-31T08:18:49Z</time>
      </trkpt>
      <trkpt lat="43.72832" lon="6.96091">
        <ele>882</ele>
        <time>2014-08-31T08:18:55Z</time>
      </trkpt>
      <trkpt lat="43.7285" lon="6.9608">
        <ele>885</ele>
        <time>2014-08-31T08:19:02Z</time>
      </trkpt>
      <trkpt lat="43.72855" lon="6.96076">
        <ele>886</ele>
        <time>2014-08-31T08:19:04Z</time>
      </trkpt>
      <trkpt lat="43.72869" lon="6.96068">
        <ele>888</ele>
        <time>2014-08-31T08:19:10Z</time>
      </trkpt>
      <trkpt lat="43.72878" lon="6.96063">
        <ele>890</ele>
        <time>2014-08-31T08:19:14Z</time>
      </trkpt>
      <trkpt lat="43.72893" lon="6.96055">
        <ele>891</ele>
        <time>2014-08-31T08:19:20Z</time>
      </trkpt>
      <trkpt lat="43.72903" lon="6.9605">
        <ele>890</ele>
        <time>2014-08-31T08:19:24Z</time>
      </trkpt>
      <trkpt lat="43.72919" lon="6.96041">
        <ele>890</ele>
        <time>2014-08-31T08:19:30Z</time>
      </trkpt>
      <trkpt lat="43.7293" lon="6.96035">
        <ele>891</ele>
        <time>2014-08-31T08:19:34Z</time>
      </trkpt>
      <trkpt lat="43.72942" lon="6.96027">
        <ele>892</ele>
        <time>2014-08-31T08:19:39Z</time>
      </trkpt>
      <trkpt lat="43.72957" lon="6.96018">
        <ele>894</ele>
        <time>2014-08-31T08:19:45Z</time>
      </trkpt>
      <trkpt lat="43.72967" lon="6.96011">
        <ele>895</ele>
        <time>2014-08-31T08:19:49Z</time>
      </trkpt>
      <trkpt lat="43.7298" lon="6.96005">
        <ele>895</ele>
        <time>2014-08-31T08:19:54Z</time>
      </trkpt>
      <trkpt lat="43.72997" lon="6.95994">
        <ele>897</ele>
        <time>2014-08-31T08:20:01Z</time>
      </trkpt>
      <trkpt lat="43.73005" lon="6.95991">
        <ele>897</ele>
        <time>2014-08-31T08:20:04Z</time>
      </trkpt>
      <trkpt lat="43.73018" lon="6.95987">
        <ele>898</ele>
        <time>2014-08-31T08:20:09Z</time>
      </trkpt>
      <trkpt lat="43.73032" lon="6.95984">
        <ele>899</ele>
        <time>2014-08-31T08:20:14Z</time>
      </trkpt>
      <trkpt lat="43.73045" lon="6.95982">
        <ele>900</ele>
        <time>2014-08-31T08:20:19Z</time>
      </trkpt>
      <trkpt lat="43.73059" lon="6.95978">
        <ele>900</ele>
        <time>2014-08-31T08:20:24Z</time>
      </trkpt>
      <trkpt lat="43.73072" lon="6.95972">
        <ele>900</ele>
        <time>2014-08-31T08:20:29Z</time>
      </trkpt>
      <trkpt lat="43.73085" lon="6.95964">
        <ele>901</ele>
        <time>2014-08-31T08:20:34Z</time>
      </trkpt>
      <trkpt lat="43.73097" lon="6.95956">
        <ele>904</ele>
        <time>2014-08-31T08:20:39Z</time>
      </trkpt>
      <trkpt lat="43.7311" lon="6.95947">
        <ele>903</ele>
        <time>2014-08-31T08:20:44Z</time>
      </trkpt>
      <trkpt lat="43.73123" lon="6.95938">
        <ele>904</ele>
        <time>2014-08-31T08:20:49Z</time>
      </trkpt>
      <trkpt lat="43.73135" lon="6.95928">
        <ele>906</ele>
        <time>2014-08-31T08:20:54Z</time>
      </trkpt>
      <trkpt lat="43.73147" lon="6.95921">
        <ele>907</ele>
        <time>2014-08-31T08:20:59Z</time>
      </trkpt>
      <trkpt lat="43.73159" lon="6.95912">
        <ele>909</ele>
        <time>2014-08-31T08:21:04Z</time>
      </trkpt>
      <trkpt lat="43.73172" lon="6.95904">
        <ele>909</ele>
        <time>2014-08-31T08:21:09Z</time>
      </trkpt>
      <trkpt lat="43.73184" lon="6.95895">
        <ele>909</ele>
        <time>2014-08-31T08:21:14Z</time>
      </trkpt>
      <trkpt lat="43.73195" lon="6.95885">
        <ele>912</ele>
        <time>2014-08-31T08:21:19Z</time>
      </trkpt>
      <trkpt lat="43.73205" lon="6.95872">
        <ele>912</ele>
        <time>2014-08-31T08:21:24Z</time>
      </trkpt>
      <trkpt lat="43.7322" lon="6.95855">
        <ele>912</ele>
        <time>2014-08-31T08:21:31Z</time>
      </trkpt>
      <trkpt lat="43.73226" lon="6.95848">
        <ele>913</ele>
        <time>2014-08-31T08:21:34Z</time>
      </trkpt>
      <trkpt lat="43.73237" lon="6.95836">
        <ele>915</ele>
        <time>2014-08-31T08:21:39Z</time>
      </trkpt>
      <trkpt lat="43.73248" lon="6.95824">
        <ele>916</ele>
        <time>2014-08-31T08:21:44Z</time>
      </trkpt>
      <trkpt lat="43.7326" lon="6.95814">
        <ele>917</ele>
        <time>2014-08-31T08:21:49Z</time>
      </trkpt>
      <trkpt lat="43.73274" lon="6.95808">
        <ele>919</ele>
        <time>2014-08-31T08:21:54Z</time>
      </trkpt>
      <trkpt lat="43.73288" lon="6.95806">
        <ele>920</ele>
        <time>2014-08-31T08:21:59Z</time>
      </trkpt>
      <trkpt lat="43.73302" lon="6.95808">
        <ele>921</ele>
        <time>2014-08-31T08:22:04Z</time>
      </trkpt>
      <trkpt lat="43.73316" lon="6.9581">
        <ele>922</ele>
        <time>2014-08-31T08:22:09Z</time>
      </trkpt>
      <trkpt lat="43.73337" lon="6.95815">
        <ele>926</ele>
        <time>2014-08-31T08:22:17Z</time>
      </trkpt>
      <trkpt lat="43.73343" lon="6.95815">
        <ele>929</ele>
        <time>2014-08-31T08:22:19Z</time>
      </trkpt>
      <trkpt lat="43.73358" lon="6.95817">
        <ele>931</ele>
        <time>2014-08-31T08:22:25Z</time>
      </trkpt>
      <trkpt lat="43.73369" lon="6.95817">
        <ele>929</ele>
        <time>2014-08-31T08:22:29Z</time>
      </trkpt>
      <trkpt lat="43.73383" lon="6.95813">
        <ele>928</ele>
        <time>2014-08-31T08:22:34Z</time>
      </trkpt>
      <trkpt lat="43.73394" lon="6.958">
        <ele>928</ele>
        <time>2014-08-31T08:22:39Z</time>
      </trkpt>
      <trkpt lat="43.73398" lon="6.95782">
        <ele>930</ele>
        <time>2014-08-31T08:22:44Z</time>
      </trkpt>
      <trkpt lat="43.73397" lon="6.95763">
        <ele>931</ele>
        <time>2014-08-31T08:22:49Z</time>
      </trkpt>
      <trkpt lat="43.73389" lon="6.95747">
        <ele>932</ele>
        <time>2014-08-31T08:22:54Z</time>
      </trkpt>
      <trkpt lat="43.73382" lon="6.9573">
        <ele>934</ele>
        <time>2014-08-31T08:22:59Z</time>
      </trkpt>
      <trkpt lat="43.73377" lon="6.95713">
        <ele>935</ele>
        <time>2014-08-31T08:23:04Z</time>
      </trkpt>
      <trkpt lat="43.7338" lon="6.95694">
        <ele>935</ele>
        <time>2014-08-31T08:23:09Z</time>
      </trkpt>
      <trkpt lat="43.73388" lon="6.95677">
        <ele>935</ele>
        <time>2014-08-31T08:23:14Z</time>
      </trkpt>
      <trkpt lat="43.73395" lon="6.9566">
        <ele>935</ele>
        <time>2014-08-31T08:23:19Z</time>
      </trkpt>
      <trkpt lat="43.73409" lon="6.95632">
        <ele>936</ele>
        <time>2014-08-31T08:23:28Z</time>
      </trkpt>
      <trkpt lat="43.73411" lon="6.95629">
        <ele>937</ele>
        <time>2014-08-31T08:23:29Z</time>
      </trkpt>
      <trkpt lat="43.7342" lon="6.95618">
        <ele>938</ele>
        <time>2014-08-31T08:23:34Z</time>
      </trkpt>
      <trkpt lat="43.7343" lon="6.95607">
        <ele>937</ele>
        <time>2014-08-31T08:23:39Z</time>
      </trkpt>
      <trkpt lat="43.73438" lon="6.95598">
        <ele>938</ele>
        <time>2014-08-31T08:23:44Z</time>
      </trkpt>
      <trkpt lat="43.73452" lon="6.95581">
        <ele>939</ele>
        <time>2014-08-31T08:23:52Z</time>
      </trkpt>
      <trkpt lat="43.73455" lon="6.95575">
        <ele>938</ele>
        <time>2014-08-31T08:23:54Z</time>
      </trkpt>
      <trkpt lat="43.73459" lon="6.95559">
        <ele>940</ele>
        <time>2014-08-31T08:23:59Z</time>
      </trkpt>
      <trkpt lat="43.7346" lon="6.95542">
        <ele>941</ele>
        <time>2014-08-31T08:24:04Z</time>
      </trkpt>
      <trkpt lat="43.73459" lon="6.95515">
        <ele>944</ele>
        <time>2014-08-31T08:24:12Z</time>
      </trkpt>
      <trkpt lat="43.73459" lon="6.95508">
        <ele>945</ele>
        <time>2014-08-31T08:24:14Z</time>
      </trkpt>
      <trkpt lat="43.7346" lon="6.95491">
        <ele>947</ele>
        <time>2014-08-31T08:24:19Z</time>
      </trkpt>
      <trkpt lat="43.7346" lon="6.95475">
        <ele>947</ele>
        <time>2014-08-31T08:24:24Z</time>
      </trkpt>
      <trkpt lat="43.73461" lon="6.95458">
        <ele>951</ele>
        <time>2014-08-31T08:24:29Z</time>
      </trkpt>
      <trkpt lat="43.73461" lon="6.9544">
        <ele>951</ele>
        <time>2014-08-31T08:24:34Z</time>
      </trkpt>
      <trkpt lat="43.73461" lon="6.95423">
        <ele>953</ele>
        <time>2014-08-31T08:24:39Z</time>
      </trkpt>
      <trkpt lat="43.73462" lon="6.95396">
        <ele>953</ele>
        <time>2014-08-31T08:24:47Z</time>
      </trkpt>
      <trkpt lat="43.73462" lon="6.95389">
        <ele>952</ele>
        <time>2014-08-31T08:24:49Z</time>
      </trkpt>
      <trkpt lat="43.73465" lon="6.95371">
        <ele>952</ele>
        <time>2014-08-31T08:24:54Z</time>
      </trkpt>
      <trkpt lat="43.73468" lon="6.95354">
        <ele>951</ele>
        <time>2014-08-31T08:24:59Z</time>
      </trkpt>
      <trkpt lat="43.73473" lon="6.95338">
        <ele>951</ele>
        <time>2014-08-31T08:25:04Z</time>
      </trkpt>
      <trkpt lat="43.73478" lon="6.95323">
        <ele>953</ele>
        <time>2014-08-31T08:25:09Z</time>
      </trkpt>
      <trkpt lat="43.73484" lon="6.95308">
        <ele>955</ele>
        <time>2014-08-31T08:25:14Z</time>
      </trkpt>
      <trkpt lat="43.73492" lon="6.95295">
        <ele>957</ele>
        <time>2014-08-31T08:25:19Z</time>
      </trkpt>
      <trkpt lat="43.73501" lon="6.95282">
        <ele>958</ele>
        <time>2014-08-31T08:25:24Z</time>
      </trkpt>
      <trkpt lat="43.73509" lon="6.9527">
        <ele>957</ele>
        <time>2014-08-31T08:25:29Z</time>
      </trkpt>
      <trkpt lat="43.73517" lon="6.95256">
        <ele>958</ele>
        <time>2014-08-31T08:25:34Z</time>
      </trkpt>
      <trkpt lat="43.73526" lon="6.95244">
        <ele>958</ele>
        <time>2014-08-31T08:25:39Z</time>
      </trkpt>
      <trkpt lat="43.73536" lon="6.95231">
        <ele>960</ele>
        <time>2014-08-31T08:25:44Z</time>
      </trkpt>
      <trkpt lat="43.73545" lon="6.95219">
        <ele>961</ele>
        <time>2014-08-31T08:25:49Z</time>
      </trkpt>
      <trkpt lat="43.73553" lon="6.95207">
        <ele>961</ele>
        <time>2014-08-31T08:25:54Z</time>
      </trkpt>
      <trkpt lat="43.73562" lon="6.95196">
        <ele>961</ele>
        <time>2014-08-31T08:25:59Z</time>
      </trkpt>
      <trkpt lat="43.73571" lon="6.95185">
        <ele>962</ele>
        <time>2014-08-31T08:26:04Z</time>
      </trkpt>
      <trkpt lat="43.73583" lon="6.95175">
        <ele>964</ele>
        <time>2014-08-31T08:26:10Z</time>
      </trkpt>
      <trkpt lat="43.73591" lon="6.95169">
        <ele>964</ele>
        <time>2014-08-31T08:26:14Z</time>
      </trkpt>
      <trkpt lat="43.73605" lon="6.95157">
        <ele>964</ele>
        <time>2014-08-31T08:26:21Z</time>
      </trkpt>
      <trkpt lat="43.73611" lon="6.95151">
        <ele>962</ele>
        <time>2014-08-31T08:26:24Z</time>
      </trkpt>
      <trkpt lat="43.73617" lon="6.95136">
        <ele>964</ele>
        <time>2014-08-31T08:26:29Z</time>
      </trkpt>
      <trkpt lat="43.73613" lon="6.95121">
        <ele>966</ele>
        <time>2014-08-31T08:26:34Z</time>
      </trkpt>
      <trkpt lat="43.73604" lon="6.95109">
        <ele>967</ele>
        <time>2014-08-31T08:26:39Z</time>
      </trkpt>
      <trkpt lat="43.7359" lon="6.95106">
        <ele>969</ele>
        <time>2014-08-31T08:26:45Z</time>
      </trkpt>
      <trkpt lat="43.73581" lon="6.95106">
        <ele>969</ele>
        <time>2014-08-31T08:26:49Z</time>
      </trkpt>
      <trkpt lat="43.73569" lon="6.95105">
        <ele>970</ele>
        <time>2014-08-31T08:26:54Z</time>
      </trkpt>
      <trkpt lat="43.73556" lon="6.95106">
        <ele>973</ele>
        <time>2014-08-31T08:26:59Z</time>
      </trkpt>
      <trkpt lat="43.73536" lon="6.95107">
        <ele>973</ele>
        <time>2014-08-31T08:27:07Z</time>
      </trkpt>
      <trkpt lat="43.73531" lon="6.95107">
        <ele>973</ele>
        <time>2014-08-31T08:27:09Z</time>
      </trkpt>
      <trkpt lat="43.73513" lon="6.95108">
        <ele>977</ele>
        <time>2014-08-31T08:27:16Z</time>
      </trkpt>
      <trkpt lat="43.73506" lon="6.95108">
        <ele>977</ele>
        <time>2014-08-31T08:27:19Z</time>
      </trkpt>
      <trkpt lat="43.73493" lon="6.95108">
        <ele>977</ele>
        <time>2014-08-31T08:27:24Z</time>
      </trkpt>
      <trkpt lat="43.7348" lon="6.95108">
        <ele>978</ele>
        <time>2014-08-31T08:27:29Z</time>
      </trkpt>
      <trkpt lat="43.73468" lon="6.95108">
        <ele>978</ele>
        <time>2014-08-31T08:27:34Z</time>
      </trkpt>
      <trkpt lat="43.73453" lon="6.95106">
        <ele>978</ele>
        <time>2014-08-31T08:27:40Z</time>
      </trkpt>
      <trkpt lat="43.73444" lon="6.95104">
        <ele>978</ele>
        <time>2014-08-31T08:27:44Z</time>
      </trkpt>
      <trkpt lat="43.73433" lon="6.95099">
        <ele>979</ele>
        <time>2014-08-31T08:27:49Z</time>
      </trkpt>
      <trkpt lat="43.73422" lon="6.95093">
        <ele>978</ele>
        <time>2014-08-31T08:27:54Z</time>
      </trkpt>
      <trkpt lat="43.73411" lon="6.95086">
        <ele>979</ele>
        <time>2014-08-31T08:27:59Z</time>
      </trkpt>
      <trkpt lat="43.734" lon="6.95084">
        <ele>980</ele>
        <time>2014-08-31T08:28:04Z</time>
      </trkpt>
      <trkpt lat="43.73389" lon="6.95089">
        <ele>981</ele>
        <time>2014-08-31T08:28:09Z</time>
      </trkpt>
      <trkpt lat="43.7338" lon="6.95099">
        <ele>982</ele>
        <time>2014-08-31T08:28:14Z</time>
      </trkpt>
      <trkpt lat="43.73372" lon="6.95113">
        <ele>983</ele>
        <time>2014-08-31T08:28:19Z</time>
      </trkpt>
      <trkpt lat="43.73364" lon="6.95128">
        <ele>984</ele>
        <time>2014-08-31T08:28:24Z</time>
      </trkpt>
      <trkpt lat="43.73351" lon="6.95147">
        <ele>986</ele>
        <time>2014-08-31T08:28:32Z</time>
      </trkpt>
      <trkpt lat="43.73347" lon="6.95153">
        <ele>986</ele>
        <time>2014-08-31T08:28:34Z</time>
      </trkpt>
      <trkpt lat="43.73337" lon="6.95163">
        <ele>987</ele>
        <time>2014-08-31T08:28:39Z</time>
      </trkpt>
      <trkpt lat="43.73328" lon="6.95171">
        <ele>987</ele>
        <time>2014-08-31T08:28:44Z</time>
      </trkpt>
      <trkpt lat="43.73314" lon="6.95179">
        <ele>988</ele>
        <time>2014-08-31T08:28:50Z</time>
      </trkpt>
      <trkpt lat="43.73305" lon="6.95184">
        <ele>989</ele>
        <time>2014-08-31T08:28:54Z</time>
      </trkpt>
      <trkpt lat="43.7329" lon="6.95185">
        <ele>990</ele>
        <time>2014-08-31T08:29:00Z</time>
      </trkpt>
      <trkpt lat="43.7328" lon="6.95184">
        <ele>991</ele>
        <time>2014-08-31T08:29:04Z</time>
      </trkpt>
      <trkpt lat="43.73259" lon="6.9518">
        <ele>992</ele>
        <time>2014-08-31T08:29:12Z</time>
      </trkpt>
      <trkpt lat="43.73254" lon="6.95179">
        <ele>992</ele>
        <time>2014-08-31T08:29:14Z</time>
      </trkpt>
      <trkpt lat="43.73239" lon="6.95178">
        <ele>995</ele>
        <time>2014-08-31T08:29:20Z</time>
      </trkpt>
      <trkpt lat="43.73221" lon="6.95175">
        <ele>993</ele>
        <time>2014-08-31T08:29:27Z</time>
      </trkpt>
      <trkpt lat="43.73216" lon="6.95174">
        <ele>993</ele>
        <time>2014-08-31T08:29:29Z</time>
      </trkpt>
      <trkpt lat="43.732" lon="6.95171">
        <ele>997</ele>
        <time>2014-08-31T08:29:36Z</time>
      </trkpt>
      <trkpt lat="43.73193" lon="6.9517">
        <ele>998</ele>
        <time>2014-08-31T08:29:39Z</time>
      </trkpt>
      <trkpt lat="43.73182" lon="6.95175">
        <ele>998</ele>
        <time>2014-08-31T08:29:44Z</time>
      </trkpt>
      <trkpt lat="43.73172" lon="6.95186">
        <ele>1000</ele>
        <time>2014-08-31T08:29:49Z</time>
      </trkpt>
      <trkpt lat="43.73167" lon="6.95202">
        <ele>1001</ele>
        <time>2014-08-31T08:29:54Z</time>
      </trkpt>
      <trkpt lat="43.73167" lon="6.95225">
        <ele>1002</ele>
        <time>2014-08-31T08:30:01Z</time>
      </trkpt>
      <trkpt lat="43.73167" lon="6.95235">
        <ele>1001</ele>
        <time>2014-08-31T08:30:04Z</time>
      </trkpt>
      <trkpt lat="43.73167" lon="6.95251">
        <ele>1002</ele>
        <time>2014-08-31T08:30:09Z</time>
      </trkpt>
      <trkpt lat="43.73165" lon="6.95267">
        <ele>1003</ele>
        <time>2014-08-31T08:30:14Z</time>
      </trkpt>
      <trkpt lat="43.73158" lon="6.95291">
        <ele>1006</ele>
        <time>2014-08-31T08:30:22Z</time>
      </trkpt>
      <trkpt lat="43.73154" lon="6.95296">
        <ele>1007</ele>
        <time>2014-08-31T08:30:24Z</time>
      </trkpt>
      <trkpt lat="43.73147" lon="6.95309">
        <ele>1008</ele>
        <time>2014-08-31T08:30:29Z</time>
      </trkpt>
      <trkpt lat="43.7314" lon="6.95321">
        <ele>1009</ele>
        <time>2014-08-31T08:30:34Z</time>
      </trkpt>
      <trkpt lat="43.73132" lon="6.95334">
        <ele>1011</ele>
        <time>2014-08-31T08:30:39Z</time>
      </trkpt>
      <trkpt lat="43.7312" lon="6.9534">
        <ele>1012</ele>
        <time>2014-08-31T08:30:44Z</time>
      </trkpt>
      <trkpt lat="43.7311" lon="6.95329">
        <ele>1013</ele>
        <time>2014-08-31T08:30:49Z</time>
      </trkpt>
      <trkpt lat="43.73113" lon="6.95313">
        <ele>1013</ele>
        <time>2014-08-31T08:30:54Z</time>
      </trkpt>
      <trkpt lat="43.73121" lon="6.95298">
        <ele>1013</ele>
        <time>2014-08-31T08:30:59Z</time>
      </trkpt>
      <trkpt lat="43.73126" lon="6.95281">
        <ele>1014</ele>
        <time>2014-08-31T08:31:04Z</time>
      </trkpt>
      <trkpt lat="43.7313" lon="6.95263">
        <ele>1014</ele>
        <time>2014-08-31T08:31:09Z</time>
      </trkpt>
      <trkpt lat="43.73131" lon="6.95246">
        <ele>1015</ele>
        <time>2014-08-31T08:31:14Z</time>
      </trkpt>
      <trkpt lat="43.73114" lon="6.95245">
        <ele>1018</ele>
        <time>2014-08-31T08:31:23Z</time>
      </trkpt>
      <trkpt lat="43.73112" lon="6.95247">
        <ele>1017</ele>
        <time>2014-08-31T08:31:24Z</time>
      </trkpt>
      <trkpt lat="43.73105" lon="6.95257">
        <ele>1018</ele>
        <time>2014-08-31T08:31:29Z</time>
      </trkpt>
      <trkpt lat="43.73096" lon="6.95268">
        <ele>1019</ele>
        <time>2014-08-31T08:31:34Z</time>
      </trkpt>
      <trkpt lat="43.73089" lon="6.95281">
        <ele>1020</ele>
        <time>2014-08-31T08:31:39Z</time>
      </trkpt>
      <trkpt lat="43.7308" lon="6.95291">
        <ele>1021</ele>
        <time>2014-08-31T08:31:44Z</time>
      </trkpt>
      <trkpt lat="43.73068" lon="6.95288">
        <ele>1022</ele>
        <time>2014-08-31T08:31:49Z</time>
      </trkpt>
      <trkpt lat="43.73058" lon="6.95286">
        <ele>1023</ele>
        <time>2014-08-31T08:31:54Z</time>
      </trkpt>
      <trkpt lat="43.73057" lon="6.95285">
        <ele>1022</ele>
        <time>2014-08-31T08:31:59Z</time>
      </trkpt>
      <trkpt lat="43.73059" lon="6.95284">
        <ele>1022</ele>
        <time>2014-08-31T08:32:04Z</time>
      </trkpt>
      <trkpt lat="43.73059" lon="6.95284">
        <ele>1023</ele>
        <time>2014-08-31T08:32:09Z</time>
      </trkpt>
      <trkpt lat="43.73059" lon="6.95284">
        <ele>1023</ele>
        <time>2014-08-31T08:32:14Z</time>
      </trkpt>
      <trkpt lat="43.73059" lon="6.95284">
        <ele>1023</ele>
        <time>2014-08-31T08:32:19Z</time>
      </trkpt>
      <trkpt lat="43.73059" lon="6.95284">
        <ele>1023</ele>
        <time>2014-08-31T08:32:24Z</time>
      </trkpt>
      <trkpt lat="43.73059" lon="6.95284">
        <ele>1023</ele>
        <time>2014-08-31T08:32:29Z</time>
      </trkpt>
      <trkpt lat="43.73059" lon="6.95284">
        <ele>1023</ele>
        <time>2014-08-31T08:32:35Z</time>
      </trkpt>
      <trkpt lat="43.73059" lon="6.95284">
        <ele>1023</ele>
        <time>2014-08-31T08:32:43Z</time>
      </trkpt>
      <trkpt lat="43.73059" lon="6.95284">
        <ele>1023</ele>
        <time>2014-08-31T08:32:44Z</time>
      </trkpt>
      <trkpt lat="43.73059" lon="6.95284">
        <ele>1023</ele>
        <time>2014-08-31T08:32:49Z</time>
      </trkpt>
      <trkpt lat="43.73059" lon="6.95284">
        <ele>1023</ele>
        <time>2014-08-31T08:32:56Z</time>
      </trkpt>
      <trkpt lat="43.73059" lon="6.95284">
        <ele>1023</ele>
        <time>2014-08-31T08:32:59Z</time>
      </trkpt>
      <trkpt lat="43.73059" lon="6.95284">
        <ele>1023</ele>
        <time>2014-08-31T08:33:05Z</time>
      </trkpt>
      <trkpt lat="43.73059" lon="6.95284">
        <ele>1023</ele>
        <time>2014-08-31T08:33:10Z</time>
      </trkpt>
      <trkpt lat="43.73059" lon="6.95284">
        <ele>1023</ele>
        <time>2014-08-31T08:33:15Z</time>
      </trkpt>
      <trkpt lat="43.73059" lon="6.95284">
        <ele>1023</ele>
        <time>2014-08-31T08:33:19Z</time>
      </trkpt>
      <trkpt lat="43.73059" lon="6.95284">
        <ele>1023</ele>
        <time>2014-08-31T08:33:24Z</time>
      </trkpt>
      <trkpt lat="43.73059" lon="6.95284">
        <ele>1023</ele>
        <time>2014-08-31T08:33:29Z</time>
      </trkpt>
      <trkpt lat="43.73059" lon="6.95284">
        <ele>1023</ele>
        <time>2014-08-31T08:33:34Z</time>
      </trkpt>
      <trkpt lat="43.73059" lon="6.95284">
        <ele>1023</ele>
        <time>2014-08-31T08:33:39Z</time>
      </trkpt>
      <trkpt lat="43.73059" lon="6.95284">
        <ele>1023</ele>
        <time>2014-08-31T08:33:44Z</time>
      </trkpt>
      <trkpt lat="43.73059" lon="6.95284">
        <ele>1023</ele>
        <time>2014-08-31T08:33:49Z</time>
      </trkpt>
      <trkpt lat="43.73059" lon="6.95284">
        <ele>1023</ele>
        <time>2014-08-31T08:33:54Z</time>
      </trkpt>
      <trkpt lat="43.73059" lon="6.95284">
        <ele>1023</ele>
        <time>2014-08-31T08:33:59Z</time>
      </trkpt>
      <trkpt lat="43.73059" lon="6.95284">
        <ele>1023</ele>
        <time>2014-08-31T08:34:04Z</time>
      </trkpt>
      <trkpt lat="43.73059" lon="6.95284">
        <ele>1023</ele>
        <time>2014-08-31T08:34:09Z</time>
      </trkpt>
      <trkpt lat="43.73059" lon="6.95284">
        <ele>1023</ele>
        <time>2014-08-31T08:34:14Z</time>
      </trkpt>
      <trkpt lat="43.73059" lon="6.95284">
        <ele>1023</ele>
        <time>2014-08-31T08:34:19Z</time>
      </trkpt>
      <trkpt lat="43.73059" lon="6.95284">
        <ele>1023</ele>
        <time>2014-08-31T08:34:24Z</time>
      </trkpt>
      <trkpt lat="43.73059" lon="6.95284">
        <ele>1023</ele>
        <time>2014-08-31T08:34:29Z</time>
      </trkpt>
      <trkpt lat="43.73059" lon="6.95284">
        <ele>1023</ele>
        <time>2014-08-31T08:34:34Z</time>
      </trkpt>
      <trkpt lat="43.73059" lon="6.95284">
        <ele>1023</ele>
        <time>2014-08-31T08:34:39Z</time>
      </trkpt>
      <trkpt lat="43.73059" lon="6.95284">
        <ele>1023</ele>
        <time>2014-08-31T08:34:44Z</time>
      </trkpt>
      <trkpt lat="43.73059" lon="6.95284">
        <ele>1023</ele>
        <time>2014-08-31T08:34:52Z</time>
      </trkpt>
      <trkpt lat="43.73059" lon="6.95284">
        <ele>1023</ele>
        <time>2014-08-31T08:34:54Z</time>
      </trkpt>
      <trkpt lat="43.73059" lon="6.95284">
        <ele>1023</ele>
        <time>2014-08-31T08:34:59Z</time>
      </trkpt>
      <trkpt lat="43.73058" lon="6.95284">
        <ele>1024</ele>
        <time>2014-08-31T08:35:04Z</time>
      </trkpt>
      <trkpt lat="43.73057" lon="6.95285">
        <ele>1022</ele>
        <time>2014-08-31T08:35:09Z</time>
      </trkpt>
      <trkpt lat="43.73056" lon="6.95285">
        <ele>1021</ele>
        <time>2014-08-31T08:35:14Z</time>
      </trkpt>
      <trkpt lat="43.73056" lon="6.95285">
        <ele>1021</ele>
        <time>2014-08-31T08:35:19Z</time>
      </trkpt>
      <trkpt lat="43.73056" lon="6.95286">
        <ele>1021</ele>
        <time>2014-08-31T08:35:24Z</time>
      </trkpt>
      <trkpt lat="43.73055" lon="6.95285">
        <ele>1020</ele>
        <time>2014-08-31T08:35:29Z</time>
      </trkpt>
      <trkpt lat="43.73055" lon="6.95285">
        <ele>1019</ele>
        <time>2014-08-31T08:35:35Z</time>
      </trkpt>
      <trkpt lat="43.73055" lon="6.95285">
        <ele>1019</ele>
        <time>2014-08-31T08:35:39Z</time>
      </trkpt>
      <trkpt lat="43.73055" lon="6.95285">
        <ele>1019</ele>
        <time>2014-08-31T08:35:44Z</time>
      </trkpt>
      <trkpt lat="43.73055" lon="6.95285">
        <ele>1019</ele>
        <time>2014-08-31T08:35:49Z</time>
      </trkpt>
      <trkpt lat="43.73055" lon="6.95285">
        <ele>1020</ele>
        <time>2014-08-31T08:35:57Z</time>
      </trkpt>
      <trkpt lat="43.73054" lon="6.95286">
        <ele>1020</ele>
        <time>2014-08-31T08:35:59Z</time>
      </trkpt>
      <trkpt lat="43.73054" lon="6.95286">
        <ele>1021</ele>
        <time>2014-08-31T08:36:04Z</time>
      </trkpt>
      <trkpt lat="43.73054" lon="6.95286">
        <ele>1021</ele>
        <time>2014-08-31T08:36:13Z</time>
      </trkpt>
      <trkpt lat="43.73054" lon="6.95286">
        <ele>1021</ele>
        <time>2014-08-31T08:36:14Z</time>
      </trkpt>
      <trkpt lat="43.73054" lon="6.95286">
        <ele>1021</ele>
        <time>2014-08-31T08:36:19Z</time>
      </trkpt>
      <trkpt lat="43.73054" lon="6.95286">
        <ele>1021</ele>
        <time>2014-08-31T08:36:24Z</time>
      </trkpt>
      <trkpt lat="43.73053" lon="6.95288">
        <ele>1020</ele>
        <time>2014-08-31T08:36:29Z</time>
      </trkpt>
      <trkpt lat="43.73052" lon="6.95287">
        <ele>1021</ele>
        <time>2014-08-31T08:36:34Z</time>
      </trkpt>
      <trkpt lat="43.73053" lon="6.95287">
        <ele>1022</ele>
        <time>2014-08-31T08:36:39Z</time>
      </trkpt>
      <trkpt lat="43.73053" lon="6.95287">
        <ele>1022</ele>
        <time>2014-08-31T08:36:44Z</time>
      </trkpt>
      <trkpt lat="43.73053" lon="6.95287">
        <ele>1022</ele>
        <time>2014-08-31T08:36:49Z</time>
      </trkpt>
      <trkpt lat="43.73053" lon="6.95287">
        <ele>1022</ele>
        <time>2014-08-31T08:36:54Z</time>
      </trkpt>
      <trkpt lat="43.73053" lon="6.95287">
        <ele>1022</ele>
        <time>2014-08-31T08:36:59Z</time>
      </trkpt>
      <trkpt lat="43.73053" lon="6.95287">
        <ele>1022</ele>
        <time>2014-08-31T08:37:04Z</time>
      </trkpt>
      <trkpt lat="43.73053" lon="6.95287">
        <ele>1022</ele>
        <time>2014-08-31T08:37:09Z</time>
      </trkpt>
      <trkpt lat="43.73052" lon="6.95287">
        <ele>1022</ele>
        <time>2014-08-31T08:37:14Z</time>
      </trkpt>
      <trkpt lat="43.73052" lon="6.95286">
        <ele>1023</ele>
        <time>2014-08-31T08:37:19Z</time>
      </trkpt>
      <trkpt lat="43.73053" lon="6.95286">
        <ele>1023</ele>
        <time>2014-08-31T08:37:24Z</time>
      </trkpt>
      <trkpt lat="43.73053" lon="6.95286">
        <ele>1023</ele>
        <time>2014-08-31T08:37:29Z</time>
      </trkpt>
      <trkpt lat="43.73053" lon="6.95286">
        <ele>1023</ele>
        <time>2014-08-31T08:37:34Z</time>
      </trkpt>
      <trkpt lat="43.73053" lon="6.95286">
        <ele>1023</ele>
        <time>2014-08-31T08:37:39Z</time>
      </trkpt>
      <trkpt lat="43.73053" lon="6.95286">
        <ele>1023</ele>
        <time>2014-08-31T08:37:44Z</time>
      </trkpt>
      <trkpt lat="43.73053" lon="6.95286">
        <ele>1023</ele>
        <time>2014-08-31T08:37:49Z</time>
      </trkpt>
      <trkpt lat="43.73053" lon="6.95286">
        <ele>1023</ele>
        <time>2014-08-31T08:37:54Z</time>
      </trkpt>
      <trkpt lat="43.73053" lon="6.95286">
        <ele>1023</ele>
        <time>2014-08-31T08:37:59Z</time>
      </trkpt>
      <trkpt lat="43.73053" lon="6.95286">
        <ele>1023</ele>
        <time>2014-08-31T08:38:04Z</time>
      </trkpt>
      <trkpt lat="43.73053" lon="6.95286">
        <ele>1023</ele>
        <time>2014-08-31T08:38:09Z</time>
      </trkpt>
      <trkpt lat="43.73053" lon="6.95286">
        <ele>1023</ele>
        <time>2014-08-31T08:38:14Z</time>
      </trkpt>
      <trkpt lat="43.73053" lon="6.95286">
        <ele>1023</ele>
        <time>2014-08-31T08:38:19Z</time>
      </trkpt>
      <trkpt lat="43.73053" lon="6.95286">
        <ele>1023</ele>
        <time>2014-08-31T08:38:24Z</time>
      </trkpt>
      <trkpt lat="43.73053" lon="6.95286">
        <ele>1023</ele>
        <time>2014-08-31T08:38:29Z</time>
      </trkpt>
      <trkpt lat="43.73053" lon="6.95286">
        <ele>1023</ele>
        <time>2014-08-31T08:38:34Z</time>
      </trkpt>
      <trkpt lat="43.73053" lon="6.95286">
        <ele>1023</ele>
        <time>2014-08-31T08:38:39Z</time>
      </trkpt>
      <trkpt lat="43.73053" lon="6.95286">
        <ele>1023</ele>
        <time>2014-08-31T08:38:44Z</time>
      </trkpt>
      <trkpt lat="43.73053" lon="6.95286">
        <ele>1023</ele>
        <time>2014-08-31T08:38:49Z</time>
      </trkpt>
      <trkpt lat="43.73053" lon="6.95286">
        <ele>1023</ele>
        <time>2014-08-31T08:38:54Z</time>
      </trkpt>
      <trkpt lat="43.73053" lon="6.95286">
        <ele>1023</ele>
        <time>2014-08-31T08:38:59Z</time>
      </trkpt>
      <trkpt lat="43.73053" lon="6.95286">
        <ele>1023</ele>
        <time>2014-08-31T08:39:04Z</time>
      </trkpt>
      <trkpt lat="43.73053" lon="6.95286">
        <ele>1023</ele>
        <time>2014-08-31T08:39:09Z</time>
      </trkpt>
      <trkpt lat="43.73053" lon="6.95286">
        <ele>1023</ele>
        <time>2014-08-31T08:39:14Z</time>
      </trkpt>
      <trkpt lat="43.73053" lon="6.95286">
        <ele>1023</ele>
        <time>2014-08-31T08:39:19Z</time>
      </trkpt>
      <trkpt lat="43.73053" lon="6.95286">
        <ele>1023</ele>
        <time>2014-08-31T08:39:24Z</time>
      </trkpt>
      <trkpt lat="43.73053" lon="6.95286">
        <ele>1023</ele>
        <time>2014-08-31T08:39:29Z</time>
      </trkpt>
      <trkpt lat="43.73053" lon="6.95286">
        <ele>1023</ele>
        <time>2014-08-31T08:39:38Z</time>
      </trkpt>
      <trkpt lat="43.73053" lon="6.95286">
        <ele>1023</ele>
        <time>2014-08-31T08:39:41Z</time>
      </trkpt>
      <trkpt lat="43.73053" lon="6.95285">
        <ele>1024</ele>
        <time>2014-08-31T08:39:47Z</time>
      </trkpt>
      <trkpt lat="43.73052" lon="6.95284">
        <ele>1025</ele>
        <time>2014-08-31T08:39:49Z</time>
      </trkpt>
      <trkpt lat="43.73052" lon="6.95284">
        <ele>1025</ele>
        <time>2014-08-31T08:39:54Z</time>
      </trkpt>
      <trkpt lat="43.73052" lon="6.95285">
        <ele>1026</ele>
        <time>2014-08-31T08:39:59Z</time>
      </trkpt>
      <trkpt lat="43.73053" lon="6.95285">
        <ele>1025</ele>
        <time>2014-08-31T08:40:04Z</time>
      </trkpt>
      <trkpt lat="43.73054" lon="6.95285">
        <ele>1025</ele>
        <time>2014-08-31T08:40:09Z</time>
      </trkpt>
      <trkpt lat="43.73054" lon="6.95284">
        <ele>1024</ele>
        <time>2014-08-31T08:40:14Z</time>
      </trkpt>
      <trkpt lat="43.73054" lon="6.95285">
        <ele>1025</ele>
        <time>2014-08-31T08:40:19Z</time>
      </trkpt>
      <trkpt lat="43.73054" lon="6.95285">
        <ele>1025</ele>
        <time>2014-08-31T08:40:24Z</time>
      </trkpt>
      <trkpt lat="43.73054" lon="6.95285">
        <ele>1025</ele>
        <time>2014-08-31T08:40:31Z</time>
      </trkpt>
      <trkpt lat="43.73054" lon="6.95285">
        <ele>1025</ele>
        <time>2014-08-31T08:40:34Z</time>
      </trkpt>
      <trkpt lat="43.73054" lon="6.95285">
        <ele>1025</ele>
        <time>2014-08-31T08:40:39Z</time>
      </trkpt>
      <trkpt lat="43.73055" lon="6.95286">
        <ele>1025</ele>
        <time>2014-08-31T08:40:44Z</time>
      </trkpt>
      <trkpt lat="43.73054" lon="6.95285">
        <ele>1025</ele>
        <time>2014-08-31T08:40:49Z</time>
      </trkpt>
      <trkpt lat="43.73054" lon="6.95285">
        <ele>1025</ele>
        <time>2014-08-31T08:40:54Z</time>
      </trkpt>
      <trkpt lat="43.73054" lon="6.95285">
        <ele>1025</ele>
        <time>2014-08-31T08:40:59Z</time>
      </trkpt>
      <trkpt lat="43.73054" lon="6.95285">
        <ele>1025</ele>
        <time>2014-08-31T08:41:04Z</time>
      </trkpt>
      <trkpt lat="43.73054" lon="6.95285">
        <ele>1025</ele>
        <time>2014-08-31T08:41:09Z</time>
      </trkpt>
      <trkpt lat="43.73054" lon="6.95285">
        <ele>1025</ele>
        <time>2014-08-31T08:41:14Z</time>
      </trkpt>
      <trkpt lat="43.73054" lon="6.95285">
        <ele>1025</ele>
        <time>2014-08-31T08:41:20Z</time>
      </trkpt>
      <trkpt lat="43.73054" lon="6.95285">
        <ele>1025</ele>
        <time>2014-08-31T08:41:24Z</time>
      </trkpt>
      <trkpt lat="43.73054" lon="6.95285">
        <ele>1025</ele>
        <time>2014-08-31T08:41:29Z</time>
      </trkpt>
      <trkpt lat="43.73054" lon="6.95285">
        <ele>1025</ele>
        <time>2014-08-31T08:41:34Z</time>
      </trkpt>
      <trkpt lat="43.73054" lon="6.95285">
        <ele>1025</ele>
        <time>2014-08-31T08:41:39Z</time>
      </trkpt>
      <trkpt lat="43.73054" lon="6.95285">
        <ele>1025</ele>
        <time>2014-08-31T08:41:46Z</time>
      </trkpt>
      <trkpt lat="43.73054" lon="6.95285">
        <ele>1025</ele>
        <time>2014-08-31T08:41:49Z</time>
      </trkpt>
      <trkpt lat="43.73054" lon="6.95285">
        <ele>1025</ele>
        <time>2014-08-31T08:41:54Z</time>
      </trkpt>
      <trkpt lat="43.73054" lon="6.95285">
        <ele>1025</ele>
        <time>2014-08-31T08:41:59Z</time>
      </trkpt>
      <trkpt lat="43.73054" lon="6.95285">
        <ele>1025</ele>
        <time>2014-08-31T08:42:05Z</time>
      </trkpt>
      <trkpt lat="43.73054" lon="6.95285">
        <ele>1025</ele>
        <time>2014-08-31T08:42:09Z</time>
      </trkpt>
      <trkpt lat="43.73055" lon="6.95285">
        <ele>1026</ele>
        <time>2014-08-31T08:42:15Z</time>
      </trkpt>
      <trkpt lat="43.73054" lon="6.95285">
        <ele>1025</ele>
        <time>2014-08-31T08:42:19Z</time>
      </trkpt>
      <trkpt lat="43.73054" lon="6.95285">
        <ele>1025</ele>
        <time>2014-08-31T08:42:27Z</time>
      </trkpt>
      <trkpt lat="43.73054" lon="6.95285">
        <ele>1025</ele>
        <time>2014-08-31T08:42:29Z</time>
      </trkpt>
      <trkpt lat="43.73054" lon="6.95285">
        <ele>1025</ele>
        <time>2014-08-31T08:42:34Z</time>
      </trkpt>
      <trkpt lat="43.73054" lon="6.95285">
        <ele>1024</ele>
        <time>2014-08-31T08:42:39Z</time>
      </trkpt>
      <trkpt lat="43.73054" lon="6.95285">
        <ele>1024</ele>
        <time>2014-08-31T08:42:44Z</time>
      </trkpt>
      <trkpt lat="43.73054" lon="6.95286">
        <ele>1025</ele>
        <time>2014-08-31T08:42:50Z</time>
      </trkpt>
      <trkpt lat="43.73054" lon="6.95286">
        <ele>1025</ele>
        <time>2014-08-31T08:42:54Z</time>
      </trkpt>
      <trkpt lat="43.73054" lon="6.95286">
        <ele>1025</ele>
        <time>2014-08-31T08:43:03Z</time>
      </trkpt>
      <trkpt lat="43.73054" lon="6.95286">
        <ele>1025</ele>
        <time>2014-08-31T08:43:04Z</time>
      </trkpt>
      <trkpt lat="43.73054" lon="6.95286">
        <ele>1025</ele>
        <time>2014-08-31T08:43:09Z</time>
      </trkpt>
      <trkpt lat="43.73054" lon="6.95286">
        <ele>1025</ele>
        <time>2014-08-31T08:43:14Z</time>
      </trkpt>
      <trkpt lat="43.73054" lon="6.95286">
        <ele>1025</ele>
        <time>2014-08-31T08:43:19Z</time>
      </trkpt>
      <trkpt lat="43.73054" lon="6.95286">
        <ele>1025</ele>
        <time>2014-08-31T08:43:25Z</time>
      </trkpt>
      <trkpt lat="43.73054" lon="6.95286">
        <ele>1025</ele>
        <time>2014-08-31T08:43:29Z</time>
      </trkpt>
      <trkpt lat="43.73054" lon="6.95286">
        <ele>1025</ele>
        <time>2014-08-31T08:43:36Z</time>
      </trkpt>
      <trkpt lat="43.73054" lon="6.95286">
        <ele>1025</ele>
        <time>2014-08-31T08:43:39Z</time>
      </trkpt>
      <trkpt lat="43.73054" lon="6.95286">
        <ele>1025</ele>
        <time>2014-08-31T08:43:44Z</time>
      </trkpt>
      <trkpt lat="43.73054" lon="6.95286">
        <ele>1025</ele>
        <time>2014-08-31T08:43:49Z</time>
      </trkpt>
      <trkpt lat="43.73054" lon="6.95286">
        <ele>1025</ele>
        <time>2014-08-31T08:43:56Z</time>
      </trkpt>
      <trkpt lat="43.73054" lon="6.95286">
        <ele>1025</ele>
        <time>2014-08-31T08:44:00Z</time>
      </trkpt>
      <trkpt lat="43.73054" lon="6.95286">
        <ele>1025</ele>
        <time>2014-08-31T08:44:04Z</time>
      </trkpt>
      <trkpt lat="43.73054" lon="6.95286">
        <ele>1025</ele>
        <time>2014-08-31T08:44:09Z</time>
      </trkpt>
      <trkpt lat="43.73054" lon="6.95286">
        <ele>1025</ele>
        <time>2014-08-31T08:44:14Z</time>
      </trkpt>
      <trkpt lat="43.73054" lon="6.95286">
        <ele>1025</ele>
        <time>2014-08-31T08:44:19Z</time>
      </trkpt>
      <trkpt lat="43.73054" lon="6.95286">
        <ele>1025</ele>
        <time>2014-08-31T08:44:24Z</time>
      </trkpt>
      <trkpt lat="43.73054" lon="6.95286">
        <ele>1025</ele>
        <time>2014-08-31T08:44:29Z</time>
      </trkpt>
      <trkpt lat="43.73054" lon="6.95286">
        <ele>1025</ele>
        <time>2014-08-31T08:44:34Z</time>
      </trkpt>
      <trkpt lat="43.73054" lon="6.95286">
        <ele>1025</ele>
        <time>2014-08-31T08:44:39Z</time>
      </trkpt>
      <trkpt lat="43.73054" lon="6.95286">
        <ele>1025</ele>
        <time>2014-08-31T08:44:46Z</time>
      </trkpt>
      <trkpt lat="43.73054" lon="6.95286">
        <ele>1025</ele>
        <time>2014-08-31T08:44:49Z</time>
      </trkpt>
      <trkpt lat="43.73054" lon="6.95286">
        <ele>1025</ele>
        <time>2014-08-31T08:44:54Z</time>
      </trkpt>
      <trkpt lat="43.73054" lon="6.95286">
        <ele>1025</ele>
        <time>2014-08-31T08:44:59Z</time>
      </trkpt>
      <trkpt lat="43.73054" lon="6.95286">
        <ele>1025</ele>
        <time>2014-08-31T08:45:05Z</time>
      </trkpt>
      <trkpt lat="43.73054" lon="6.95286">
        <ele>1025</ele>
        <time>2014-08-31T08:45:12Z</time>
      </trkpt>
      <trkpt lat="43.73053" lon="6.95285">
        <ele>1024</ele>
        <time>2014-08-31T08:45:14Z</time>
      </trkpt>
      <trkpt lat="43.73053" lon="6.95286">
        <ele>1024</ele>
        <time>2014-08-31T08:45:19Z</time>
      </trkpt>
      <trkpt lat="43.73053" lon="6.95286">
        <ele>1025</ele>
        <time>2014-08-31T08:45:24Z</time>
      </trkpt>
      <trkpt lat="43.73053" lon="6.95286">
        <ele>1025</ele>
        <time>2014-08-31T08:45:29Z</time>
      </trkpt>
      <trkpt lat="43.73053" lon="6.95286">
        <ele>1025</ele>
        <time>2014-08-31T08:45:34Z</time>
      </trkpt>
      <trkpt lat="43.73053" lon="6.95286">
        <ele>1025</ele>
        <time>2014-08-31T08:45:39Z</time>
      </trkpt>
      <trkpt lat="43.73053" lon="6.95286">
        <ele>1025</ele>
        <time>2014-08-31T08:45:46Z</time>
      </trkpt>
      <trkpt lat="43.73053" lon="6.95286">
        <ele>1025</ele>
        <time>2014-08-31T08:45:51Z</time>
      </trkpt>
      <trkpt lat="43.73053" lon="6.95286">
        <ele>1025</ele>
        <time>2014-08-31T08:45:55Z</time>
      </trkpt>
      <trkpt lat="43.73053" lon="6.95286">
        <ele>1025</ele>
        <time>2014-08-31T08:46:00Z</time>
      </trkpt>
      <trkpt lat="43.73053" lon="6.95286">
        <ele>1025</ele>
        <time>2014-08-31T08:46:04Z</time>
      </trkpt>
      <trkpt lat="43.73053" lon="6.95285">
        <ele>1025</ele>
        <time>2014-08-31T08:46:13Z</time>
      </trkpt>
      <trkpt lat="43.73053" lon="6.95285">
        <ele>1025</ele>
        <time>2014-08-31T08:46:14Z</time>
      </trkpt>
      <trkpt lat="43.73053" lon="6.95285">
        <ele>1025</ele>
        <time>2014-08-31T08:46:19Z</time>
      </trkpt>
      <trkpt lat="43.73053" lon="6.95285">
        <ele>1025</ele>
        <time>2014-08-31T08:46:24Z</time>
      </trkpt>
      <trkpt lat="43.73053" lon="6.95285">
        <ele>1025</ele>
        <time>2014-08-31T08:46:29Z</time>
      </trkpt>
      <trkpt lat="43.73053" lon="6.95285">
        <ele>1025</ele>
        <time>2014-08-31T08:46:34Z</time>
      </trkpt>
      <trkpt lat="43.73053" lon="6.95285">
        <ele>1025</ele>
        <time>2014-08-31T08:46:39Z</time>
      </trkpt>
      <trkpt lat="43.73053" lon="6.95285">
        <ele>1025</ele>
        <time>2014-08-31T08:46:44Z</time>
      </trkpt>
      <trkpt lat="43.73053" lon="6.95285">
        <ele>1025</ele>
        <time>2014-08-31T08:46:49Z</time>
      </trkpt>
      <trkpt lat="43.73053" lon="6.95285">
        <ele>1025</ele>
        <time>2014-08-31T08:46:54Z</time>
      </trkpt>
      <trkpt lat="43.73053" lon="6.95285">
        <ele>1025</ele>
        <time>2014-08-31T08:47:00Z</time>
      </trkpt>
      <trkpt lat="43.73053" lon="6.95285">
        <ele>1025</ele>
        <time>2014-08-31T08:47:04Z</time>
      </trkpt>
      <trkpt lat="43.73053" lon="6.95285">
        <ele>1025</ele>
        <time>2014-08-31T08:47:09Z</time>
      </trkpt>
      <trkpt lat="43.73053" lon="6.95285">
        <ele>1025</ele>
        <time>2014-08-31T08:47:14Z</time>
      </trkpt>
      <trkpt lat="43.73053" lon="6.95285">
        <ele>1025</ele>
        <time>2014-08-31T08:47:19Z</time>
      </trkpt>
      <trkpt lat="43.73053" lon="6.95285">
        <ele>1025</ele>
        <time>2014-08-31T08:47:24Z</time>
      </trkpt>
      <trkpt lat="43.73053" lon="6.95286">
        <ele>1025</ele>
        <time>2014-08-31T08:47:32Z</time>
      </trkpt>
      <trkpt lat="43.73053" lon="6.95286">
        <ele>1025</ele>
        <time>2014-08-31T08:47:36Z</time>
      </trkpt>
      <trkpt lat="43.73053" lon="6.95286">
        <ele>1026</ele>
        <time>2014-08-31T08:47:39Z</time>
      </trkpt>
      <trkpt lat="43.73053" lon="6.95286">
        <ele>1024</ele>
        <time>2014-08-31T08:47:44Z</time>
      </trkpt>
      <trkpt lat="43.73053" lon="6.95287">
        <ele>1026</ele>
        <time>2014-08-31T08:47:50Z</time>
      </trkpt>
      <trkpt lat="43.73053" lon="6.95287">
        <ele>1027</ele>
        <time>2014-08-31T08:47:54Z</time>
      </trkpt>
      <trkpt lat="43.73053" lon="6.95287">
        <ele>1027</ele>
        <time>2014-08-31T08:47:59Z</time>
      </trkpt>
      <trkpt lat="43.73053" lon="6.95287">
        <ele>1027</ele>
        <time>2014-08-31T08:48:04Z</time>
      </trkpt>
      <trkpt lat="43.73053" lon="6.95287">
        <ele>1027</ele>
        <time>2014-08-31T08:48:09Z</time>
      </trkpt>
      <trkpt lat="43.73053" lon="6.95287">
        <ele>1027</ele>
        <time>2014-08-31T08:48:14Z</time>
      </trkpt>
      <trkpt lat="43.73053" lon="6.95287">
        <ele>1027</ele>
        <time>2014-08-31T08:48:19Z</time>
      </trkpt>
      <trkpt lat="43.73053" lon="6.95287">
        <ele>1027</ele>
        <time>2014-08-31T08:48:24Z</time>
      </trkpt>
      <trkpt lat="43.73053" lon="6.95287">
        <ele>1027</ele>
        <time>2014-08-31T08:48:30Z</time>
      </trkpt>
      <trkpt lat="43.73053" lon="6.95287">
        <ele>1027</ele>
        <time>2014-08-31T08:48:34Z</time>
      </trkpt>
      <trkpt lat="43.73053" lon="6.95287">
        <ele>1027</ele>
        <time>2014-08-31T08:48:39Z</time>
      </trkpt>
      <trkpt lat="43.73053" lon="6.95287">
        <ele>1027</ele>
        <time>2014-08-31T08:48:44Z</time>
      </trkpt>
      <trkpt lat="43.73053" lon="6.95287">
        <ele>1027</ele>
        <time>2014-08-31T08:48:49Z</time>
      </trkpt>
      <trkpt lat="43.73053" lon="6.95287">
        <ele>1027</ele>
        <time>2014-08-31T08:48:54Z</time>
      </trkpt>
      <trkpt lat="43.73053" lon="6.95287">
        <ele>1027</ele>
        <time>2014-08-31T08:48:59Z</time>
      </trkpt>
      <trkpt lat="43.73053" lon="6.95287">
        <ele>1027</ele>
        <time>2014-08-31T08:49:04Z</time>
      </trkpt>
      <trkpt lat="43.73053" lon="6.95287">
        <ele>1027</ele>
        <time>2014-08-31T08:49:09Z</time>
      </trkpt>
      <trkpt lat="43.73053" lon="6.95287">
        <ele>1027</ele>
        <time>2014-08-31T08:49:14Z</time>
      </trkpt>
      <trkpt lat="43.73053" lon="6.95287">
        <ele>1027</ele>
        <time>2014-08-31T08:49:19Z</time>
      </trkpt>
      <trkpt lat="43.73053" lon="6.95287">
        <ele>1027</ele>
        <time>2014-08-31T08:49:24Z</time>
      </trkpt>
      <trkpt lat="43.73053" lon="6.95287">
        <ele>1027</ele>
        <time>2014-08-31T08:49:29Z</time>
      </trkpt>
      <trkpt lat="43.73053" lon="6.95287">
        <ele>1027</ele>
        <time>2014-08-31T08:49:35Z</time>
      </trkpt>
      <trkpt lat="43.73053" lon="6.95287">
        <ele>1027</ele>
        <time>2014-08-31T08:49:39Z</time>
      </trkpt>
      <trkpt lat="43.73053" lon="6.95287">
        <ele>1027</ele>
        <time>2014-08-31T08:49:44Z</time>
      </trkpt>
      <trkpt lat="43.73053" lon="6.95287">
        <ele>1027</ele>
        <time>2014-08-31T08:49:49Z</time>
      </trkpt>
      <trkpt lat="43.73053" lon="6.95287">
        <ele>1027</ele>
        <time>2014-08-31T08:49:54Z</time>
      </trkpt>
      <trkpt lat="43.73053" lon="6.95287">
        <ele>1027</ele>
        <time>2014-08-31T08:49:59Z</time>
      </trkpt>
      <trkpt lat="43.73053" lon="6.95287">
        <ele>1027</ele>
        <time>2014-08-31T08:50:06Z</time>
      </trkpt>
      <trkpt lat="43.73053" lon="6.95287">
        <ele>1027</ele>
        <time>2014-08-31T08:50:09Z</time>
      </trkpt>
      <trkpt lat="43.73053" lon="6.95287">
        <ele>1027</ele>
        <time>2014-08-31T08:50:14Z</time>
      </trkpt>
      <trkpt lat="43.73053" lon="6.95287">
        <ele>1027</ele>
        <time>2014-08-31T08:50:19Z</time>
      </trkpt>
      <trkpt lat="43.73053" lon="6.95287">
        <ele>1027</ele>
        <time>2014-08-31T08:50:24Z</time>
      </trkpt>
      <trkpt lat="43.73053" lon="6.95287">
        <ele>1027</ele>
        <time>2014-08-31T08:50:29Z</time>
      </trkpt>
      <trkpt lat="43.73053" lon="6.95287">
        <ele>1027</ele>
        <time>2014-08-31T08:50:37Z</time>
      </trkpt>
      <trkpt lat="43.73053" lon="6.95287">
        <ele>1026</ele>
        <time>2014-08-31T08:50:39Z</time>
      </trkpt>
      <trkpt lat="43.73053" lon="6.95287">
        <ele>1026</ele>
        <time>2014-08-31T08:50:44Z</time>
      </trkpt>
      <trkpt lat="43.73053" lon="6.95287">
        <ele>1026</ele>
        <time>2014-08-31T08:50:49Z</time>
      </trkpt>
      <trkpt lat="43.73053" lon="6.95287">
        <ele>1026</ele>
        <time>2014-08-31T08:50:54Z</time>
      </trkpt>
      <trkpt lat="43.73053" lon="6.95287">
        <ele>1026</ele>
        <time>2014-08-31T08:50:59Z</time>
      </trkpt>
      <trkpt lat="43.73053" lon="6.95287">
        <ele>1026</ele>
        <time>2014-08-31T08:51:04Z</time>
      </trkpt>
      <trkpt lat="43.73053" lon="6.95287">
        <ele>1026</ele>
        <time>2014-08-31T08:51:09Z</time>
      </trkpt>
      <trkpt lat="43.73053" lon="6.95287">
        <ele>1026</ele>
        <time>2014-08-31T08:51:14Z</time>
      </trkpt>
      <trkpt lat="43.73053" lon="6.95287">
        <ele>1026</ele>
        <time>2014-08-31T08:51:19Z</time>
      </trkpt>
      <trkpt lat="43.73053" lon="6.95287">
        <ele>1026</ele>
        <time>2014-08-31T08:51:24Z</time>
      </trkpt>
      <trkpt lat="43.73053" lon="6.95287">
        <ele>1026</ele>
        <time>2014-08-31T08:51:29Z</time>
      </trkpt>
      <trkpt lat="43.73053" lon="6.95287">
        <ele>1026</ele>
        <time>2014-08-31T08:51:34Z</time>
      </trkpt>
      <trkpt lat="43.73053" lon="6.95287">
        <ele>1026</ele>
        <time>2014-08-31T08:51:39Z</time>
      </trkpt>
      <trkpt lat="43.73053" lon="6.95287">
        <ele>1026</ele>
        <time>2014-08-31T08:51:45Z</time>
      </trkpt>
      <trkpt lat="43.73053" lon="6.95287">
        <ele>1026</ele>
        <time>2014-08-31T08:51:49Z</time>
      </trkpt>
      <trkpt lat="43.73053" lon="6.95287">
        <ele>1026</ele>
        <time>2014-08-31T08:51:55Z</time>
      </trkpt>
      <trkpt lat="43.73053" lon="6.95287">
        <ele>1026</ele>
        <time>2014-08-31T08:51:59Z</time>
      </trkpt>
      <trkpt lat="43.73053" lon="6.95287">
        <ele>1026</ele>
        <time>2014-08-31T08:52:04Z</time>
      </trkpt>
      <trkpt lat="43.73053" lon="6.95287">
        <ele>1026</ele>
        <time>2014-08-31T08:52:09Z</time>
      </trkpt>
      <trkpt lat="43.73053" lon="6.95287">
        <ele>1026</ele>
        <time>2014-08-31T08:52:16Z</time>
      </trkpt>
      <trkpt lat="43.73053" lon="6.95287">
        <ele>1026</ele>
        <time>2014-08-31T08:52:19Z</time>
      </trkpt>
      <trkpt lat="43.73053" lon="6.95287">
        <ele>1026</ele>
        <time>2014-08-31T08:52:24Z</time>
      </trkpt>
      <trkpt lat="43.73053" lon="6.95287">
        <ele>1026</ele>
        <time>2014-08-31T08:52:29Z</time>
      </trkpt>
      <trkpt lat="43.73053" lon="6.95287">
        <ele>1026</ele>
        <time>2014-08-31T08:52:34Z</time>
      </trkpt>
      <trkpt lat="43.73053" lon="6.95287">
        <ele>1026</ele>
        <time>2014-08-31T08:52:39Z</time>
      </trkpt>
      <trkpt lat="43.73053" lon="6.95287">
        <ele>1026</ele>
        <time>2014-08-31T08:52:44Z</time>
      </trkpt>
      <trkpt lat="43.73053" lon="6.95287">
        <ele>1026</ele>
        <time>2014-08-31T08:52:49Z</time>
      </trkpt>
      <trkpt lat="43.73053" lon="6.95287">
        <ele>1026</ele>
        <time>2014-08-31T08:52:54Z</time>
      </trkpt>
      <trkpt lat="43.73053" lon="6.95287">
        <ele>1026</ele>
        <time>2014-08-31T08:52:59Z</time>
      </trkpt>
      <trkpt lat="43.73053" lon="6.95287">
        <ele>1026</ele>
        <time>2014-08-31T08:53:04Z</time>
      </trkpt>
      <trkpt lat="43.73053" lon="6.95287">
        <ele>1026</ele>
        <time>2014-08-31T08:53:09Z</time>
      </trkpt>
      <trkpt lat="43.73053" lon="6.95287">
        <ele>1026</ele>
        <time>2014-08-31T08:53:14Z</time>
      </trkpt>
      <trkpt lat="43.73053" lon="6.95287">
        <ele>1026</ele>
        <time>2014-08-31T08:53:19Z</time>
      </trkpt>
      <trkpt lat="43.73053" lon="6.95287">
        <ele>1026</ele>
        <time>2014-08-31T08:53:24Z</time>
      </trkpt>
      <trkpt lat="43.73053" lon="6.95287">
        <ele>1026</ele>
        <time>2014-08-31T08:53:29Z</time>
      </trkpt>
      <trkpt lat="43.73053" lon="6.95287">
        <ele>1026</ele>
        <time>2014-08-31T08:53:34Z</time>
      </trkpt>
      <trkpt lat="43.73053" lon="6.95287">
        <ele>1026</ele>
        <time>2014-08-31T08:53:39Z</time>
      </trkpt>
      <trkpt lat="43.73053" lon="6.95287">
        <ele>1026</ele>
        <time>2014-08-31T08:53:44Z</time>
      </trkpt>
      <trkpt lat="43.73053" lon="6.95287">
        <ele>1026</ele>
        <time>2014-08-31T08:53:49Z</time>
      </trkpt>
      <trkpt lat="43.73053" lon="6.95287">
        <ele>1026</ele>
        <time>2014-08-31T08:53:54Z</time>
      </trkpt>
      <trkpt lat="43.73053" lon="6.95287">
        <ele>1026</ele>
        <time>2014-08-31T08:53:59Z</time>
      </trkpt>
      <trkpt lat="43.73053" lon="6.95287">
        <ele>1026</ele>
        <time>2014-08-31T08:54:04Z</time>
      </trkpt>
      <trkpt lat="43.73053" lon="6.95287">
        <ele>1026</ele>
        <time>2014-08-31T08:54:09Z</time>
      </trkpt>
      <trkpt lat="43.73053" lon="6.95287">
        <ele>1026</ele>
        <time>2014-08-31T08:54:15Z</time>
      </trkpt>
      <trkpt lat="43.73053" lon="6.95287">
        <ele>1026</ele>
        <time>2014-08-31T08:54:19Z</time>
      </trkpt>
      <trkpt lat="43.73053" lon="6.95287">
        <ele>1026</ele>
        <time>2014-08-31T08:54:24Z</time>
      </trkpt>
      <trkpt lat="43.73053" lon="6.95287">
        <ele>1026</ele>
        <time>2014-08-31T08:54:29Z</time>
      </trkpt>
      <trkpt lat="43.73053" lon="6.95287">
        <ele>1026</ele>
        <time>2014-08-31T08:54:34Z</time>
      </trkpt>
      <trkpt lat="43.73053" lon="6.95287">
        <ele>1026</ele>
        <time>2014-08-31T08:54:39Z</time>
      </trkpt>
      <trkpt lat="43.73053" lon="6.95287">
        <ele>1026</ele>
        <time>2014-08-31T08:54:45Z</time>
      </trkpt>
      <trkpt lat="43.73053" lon="6.95287">
        <ele>1026</ele>
        <time>2014-08-31T08:54:49Z</time>
      </trkpt>
      <trkpt lat="43.73053" lon="6.95287">
        <ele>1026</ele>
        <time>2014-08-31T08:54:54Z</time>
      </trkpt>
      <trkpt lat="43.73053" lon="6.95287">
        <ele>1026</ele>
        <time>2014-08-31T08:55:01Z</time>
      </trkpt>
      <trkpt lat="43.73053" lon="6.95287">
        <ele>1026</ele>
        <time>2014-08-31T08:55:04Z</time>
      </trkpt>
      <trkpt lat="43.73053" lon="6.95287">
        <ele>1026</ele>
        <time>2014-08-31T08:55:09Z</time>
      </trkpt>
      <trkpt lat="43.73053" lon="6.95287">
        <ele>1026</ele>
        <time>2014-08-31T08:55:14Z</time>
      </trkpt>
      <trkpt lat="43.73053" lon="6.95287">
        <ele>1026</ele>
        <time>2014-08-31T08:55:19Z</time>
      </trkpt>
      <trkpt lat="43.73053" lon="6.95287">
        <ele>1026</ele>
        <time>2014-08-31T08:55:24Z</time>
      </trkpt>
      <trkpt lat="43.73053" lon="6.95287">
        <ele>1026</ele>
        <time>2014-08-31T08:55:29Z</time>
      </trkpt>
      <trkpt lat="43.73053" lon="6.95287">
        <ele>1026</ele>
        <time>2014-08-31T08:55:34Z</time>
      </trkpt>
      <trkpt lat="43.73053" lon="6.95287">
        <ele>1026</ele>
        <time>2014-08-31T08:55:39Z</time>
      </trkpt>
      <trkpt lat="43.73053" lon="6.95287">
        <ele>1026</ele>
        <time>2014-08-31T08:55:44Z</time>
      </trkpt>
      <trkpt lat="43.73053" lon="6.95287">
        <ele>1026</ele>
        <time>2014-08-31T08:55:51Z</time>
      </trkpt>
      <trkpt lat="43.73053" lon="6.95287">
        <ele>1026</ele>
        <time>2014-08-31T08:55:54Z</time>
      </trkpt>
      <trkpt lat="43.73053" lon="6.95287">
        <ele>1026</ele>
        <time>2014-08-31T08:55:59Z</time>
      </trkpt>
      <trkpt lat="43.73053" lon="6.95287">
        <ele>1026</ele>
        <time>2014-08-31T08:56:04Z</time>
      </trkpt>
    </trkseg>
  </trk>
</gpx>